GFSGBSN_250_spd_000.txt.gz
Wind_Speed
72 67 62 60 57 55 50 50 49 50 48 47 49 48 54 51 52 53 53 52 50 44 45 45 51 53 55 64 73 73 72 80 91 96 94 97 93 87 76 71 68 65 63 60 54 51 54
73 75 68 63 59 58 54 50 50 50 50 46 49 48 53 52 53 54 52 54 48 42 43 49 49 54 60 71 81 75 73 73 86 100 99 98 94 91 83 77 70 68 63 60 51 51 51
79 75 73 66 62 57 53 52 50 49 53 46 49 47 52 51 55 55 54 56 42 41 46 48 56 61 64 76 80 80 72 73 78 101 105 101 99 95 87 79 73 70 60 55 49 50 52
80 79 75 68 63 60 55 53 53 50 53 47 49 46 52 50 54 54 56 50 37 43 46 54 61 67 70 77 79 80 69 69 83 97 109 105 102 97 88 82 77 69 60 53 52 50 53
76 79 79 73 69 63 58 57 53 53 54 48 49 45 50 51 53 55 55 45 41 47 56 59 65 66 65 66 68 72 60 68 87 100 109 108 103 98 93 84 78 68 56 57 51 51 51
68 72 78 77 73 67 61 59 58 54 53 47 48 44 50 50 53 54 53 42 43 49 57 65 67 64 55 52 61 56 53 62 76 91 104 107 102 100 93 85 66 60 58 60 52 51 49
66 68 73 75 74 70 61 57 55 54 53 44 46 44 49 50 53 54 47 43 46 51 61 67 64 52 42 44 50 46 49 55 64 77 97 106 101 97 85 75 71 66 70 61 54 52 47
65 68 69 75 74 70 64 59 53 52 51 42 44 43 47 51 52 53 41 45 49 58 60 63 55 44 35 38 42 40 46 51 60 74 97 104 96 94 87 81 74 72 67 61 52 52 49
62 68 69 71 72 68 65 59 51 51 47 42 42 42 46 51 49 46 41 48 54 60 58 61 51 41 33 33 37 40 46 53 65 80 99 96 94 95 86 80 75 70 66 62 55 55 49
63 65 70 69 69 67 62 59 52 51 46 40 39 39 44 50 48 38 42 49 54 61 58 54 47 40 28 27 33 37 46 53 69 85 98 90 97 92 84 79 74 72 68 59 57 55 51
64 62 67 68 66 67 65 59 52 50 44 38 36 38 40 45 43 34 42 48 53 59 55 48 42 32 21 24 32 38 45 52 71 90 93 93 97 94 86 78 76 77 70 59 61 55 52
64 61 64 64 62 63 66 59 52 50 43 38 34 36 39 43 35 33 41 45 48 50 50 48 39 25 21 24 32 40 45 56 80 94 90 96 98 92 83 81 80 77 70 61 61 56 53
58 60 61 59 58 59 55 59 51 49 41 37 30 33 37 41 28 33 39 44 42 43 44 44 33 15 11 20 32 40 50 66 88 92 93 100 97 89 87 85 82 76 70 65 61 54 53
53 57 59 57 57 56 53 58 51 46 38 34 26 29 33 37 25 31 34 37 36 37 41 41 29 11 5 18 32 46 62 82 91 89 96 97 95 92 88 82 74 71 68 62 58 56 53
50 53 56 56 58 54 55 55 50 43 35 29 24 27 29 28 21 28 31 32 29 31 37 36 30 17 12 21 36 52 71 88 88 89 96 97 91 85 83 79 73 71 65 60 60 58 54
48 50 53 57 58 56 58 54 50 44 35 25 22 24 26 23 18 23 26 27 21 25 33 33 32 25 25 23 31 50 74 83 82 86 93 93 91 83 79 78 76 71 68 62 59 59 55
43 48 55 60 61 61 61 55 51 42 34 23 21 22 24 19 15 19 21 21 14 20 29 30 28 26 26 23 36 61 71 71 72 79 85 87 82 78 78 74 71 68 64 61 60 57 55
44 48 57 62 64 65 62 56 50 40 33 23 21 20 20 17 13 15 17 15 7 15 23 27 25 27 32 34 44 52 58 59 63 70 78 80 77 76 76 74 72 70 67 63 57 58 58
43 49 61 66 68 65 63 56 46 42 33 23 21 18 15 15 15 13 12 11 2 10 17 23 25 23 25 32 36 40 48 53 60 69 77 80 77 74 71 71 66 62 64 66 65 65 59
44 53 61 67 69 67 63 53 46 43 33 24 22 18 13 17 19 13 11 14 6 6 10 17 22 24 25 25 28 35 43 48 56 67 76 79 77 73 70 71 70 67 68 68 67 63 64
46 56 63 69 69 65 62 53 47 43 33 26 22 19 13 20 21 18 14 13 6 10 10 13 18 22 23 24 26 31 38 43 49 60 70 75 76 74 73 72 70 69 66 63 60 65 62
50 59 64 69 69 66 61 54 49 41 33 28 24 20 12 25 23 17 17 11 3 14 16 16 16 18 21 22 26 31 36 42 47 53 64 74 77 76 73 71 69 67 65 62 62 61 60
55 62 65 70 68 65 61 54 48 42 36 30 25 22 14 25 30 24 17 15 7 8 18 19 16 19 20 18 20 24 30 36 43 47 55 69 75 75 73 71 68 65 65 67 68 67 69
57 64 66 71 71 66 63 60 53 44 37 33 26 24 21 21 32 28 20 19 11 8 13 20 18 20 20 21 19 21 24 29 36 40 45 53 70 75 74 73 69 72 71 70 70 71 72
60 65 67 72 73 67 64 60 53 46 40 35 29 25 23 14 33 32 26 24 19 13 11 17 21 20 22 22 21 22 23 26 28 32 38 44 50 61 71 72 75 78 77 77 76 77 77
64 70 71 74 75 73 67 62 55 48 43 37 31 28 28 24 32 35 33 28 23 21 15 12 24 24 21 22 25 23 23 24 24 27 30 36 42 45 49 57 65 74 77 79 79 80 80
66 72 73 73 78 76 69 63 56 51 44 38 32 29 28 23 18 41 36 35 28 26 21 16 13 13 22 24 23 24 24 24 23 22 23 28 32 34 38 40 45 49 52 56 59 62 65
68 73 74 74 81 77 71 64 57 52 45 39 34 30 27 23 18 42 42 39 34 32 28 25 20 16 12 12 17 21 25 26 24 25 27 28 28 28 30 30 32 34 35 36 38 41 43
68 73 75 78 83 79 73 66 59 53 46 40 35 31 26 24 19 38 48 44 40 38 35 30 27 25 22 19 17 16 14 18 23 26 29 29 31 30 31 33 34 34 36 37 39 41 41

GFSGBSN_250_spd_003.txt.gz
Wind_Speed
82 84 83 82 77 74 73 68 64 62 59 53 52 52 54 49 50 53 53 54 54 53 52 48 54 50 48 44 48 50 51 59 61 65 75 88 89 88 86 87 86 76 73 72 70 62 61
60 85 84 82 83 82 78 75 70 65 59 58 53 51 51 52 50 55 53 55 55 54 54 50 53 49 44 43 48 50 55 61 69 70 69 75 90 93 89 89 89 81 80 74 69 61 57
46 57 72 86 88 84 82 78 78 74 64 64 55 53 54 55 52 56 55 55 55 55 54 54 50 45 36 45 50 58 63 69 74 75 81 77 78 98 93 91 90 89 83 76 67 62 57
32 45 56 71 85 83 80 79 82 79 76 60 57 55 57 57 54 55 56 54 57 56 55 55 46 43 42 56 60 68 73 75 80 83 84 85 78 94 98 93 92 90 87 75 67 63 58
42 39 46 60 67 81 87 85 81 78 75 69 61 59 59 60 57 56 55 54 57 57 57 55 46 48 51 65 70 73 74 73 76 81 87 86 83 86 104 97 95 93 85 73 68 62 59
48 48 45 51 62 73 81 85 82 79 76 73 64 62 61 61 56 56 54 54 57 58 59 53 50 55 60 71 73 68 68 73 74 82 84 77 75 84 102 103 94 88 82 76 69 62 57
58 59 55 51 55 62 76 82 83 80 79 75 68 62 62 60 53 55 53 55 59 58 58 54 55 63 66 70 68 70 70 73 77 83 73 65 76 93 99 100 90 90 86 81 74 66 55
66 67 67 64 59 59 66 76 80 78 75 73 68 61 59 58 53 53 53 54 58 61 54 56 60 64 66 67 70 70 68 71 77 73 60 65 77 86 100 101 96 94 88 83 74 63 57
75 76 75 74 71 64 62 71 75 75 73 68 64 57 57 54 53 49 53 56 58 62 53 55 61 60 68 68 62 61 58 64 65 52 52 58 59 93 98 101 97 95 88 81 71 61 57
81 83 83 83 81 70 62 67 73 73 71 67 60 55 55 52 52 48 51 56 61 59 49 54 60 61 68 66 53 50 49 49 42 43 46 47 68 79 89 100 95 91 84 79 71 61 61
89 86 87 87 79 66 62 64 71 72 67 59 55 55 53 48 49 49 50 55 58 56 54 48 56 64 65 56 48 40 34 30 34 38 38 51 57 68 89 91 90 83 89 80 69 63 60
83 81 81 77 68 58 61 62 69 69 60 53 51 50 51 46 45 46 49 53 52 55 56 52 60 62 58 45 38 29 24 25 29 38 48 53 62 79 95 91 94 91 85 76 71 64 60
66 61 62 62 59 54 59 60 66 66 58 55 52 48 47 47 42 43 45 50 48 52 50 54 58 55 45 35 27 22 19 24 33 42 50 62 81 99 99 99 96 91 82 77 70 64 64
53 50 51 50 50 52 58 59 63 65 56 52 50 48 43 43 36 41 43 43 45 44 46 52 51 43 30 20 16 19 23 28 38 53 63 79 98 100 95 99 95 89 78 69 60 63 65
44 41 44 41 44 49 57 57 60 60 53 51 48 45 42 34 32 36 39 39 41 36 41 43 41 30 15 11 13 22 28 36 44 57 78 93 94 92 97 100 92 85 81 73 66 65 60
36 38 37 39 43 50 55 55 58 56 52 49 45 39 38 30 29 31 32 35 34 32 34 35 35 17 6 8 18 28 34 50 64 79 90 92 87 84 82 87 82 77 72 66 69 67 65
33 35 36 38 42 48 51 56 58 55 54 47 42 38 29 27 26 29 29 29 25 25 27 30 32 22 13 17 24 32 47 64 78 87 91 88 89 99 99 87 79 74 68 69 72 67 65
30 33 36 36 42 46 53 58 59 57 51 47 42 35 28 23 22 25 26 23 17 17 19 24 30 29 18 23 36 48 61 72 82 88 88 92 92 87 83 80 78 77 76 74 70 66 65
31 33 34 36 43 49 58 61 61 56 51 49 42 33 28 20 22 23 24 19 10 9 9 16 25 25 22 23 36 56 67 75 78 80 79 83 88 88 88 81 75 66 64 68 71 66 64
31 34 36 41 46 54 62 66 64 57 53 48 40 32 28 20 20 21 24 15 6 2 2 10 18 21 24 25 35 50 62 64 62 64 68 75 80 82 77 74 74 73 72 71 68 64 62
33 35 36 41 52 62 69 70 64 58 56 47 40 33 25 22 20 23 23 13 1 6 6 9 13 16 19 29 33 37 41 45 49 54 60 68 72 71 69 70 72 71 70 67 62 66 62
34 36 40 47 55 66 71 68 65 60 53 47 41 34 25 23 21 26 22 16 4 10 10 10 14 17 18 20 30 36 37 41 47 54 61 68 72 75 73 71 70 69 68 62 60 58 59
37 38 42 51 60 71 74 68 64 60 55 50 42 35 25 22 22 28 24 15 7 14 14 13 13 16 22 23 25 27 36 40 43 50 59 65 71 73 71 69 67 64 63 64 65 64 64
39 41 46 54 65 73 74 70 65 60 55 49 42 38 28 23 22 30 25 16 13 13 16 16 16 16 19 21 22 28 31 35 40 45 54 63 70 70 70 69 65 64 66 66 65 65 64
42 45 49 58 69 75 75 71 68 62 57 51 45 39 31 26 22 32 28 21 15 11 17 18 19 20 18 20 19 21 26 30 35 40 45 53 63 69 72 69 68 69 66 65 66 67 67
44 48 51 60 69 73 73 71 69 62 58 52 47 40 33 29 20 29 33 26 20 15 17 20 23 22 21 21 22 22 25 30 31 37 41 46 54 63 69 70 71 71 69 68 67 68 69
45 49 52 62 68 74 73 73 69 65 60 53 48 41 35 32 25 27 34 30 24 21 19 19 23 24 23 23 20 20 21 23 25 29 35 39 42 50 59 65 69 70 70 70 70 73 71
47 51 55 63 70 76 74 75 69 65 59 53 48 42 37 32 28 21 37 35 30 27 23 17 20 25 25 22 23 24 22 22 21 22 23 27 31 36 41 49 57 64 67 69 71 73 73
49 53 57 65 71 76 78 77 72 68 60 54 50 45 40 35 30 29 31 41 35 31 30 24 20 22 25 27 25 23 22 23 24 23 24 24 28 29 32 33 37 42 47 51 55 55 55

GFSGBSN_250_spd_006.txt.gz
Wind_Speed
32 31 36 51 62 76 79 81 76 80 71 71 67 68 64 59 59 59 58 58 55 56 57 51 52 54 54 55 54 54 54 58 60 58 59 63 73 78 80 78 79 83 84 83 81 74 66
29 28 30 40 53 65 75 71 74 76 83 80 76 76 72 66 61 58 59 60 57 56 59 53 53 55 55 55 60 58 54 55 59 57 55 55 59 71 80 84 82 81 85 87 86 77 69
33 31 30 28 43 52 71 80 82 84 81 81 83 85 84 75 71 62 62 62 60 60 61 60 56 57 55 59 59 61 49 55 55 53 49 54 58 62 72 83 86 83 84 90 87 78 70
40 38 35 33 30 39 54 69 84 83 82 81 72 71 81 77 75 71 66 61 62 63 65 63 60 58 56 63 61 57 48 49 53 56 59 63 66 68 70 77 85 90 89 87 85 81 73
44 44 42 41 39 38 37 49 67 79 83 84 86 86 80 76 76 72 69 66 64 68 66 63 62 58 58 65 61 53 51 56 60 62 66 70 72 73 75 74 82 91 89 83 88 84 78
50 48 46 47 47 45 44 44 43 62 73 85 88 87 80 77 75 69 66 66 65 68 66 64 61 58 61 64 60 55 58 62 64 69 70 71 72 73 74 77 72 78 90 88 87 84 81
51 51 51 51 52 52 51 51 51 51 50 63 79 83 86 83 80 73 68 68 69 63 65 65 61 62 62 64 61 63 65 67 67 68 73 79 80 73 74 77 73 80 90 95 88 87 83
57 56 56 56 58 59 58 58 58 59 57 54 63 73 80 79 79 76 76 68 68 62 61 61 64 63 68 65 64 69 68 65 70 73 79 81 77 76 83 78 72 71 89 95 90 87 86
57 61 65 65 65 66 66 65 64 64 63 61 60 63 73 77 75 71 67 65 67 62 60 56 63 67 73 63 67 72 69 75 78 77 80 83 73 79 74 73 65 62 84 90 87 87 82
65 71 73 74 75 75 73 73 72 69 66 65 62 60 67 71 71 65 64 62 62 62 59 56 64 70 69 66 65 73 76 79 75 75 82 73 73 71 67 59 56 61 75 86 83 82 79
80 82 85 83 81 85 85 80 76 74 70 68 63 60 65 66 64 57 60 57 57 64 59 58 64 67 63 65 70 76 77 71 66 70 66 63 64 62 58 52 58 64 83 87 91 88 81
82 81 86 88 89 89 86 84 80 78 74 71 62 60 62 63 55 53 56 52 54 61 59 61 65 57 58 68 73 75 71 62 54 52 48 50 50 48 50 58 66 90 92 96 85 83 80
67 64 69 70 70 72 70 76 79 75 70 68 59 59 59 54 48 51 48 45 54 59 57 61 58 55 62 68 70 67 58 48 38 36 39 36 38 42 46 61 81 86 92 96 88 82 84
59 56 54 57 58 60 60 66 66 64 60 62 56 57 53 45 48 45 40 46 53 51 56 55 53 57 63 63 58 52 39 31 26 25 26 30 33 40 48 59 70 81 88 86 88 87 75
50 46 46 48 50 48 55 56 57 55 55 58 54 53 49 43 44 39 37 47 45 47 49 47 50 55 57 51 42 30 23 19 16 22 27 31 41 52 63 67 81 89 85 80 80 78 75
41 40 41 42 43 43 48 50 51 52 56 54 51 49 49 42 40 35 39 42 40 43 40 41 46 51 43 35 24 18 17 16 20 26 34 50 59 67 73 84 91 89 85 82 84 81 71
37 36 36 36 38 41 43 45 47 54 55 51 48 49 48 40 35 34 37 37 35 33 32 34 41 45 30 15 8 10 19 28 30 36 52 63 69 77 79 84 89 90 91 88 73 75 72
34 35 34 34 37 39 40 44 51 53 51 47 48 50 45 37 34 33 33 31 29 24 24 26 35 36 23 10 2 11 30 41 52 62 65 71 83 85 85 80 82 86 84 82 79 72 70
33 32 32 32 37 39 40 43 47 48 46 49 53 50 42 36 34 30 30 26 21 17 15 19 26 31 24 16 5 25 41 56 61 69 76 76 82 84 80 87 85 83 84 79 76 72 70
29 31 29 32 37 39 40 44 46 48 50 53 55 48 41 37 31 31 26 22 14 12 8 11 18 23 21 10 13 36 52 65 68 77 79 76 81 82 83 84 84 85 84 79 72 69 66
27 29 31 32 37 40 42 47 52 54 56 58 54 49 42 37 31 29 23 18 11 9 5 2 8 14 14 7 14 38 54 65 68 74 79 75 79 85 83 80 76 76 76 68 65 67 64
26 28 34 34 38 41 45 49 55 57 60 59 56 49 44 35 33 27 21 17 12 9 8 5 5 5 7 8 10 17 56 63 70 72 77 77 81 79 76 76 78 74 65 59 62 59 60
22 28 34 36 39 45 49 50 55 59 60 60 56 50 44 37 31 25 21 18 11 14 12 10 9 8 8 8 16 28 35 43 55 59 61 63 63 61 70 75 74 67 62 62 60 60 62
21 30 36 38 43 47 49 56 62 68 68 65 57 51 43 37 33 24 24 21 14 14 14 13 14 13 14 15 15 18 26 35 41 45 46 45 43 49 60 62 60 56 57 59 57 57 58
22 29 36 40 44 46 54 58 63 65 66 63 57 52 43 39 31 24 26 23 18 13 16 16 16 15 14 18 20 23 27 29 32 34 37 40 44 52 56 59 58 57 56 56 56 59 58
23 28 37 41 45 46 52 64 69 72 69 62 57 51 44 38 31 24 31 24 17 16 17 19 18 17 17 18 21 25 26 29 30 33 36 38 40 48 55 59 62 60 58 58 58 59 60
22 29 39 44 48 50 57 67 70 71 67 63 58 51 46 38 32 26 34 29 22 20 17 18 20 20 19 19 17 20 22 26 31 32 35 38 42 46 53 59 62 64 61 59 61 62 61
22 29 41 45 49 54 60 63 70 71 68 63 59 52 49 39 36 26 37 36 28 25 20 18 22 22 21 20 20 18 20 24 24 26 32 33 35 40 47 55 61 62 63 62 63 62 62
22 27 42 47 50 56 64 67 73 73 69 66 60 54 51 42 37 30 31 34 31 28 24 20 20 24 24 21 22 21 21 20 22 23 25 28 31 34 38 45 50 57 63 65 66 66 66

GFSGBSN_250_spd_009.txt.gz
Wind_Speed
46 47 46 43 34 29 34 40 56 62 69 76 77 73 71 69 66 63 59 59 59 59 57 57 54 59 59 54 53 50 52 55 55 52 54 58 59 61 63 67 71 71 72 72 81 81 79
46 45 46 41 36 30 28 35 46 59 67 68 70 76 75 71 68 68 63 67 66 63 65 60 54 55 59 60 56 52 54 57 58 56 55 58 58 59 60 62 69 75 74 71 74 81 82
47 45 47 45 40 36 30 29 40 53 62 71 72 67 69 71 71 68 69 68 70 72 74 67 63 58 62 62 61 58 57 59 60 60 60 60 58 57 57 59 62 64 75 74 72 76 81
46 48 47 49 46 42 38 34 31 43 55 65 72 74 72 72 67 69 75 72 74 76 63 61 57 56 64 65 64 63 57 64 62 62 62 63 57 56 57 57 59 60 66 74 76 78 79
46 46 49 51 51 50 46 43 39 36 42 52 63 77 75 75 76 79 77 75 72 70 69 68 61 57 64 68 67 63 61 65 63 64 65 60 52 55 54 53 53 56 60 67 71 81 82
44 44 47 52 54 55 53 51 48 44 43 43 49 61 72 79 81 80 77 76 74 74 74 74 62 61 65 67 69 66 65 67 66 65 67 57 50 50 55 57 56 63 65 66 64 75 87
43 43 45 48 51 55 55 57 55 53 51 48 47 46 54 65 73 79 80 82 79 76 73 73 68 68 66 71 69 68 66 67 70 70 67 61 52 53 62 65 62 61 64 65 64 74 90
41 44 47 50 47 51 58 59 60 59 58 56 53 52 52 49 50 60 75 83 85 85 75 75 73 68 72 70 69 72 69 70 72 75 70 61 53 68 71 70 67 67 66 61 64 71 89
54 55 54 55 55 56 57 61 63 65 64 63 60 57 55 54 55 57 54 57 69 79 72 63 71 68 70 71 69 76 72 75 76 77 72 64 64 74 74 75 74 70 65 65 62 71 78
61 63 69 71 68 64 68 63 66 66 66 67 65 64 62 58 56 57 57 54 60 64 64 59 65 68 66 68 69 74 76 79 80 74 74 68 78 81 83 79 79 74 74 75 68 73 69
71 74 76 78 79 82 81 75 76 73 74 70 68 67 64 61 61 58 56 54 58 55 49 54 57 59 65 71 70 77 79 84 78 78 81 77 81 87 83 80 86 77 79 74 72 67 68
78 77 74 70 71 76 83 84 85 75 82 77 73 73 67 66 64 59 57 53 52 48 46 45 50 56 62 70 71 75 82 80 81 83 84 81 81 81 78 80 77 72 72 68 66 62 72
68 62 61 58 54 61 64 71 77 79 82 80 80 78 72 68 67 61 56 50 44 45 43 39 49 56 61 67 71 78 75 77 82 84 76 64 61 61 63 64 59 55 60 58 61 63 67
62 57 51 49 48 49 53 58 63 72 75 84 82 81 75 71 68 59 51 41 39 40 36 41 47 54 61 67 71 70 75 77 72 60 50 45 46 44 46 47 45 51 52 52 52 62 62
57 50 47 45 43 43 45 52 56 59 63 73 75 72 69 67 61 52 42 35 39 31 34 41 48 55 62 67 60 69 64 48 40 34 31 31 32 32 33 36 39 49 49 51 61 73 78
53 49 46 43 42 43 41 44 47 49 51 57 63 62 57 58 51 43 33 36 30 27 35 40 48 54 59 56 58 51 39 30 24 20 18 17 18 23 26 30 41 59 72 73 74 76 76
51 47 42 36 36 37 38 38 41 43 46 47 51 49 48 49 41 34 35 31 27 29 30 38 46 50 49 52 41 30 20 14 12 6 6 10 14 22 30 35 47 58 75 80 77 69 74
52 44 36 31 31 29 32 36 36 39 41 48 45 42 46 41 37 37 36 27 26 25 29 36 37 39 44 38 15 14 11 4 12 18 26 26 24 34 40 52 64 84 78 75 68 63 70
51 42 33 29 25 25 30 34 35 35 40 43 44 45 42 42 41 40 31 27 24 23 27 29 29 29 36 26 27 13 7 23 43 54 61 60 62 62 64 74 81 88 81 69 38 35 61
51 40 31 28 22 26 30 34 39 43 44 44 42 42 43 48 45 37 30 27 22 21 21 19 20 23 16 30 9 8 19 51 53 64 63 63 67 67 63 71 79 75 69 56 43 36 64
49 37 28 22 23 27 30 35 39 38 40 39 39 45 53 50 46 36 32 26 20 18 18 13 11 16 7 15 8 5 41 54 63 68 61 58 59 68 64 65 64 63 47 54 43 59 70
48 35 24 19 25 27 31 35 38 36 34 40 49 54 56 51 44 38 32 24 19 18 13 8 4 12 8 8 3 2 37 56 61 64 65 57 51 69 70 68 70 64 69 62 76 69 71
44 32 21 19 26 29 31 35 37 38 45 52 58 60 56 50 44 37 30 22 20 18 12 9 4 10 6 7 7 11 29 48 56 63 67 65 63 73 69 71 75 69 74 76 67 63 66
40 29 22 20 26 31 33 37 36 43 54 59 65 63 57 49 42 35 29 23 22 18 16 14 10 7 11 6 12 16 19 34 51 54 56 61 63 70 73 73 74 74 69 60 55 57 56
37 26 21 19 26 32 34 34 37 53 59 64 62 62 55 48 41 34 29 25 23 20 18 18 16 13 14 13 15 23 25 27 33 47 54 47 57 62 60 64 66 67 56 47 55 49 49
35 27 19 19 28 31 29 32 52 58 61 65 65 60 55 48 41 35 28 28 24 20 17 18 19 17 16 20 21 23 30 28 29 33 40 46 43 58 52 52 53 50 48 51 50 48 49
31 23 18 21 27 28 30 43 53 59 67 68 67 60 54 46 41 35 31 32 25 24 21 19 21 20 18 20 21 24 27 27 27 27 26 29 31 34 39 44 48 46 49 51 51 49 49
31 21 16 21 26 29 34 44 55 62 68 71 66 60 54 48 39 35 35 34 30 27 23 20 20 21 19 19 20 22 24 26 29 30 31 32 33 33 33 36 41 46 51 49 48 47 49
29 19 15 21 28 32 41 53 62 67 71 70 65 60 53 49 40 36 39 39 33 28 24 21 17 22 21 20 19 20 21 24 26 29 30 30 29 29 33 33 40 47 52 53 52 50 49

GFSGBSN_250_spd_012.txt.gz
Wind_Speed
54 55 49 52 49 49 51 52 50 47 42 47 55 68 76 76 72 73 76 73 71 66 62 57 57 53 53 52 52 53 57 52 48 48 51 50 50 52 51 47 48 48 56 59 66 65 70
53 51 48 49 46 46 49 50 46 43 38 42 50 60 74 76 73 73 72 72 71 68 64 61 60 59 62 59 56 57 59 60 55 49 50 54 53 50 50 50 50 52 55 57 64 71 70
50 50 48 48 43 44 47 50 48 43 37 36 44 50 62 71 69 72 71 69 70 69 68 63 59 61 64 65 63 59 62 66 63 58 55 52 54 54 52 53 53 52 53 58 61 69 75
46 46 45 45 44 44 46 49 50 47 40 36 40 49 56 63 65 63 68 70 75 70 67 66 62 61 68 64 66 57 58 66 63 61 61 57 54 54 54 55 54 55 55 56 59 63 71
41 40 41 43 42 44 46 48 50 51 48 41 39 44 53 60 67 66 63 61 62 65 68 67 67 70 66 70 65 62 61 65 61 62 62 60 56 55 56 55 55 54 51 56 58 61 67
40 38 38 39 40 42 42 46 52 55 53 51 44 42 47 56 64 67 71 73 70 70 69 66 67 68 69 70 69 68 66 68 63 63 65 64 59 56 56 58 55 53 52 56 61 65 68
41 38 37 38 39 40 42 46 50 55 60 58 55 49 47 48 54 63 73 76 75 73 72 71 67 69 68 71 73 74 73 73 70 67 70 68 61 57 63 65 62 59 51 49 55 59 64
47 45 45 46 44 46 44 47 49 53 57 61 61 59 54 51 48 49 56 64 77 77 74 76 79 80 77 76 76 81 78 78 76 74 72 69 64 66 66 66 64 63 55 51 58 64 64
56 57 55 56 55 52 50 52 52 52 54 58 63 64 63 59 53 53 50 49 50 57 66 72 76 79 86 85 84 86 85 81 84 78 79 76 70 70 70 71 70 68 60 61 62 70 67
60 60 60 65 67 66 66 61 61 56 58 60 57 63 65 64 60 58 59 56 51 52 49 50 55 63 73 82 84 89 87 85 76 73 76 72 74 76 76 74 76 70 69 69 69 70 67
60 62 67 69 71 71 72 72 73 69 67 65 61 61 63 66 65 64 61 58 55 55 49 49 58 65 68 69 72 79 80 77 74 74 75 73 76 79 77 82 83 74 77 75 75 73 77
65 68 69 62 58 59 59 62 66 73 76 73 70 65 65 63 67 64 62 59 58 57 50 52 58 61 59 60 63 67 71 72 72 74 74 77 79 84 86 89 85 84 83 81 79 80 72
71 70 59 54 50 49 50 51 57 65 71 76 74 73 72 67 70 65 61 60 57 52 53 54 54 55 54 56 57 60 66 70 73 77 78 81 85 85 86 88 87 89 90 89 86 79 55
75 62 54 48 44 42 41 42 47 55 60 69 79 75 74 74 71 69 64 62 54 56 57 51 53 52 50 52 52 61 63 69 73 78 78 80 81 81 82 80 82 85 85 80 71 60 64
69 58 49 43 40 37 37 39 40 46 53 59 62 71 82 76 74 68 62 57 58 59 55 51 49 43 45 49 54 58 62 66 69 73 73 66 59 56 55 53 54 58 54 66 65 62 61
63 54 46 42 39 35 32 35 36 43 51 51 49 66 78 77 76 68 61 58 58 56 45 46 40 36 43 47 52 55 58 63 64 52 44 39 36 34 34 35 35 36 44 41 39 46 45
62 53 47 42 35 29 26 27 31 35 41 43 49 55 65 70 71 64 58 59 53 43 40 36 30 34 39 45 46 51 55 47 38 31 28 25 21 16 14 18 26 31 30 34 47 54 51
61 54 48 39 28 20 19 20 23 28 30 36 44 52 44 42 51 52 55 50 40 35 35 25 27 31 37 39 41 33 24 20 18 16 8 1 3 7 12 18 26 34 46 59 56 53 54
60 55 47 36 26 13 14 17 21 25 29 36 42 45 41 39 41 46 49 39 32 37 26 22 23 28 30 28 16 20 15 1 6 21 20 30 33 30 32 35 35 45 56 60 66 61 61
61 55 45 33 25 12 12 15 20 27 35 40 44 39 33 36 44 46 38 36 40 30 22 17 19 24 22 5 12 15 20 42 58 56 57 48 58 55 57 63 51 53 59 57 58 48 57
59 54 42 33 23 13 10 15 19 26 31 32 32 39 40 44 46 42 43 45 35 26 18 13 16 13 8 2 5 12 40 57 59 58 58 62 57 62 53 51 55 43 38 49 49 35 54
58 53 40 30 22 12 10 12 18 22 27 28 35 42 48 45 44 51 50 40 29 21 18 14 10 5 12 12 2 21 46 52 53 52 55 63 65 59 53 56 49 36 44 34 31 33 54
54 50 39 28 19 13 10 12 16 20 26 33 40 47 48 51 56 54 45 36 31 27 21 15 11 4 9 10 12 11 36 47 47 41 49 53 68 57 51 46 44 45 34 27 27 23 50
52 47 36 26 17 13 11 14 17 23 34 41 46 49 52 59 56 50 43 38 32 27 20 16 13 10 13 6 8 17 21 40 43 40 53 52 59 57 49 47 53 48 48 43 39 43 55
53 44 34 23 15 13 15 16 20 29 35 46 51 56 63 60 54 48 42 35 32 26 20 16 14 16 14 16 16 17 26 34 39 41 55 52 54 57 54 52 52 54 53 51 47 46 51
52 42 33 21 12 12 15 18 24 30 36 45 57 66 65 58 53 47 40 39 34 28 22 18 17 16 20 18 19 18 24 25 29 37 49 48 51 55 52 57 54 55 54 53 45 39 42
48 39 31 21 12 10 18 22 30 33 41 54 64 68 64 59 52 46 40 40 35 29 26 22 20 18 18 20 21 24 26 31 29 25 40 41 40 53 51 45 46 45 45 46 40 28 32
46 36 26 19 12 12 21 26 31 37 47 58 69 68 65 59 52 46 42 43 35 31 28 24 21 19 20 21 21 25 24 26 27 23 18 31 36 36 43 39 41 37 34 35 30 30 35
44 35 23 17 13 14 23 28 34 41 52 67 71 68 64 58 52 46 44 44 38 33 28 26 24 22 21 19 21 21 19 19 20 22 23 28 28 32 28 35 35 33 32 31 31 34 39

GFSGBSN_250_spd_015.txt.gz
Wind_Speed
49 49 48 49 50 51 54 54 54 53 52 54 57 61 68 65 64 67 71 75 75 74 75 75 76 74 72 70 64 59 58 57 56 49 51 50 45 42 43 45 48 45 51 51 52 55 59
47 46 48 49 49 50 50 50 51 50 49 51 54 55 56 55 57 65 70 72 74 72 73 74 74 74 70 69 62 61 61 58 56 54 55 51 53 48 47 45 49 49 49 50 50 53 56
47 43 44 43 45 46 45 47 48 48 46 49 52 50 49 48 54 64 70 72 73 69 71 74 73 74 71 64 65 65 63 62 60 59 57 58 59 57 51 52 48 50 52 52 52 55 55
47 42 37 38 40 42 42 42 44 45 47 47 50 51 47 43 51 63 71 73 72 73 69 71 74 72 72 69 68 67 64 65 65 62 62 63 62 58 58 57 55 50 53 55 55 58 59
42 38 35 33 34 38 39 40 41 43 46 49 50 50 48 42 46 58 68 75 73 71 70 69 69 71 71 70 70 70 66 64 63 66 65 65 67 63 57 56 57 53 53 57 58 62 62
47 36 33 34 34 33 34 35 39 41 45 48 51 52 49 46 41 52 62 68 75 73 71 69 70 72 70 70 70 70 69 70 69 65 69 67 66 65 58 59 58 60 57 56 57 58 61
54 47 41 35 36 37 37 36 37 41 44 47 51 55 53 49 47 43 56 62 69 74 74 69 67 69 66 68 70 67 69 75 75 75 74 73 67 67 68 70 66 62 59 56 57 58 61
54 47 46 47 47 46 46 45 46 45 45 48 50 52 58 56 53 48 44 59 66 68 72 73 73 71 71 71 74 75 76 76 75 76 77 75 74 74 73 73 71 68 65 62 61 63 61
54 49 47 49 52 56 61 61 56 54 53 50 52 51 57 62 59 51 51 50 54 64 71 73 72 74 77 76 76 78 79 78 79 80 81 86 80 81 78 79 80 76 73 72 67 69 64
59 53 51 55 60 66 67 67 70 65 64 58 55 55 55 58 61 58 58 55 51 51 53 63 65 68 73 73 75 78 82 83 85 89 91 88 91 93 90 86 84 81 80 79 75 72 66
68 63 61 66 71 67 60 61 63 68 69 68 66 60 57 54 56 67 69 60 54 54 47 46 47 50 54 58 60 67 73 74 74 78 82 82 84 91 87 90 89 79 81 79 78 75 70
74 74 72 72 61 55 52 51 51 53 58 67 74 67 59 53 54 63 64 61 62 59 47 48 52 53 53 53 55 60 67 70 75 80 81 80 77 77 81 83 83 81 81 81 82 81 67
80 77 79 65 56 49 45 44 44 44 50 56 68 64 67 58 62 64 55 60 60 55 53 53 54 54 54 56 59 62 65 70 76 76 73 71 70 70 74 80 82 82 84 86 87 83 65
87 84 75 61 50 45 42 41 41 41 44 47 56 62 69 71 73 61 57 55 52 54 57 57 54 52 55 57 59 62 66 71 73 70 67 66 66 71 73 76 79 81 86 87 89 83 80
89 86 72 58 49 46 41 38 38 38 42 45 49 56 75 75 73 64 60 55 53 56 56 54 48 50 55 57 60 64 67 67 64 62 64 65 67 72 77 80 85 88 90 94 89 83 86
89 85 69 57 51 46 40 34 32 31 35 42 47 53 60 63 70 70 66 59 59 59 55 50 51 52 56 57 60 61 57 58 58 61 65 70 70 72 66 60 62 68 71 69 67 66 65
89 83 68 58 52 45 37 30 25 24 30 41 42 46 56 53 67 73 65 66 63 60 51 49 50 50 51 54 51 49 54 53 54 57 52 51 46 43 41 42 43 47 48 46 46 45 48
87 82 67 59 51 41 31 22 17 20 26 33 34 43 44 41 47 61 73 72 64 56 49 48 48 48 49 41 40 42 45 41 36 34 35 33 33 30 29 28 30 28 30 31 34 38 44
86 80 66 57 48 36 25 15 13 20 21 28 33 39 46 44 50 60 74 70 63 56 50 46 45 44 35 28 33 37 20 26 21 18 15 15 8 10 8 5 3 1 12 19 24 36 45
85 76 64 55 45 30 18 8 7 18 25 29 33 36 33 28 41 54 60 60 56 51 46 41 39 32 20 22 7 7 12 9 15 24 29 27 32 29 31 34 26 26 11 17 28 38 45
84 72 62 53 41 27 11 5 8 16 22 25 27 30 30 32 41 42 44 50 45 42 38 37 32 21 12 17 18 14 21 28 41 48 49 44 40 44 43 40 42 42 37 28 34 42 49
84 70 61 52 40 22 11 1 5 14 19 25 30 32 38 42 44 43 41 42 41 41 41 34 24 15 15 16 22 13 12 41 49 50 48 44 43 39 45 38 35 36 49 44 42 50 52
82 70 59 51 40 22 9 3 1 7 14 22 31 38 39 37 37 40 43 45 48 47 39 29 20 14 19 17 15 13 19 46 48 46 45 40 41 45 40 29 29 30 38 43 47 29 31
79 68 60 49 37 24 10 2 4 10 17 24 28 31 36 40 43 46 52 54 49 42 33 25 19 16 20 19 16 16 27 31 50 48 46 39 41 39 37 34 31 29 24 33 36 22 20
76 63 59 48 34 21 7 3 6 15 23 24 24 29 37 46 50 54 57 51 45 37 30 23 20 20 21 22 9 15 21 39 43 47 46 44 41 41 40 36 35 31 29 31 22 34 31
73 61 56 47 33 20 6 6 10 17 22 26 29 34 43 50 59 59 54 47 41 35 30 24 22 22 21 21 13 14 19 21 42 51 45 42 38 40 39 37 37 29 38 31 28 23 38
69 59 52 44 31 20 8 9 12 15 20 28 34 44 49 59 61 56 50 43 39 35 29 29 22 22 20 17 17 19 17 18 29 28 44 42 38 38 37 38 38 34 32 31 25 22 20
65 56 49 41 27 19 11 12 15 18 25 32 42 50 59 64 61 54 48 45 40 34 31 26 21 20 21 21 20 21 24 21 20 26 34 42 36 31 34 32 32 31 32 31 22 6 12
61 53 45 36 26 17 13 16 16 19 27 36 45 54 62 65 60 54 49 46 41 33 27 23 22 22 22 21 20 19 19 19 24 24 31 38 35 33 36 34 29 28 22 25 22 12 15

GFSGBSN_250_spd_018.txt.gz
Wind_Speed
49 47 45 44 45 46 49 51 53 54 58 61 61 61 62 61 65 68 70 75 79 77 76 76 77 79 81 83 83 77 77 73 67 64 59 56 52 43 43 47 45 45 49 50 51 56 56
54 51 46 46 46 45 47 49 48 49 50 53 54 55 57 58 59 61 64 68 73 76 77 77 81 85 84 82 76 77 77 76 71 66 64 61 58 51 51 50 47 44 46 49 53 53 55
57 55 52 46 42 43 42 40 43 43 42 46 49 50 53 54 55 57 60 63 68 74 79 83 84 82 78 74 76 76 75 75 75 70 68 62 59 57 55 56 53 51 49 50 52 57 58
65 60 52 45 43 39 39 38 37 39 37 40 43 45 50 52 55 56 57 60 63 69 76 76 76 75 74 74 75 75 74 74 74 70 66 61 60 62 59 61 58 56 57 58 59 58 58
71 67 58 42 40 40 37 35 37 36 36 36 39 42 48 53 56 56 57 54 54 57 64 69 73 73 74 73 73 73 74 73 73 72 68 62 65 64 63 65 64 65 60 58 59 62 61
74 68 60 53 44 40 41 41 38 38 38 38 37 40 46 53 55 54 55 51 47 51 60 70 74 75 73 72 73 73 73 73 72 71 71 69 67 66 67 71 72 71 65 60 62 63 60
77 69 59 51 48 48 43 48 46 44 43 41 39 40 42 51 53 54 51 48 43 47 63 74 74 74 72 71 73 72 72 73 74 71 71 71 71 69 72 75 74 73 71 67 65 65 65
80 73 62 51 51 61 62 58 56 57 53 50 47 46 44 46 54 54 50 46 45 45 61 71 75 75 75 73 69 68 70 71 71 72 72 72 73 76 78 78 77 80 79 73 69 72 71
89 80 73 63 61 66 71 73 73 70 68 58 55 52 49 47 50 54 53 50 45 42 50 67 75 75 76 72 71 71 71 70 72 75 82 82 81 81 84 85 85 83 81 84 82 79 74
95 88 82 73 73 76 72 65 62 58 65 73 65 61 58 55 53 52 56 54 51 47 42 56 65 73 75 76 72 77 76 77 79 82 83 81 81 83 83 83 84 84 84 85 85 89 80
100 93 89 82 80 75 66 57 51 48 46 53 67 66 66 63 53 49 60 63 57 50 43 42 47 64 67 69 72 75 74 74 74 77 78 79 81 83 79 84 84 83 89 92 95 95 90
103 98 93 86 83 72 60 50 44 41 37 41 48 58 68 64 58 55 62 62 57 54 45 41 41 48 54 59 63 68 72 71 71 67 65 67 65 66 73 81 81 84 88 89 86 87 77
107 101 96 90 84 70 57 49 42 36 35 37 40 48 57 71 60 61 60 55 57 53 50 44 44 45 44 45 50 54 55 54 56 57 59 61 67 71 76 81 86 88 85 79 74 75 59
110 103 99 92 84 69 57 49 40 32 31 34 35 42 49 64 69 68 60 57 49 51 55 51 48 46 45 45 48 51 52 54 56 60 64 67 70 79 81 84 82 72 73 70 70 66 61
112 106 100 94 82 69 58 49 38 28 24 29 33 36 42 55 69 68 63 53 43 45 51 55 52 49 47 49 49 50 52 55 58 63 68 72 77 77 73 71 71 70 68 74 69 67 68
113 107 100 93 82 68 58 48 37 24 18 24 29 33 37 54 67 70 63 54 50 48 48 46 48 48 50 50 50 50 52 56 60 65 71 75 67 68 70 72 74 73 73 75 71 71 68
114 106 100 93 81 68 57 46 35 20 16 20 27 34 37 45 58 64 63 58 54 50 46 40 41 45 47 46 45 47 51 54 57 65 62 63 63 58 57 51 50 52 55 55 57 59 54
115 105 99 93 79 67 54 43 29 16 13 19 24 33 41 49 53 53 65 62 58 53 46 42 40 41 41 39 42 46 48 52 54 54 48 39 39 37 39 39 38 40 42 45 47 50 44
114 106 97 91 76 64 51 38 23 14 6 17 24 33 39 42 39 43 66 67 59 55 48 44 41 40 39 39 41 42 42 43 40 16 16 6 10 7 9 14 23 25 28 29 27 26 31
114 104 95 89 73 61 48 33 16 7 2 14 24 28 29 28 33 40 59 67 61 56 51 47 42 40 39 37 38 36 34 22 17 15 10 11 18 16 17 25 23 16 10 13 9 9 15
112 104 95 87 71 58 45 30 16 4 3 13 20 24 25 25 28 33 45 61 62 58 55 50 45 41 38 36 34 30 19 25 19 25 17 17 21 25 25 27 28 24 23 21 15 9 6
110 104 93 85 69 55 41 27 15 4 4 13 18 23 26 26 31 37 46 55 62 60 56 52 47 42 34 34 28 16 20 26 22 22 25 21 19 22 27 26 25 21 23 18 17 16 21
106 100 90 83 66 53 37 22 11 4 2 10 17 23 25 29 32 38 44 48 52 57 55 51 46 38 34 31 23 21 20 21 27 26 17 16 15 23 25 24 27 23 22 19 18 33 30
102 98 88 81 62 51 36 21 8 3 7 11 18 22 25 30 33 33 37 42 45 47 52 45 38 34 33 28 23 22 16 23 30 26 25 25 25 21 19 22 21 27 26 21 19 26 30
98 95 85 79 61 47 35 23 9 5 9 14 15 22 28 28 27 29 34 42 44 45 46 40 36 35 29 29 26 29 21 21 30 25 32 22 26 28 25 12 21 18 12 17 13 16 27
93 90 81 74 59 44 32 20 11 7 9 12 16 16 18 29 35 36 40 45 47 47 42 41 39 31 31 26 21 29 28 26 29 31 33 26 22 23 23 21 23 17 10 10 26 10 19
89 85 77 71 57 45 32 19 11 7 8 15 20 26 29 32 37 41 44 48 48 45 43 40 34 31 32 27 24 23 31 24 19 32 34 28 25 22 24 19 24 15 14 17 21 13 6
85 80 73 67 54 44 30 20 12 9 10 13 21 27 32 37 43 46 51 52 48 45 40 37 29 31 28 26 29 24 25 31 20 21 36 29 25 21 23 23 21 19 12 12 12 12 11
81 77 69 62 51 42 29 21 14 12 11 15 23 32 41 44 48 52 53 51 47 42 37 35 28 27 27 27 27 24 27 20 18 31 20 22 31 28 20 21 18 19 18 17 10 8 11

GFSGBSN_250_spd_021.txt.gz
Wind_Speed
70 60 54 44 40 37 36 38 40 47 49 54 59 65 70 76 77 79 77 76 74 74 78 82 87 84 79 75 74 72 72 74 75 73 70 65 64 59 56 50 45 43 50 48 49 53 57
78 68 59 49 45 41 35 35 39 42 45 49 53 58 64 69 72 74 75 72 71 70 73 77 78 86 82 80 74 74 76 75 72 70 69 66 63 64 61 58 48 47 46 48 48 49 53
80 71 65 59 52 45 38 37 37 40 42 44 46 50 55 59 63 66 68 69 68 66 68 70 74 80 84 79 78 76 74 73 71 71 71 71 71 69 67 64 57 53 53 54 59 54 47
86 78 69 60 58 49 41 39 38 40 44 45 44 45 48 51 54 55 59 61 62 62 65 67 70 78 81 79 78 76 76 75 76 76 76 76 74 72 70 67 62 60 57 60 60 60 55
92 85 76 65 60 52 44 41 41 42 45 48 48 47 45 45 49 50 54 56 58 59 58 60 63 72 77 81 79 77 77 77 78 79 77 75 75 72 70 67 65 66 63 60 61 63 61
96 89 82 73 68 60 50 44 44 49 51 51 52 52 49 46 46 47 50 52 55 55 53 54 59 63 68 77 78 78 79 81 83 79 76 74 74 71 70 71 68 66 63 64 64 68 68
100 91 86 78 70 60 51 54 58 59 60 63 59 56 55 53 46 47 45 51 55 55 56 59 58 59 67 71 77 81 83 82 80 77 75 72 72 72 74 72 70 70 68 68 70 75 76
104 96 89 82 74 66 61 63 63 57 54 55 64 61 60 59 52 46 44 49 58 59 59 57 54 54 64 74 79 81 77 75 75 75 73 72 72 74 74 74 74 72 74 75 75 77 79
106 100 93 84 79 71 67 65 56 49 45 42 47 56 64 64 59 49 42 51 55 58 56 57 53 49 54 61 67 70 71 74 73 72 74 72 73 74 74 75 76 78 79 82 84 83 81
110 104 97 89 80 74 68 61 52 44 38 37 37 45 56 67 60 54 45 48 55 57 54 52 49 39 45 56 64 69 71 72 73 72 71 69 71 70 72 74 80 81 86 87 86 87 83
114 107 100 92 81 75 67 60 50 43 37 33 32 36 44 61 64 58 48 49 54 57 53 49 43 37 41 49 65 68 71 70 69 70 70 73 75 76 77 81 84 86 88 89 89 89 87
115 110 103 95 84 77 71 61 52 45 37 31 30 32 37 52 65 60 55 56 51 53 51 46 40 34 37 50 64 64 65 68 70 70 72 74 76 77 80 83 84 84 82 81 81 80 68
118 113 106 96 87 78 72 62 55 45 33 28 29 29 33 46 64 65 60 58 51 46 47 46 40 38 34 41 55 60 63 67 69 68 70 72 75 75 77 78 73 70 73 76 78 81 73
120 114 107 97 89 82 73 63 57 43 30 23 25 28 33 39 53 70 66 56 49 43 48 50 44 39 35 33 38 48 54 60 58 58 58 60 65 65 64 66 71 75 80 83 82 80 78
121 116 108 99 90 83 73 65 58 42 27 18 20 27 32 38 50 63 68 54 48 46 48 53 48 43 36 34 34 35 37 40 43 46 49 51 55 60 66 72 78 81 86 91 86 82 73
122 117 110 100 90 83 73 66 56 42 25 14 16 25 32 35 46 62 65 56 52 49 47 49 51 46 42 37 34 34 35 38 40 44 46 50 56 64 70 77 82 83 81 80 79 72 70
122 116 109 99 90 82 72 64 52 41 25 10 10 23 31 38 46 50 61 57 55 51 46 45 52 50 45 41 39 38 39 39 42 43 48 52 58 67 72 67 60 59 58 61 60 57 55
121 117 108 99 90 82 72 61 48 38 27 10 7 19 29 33 37 38 50 63 57 50 47 43 46 48 47 44 42 40 39 39 40 42 45 54 60 58 51 49 48 42 40 41 41 42 39
121 115 107 98 88 82 71 60 45 34 26 10 7 19 28 29 31 34 44 57 56 52 47 40 40 41 40 40 38 37 36 34 34 41 47 45 37 39 39 34 28 22 25 24 27 27 25
119 115 104 97 88 81 70 58 44 31 21 5 9 18 24 26 32 36 46 61 59 52 47 40 39 37 35 32 32 32 30 27 33 36 35 29 30 23 16 19 24 31 37 31 11 9 11
117 113 103 96 87 80 69 56 40 28 14 7 6 18 23 25 25 28 44 53 57 54 50 46 42 37 33 30 29 29 24 28 31 28 23 21 20 7 20 25 32 35 36 37 36 27 15
114 110 102 94 87 80 68 56 41 28 13 8 5 17 21 21 23 25 40 53 59 55 52 48 41 37 35 29 30 25 25 27 25 25 24 14 1 10 20 23 29 34 38 37 38 30 26
110 107 100 93 87 80 67 54 41 29 15 5 7 17 20 26 29 33 41 53 60 58 54 48 42 39 34 32 30 26 24 21 24 28 16 6 10 4 12 24 24 29 33 32 36 37 36
105 102 98 91 85 79 68 55 40 27 16 3 6 17 24 29 33 36 42 49 58 60 57 51 46 40 35 36 32 26 20 21 19 25 19 12 10 9 9 15 17 22 26 29 35 38 37
101 97 95 88 80 77 64 54 40 27 15 4 6 13 22 27 30 33 37 42 49 57 58 52 46 42 40 37 32 25 24 13 28 21 15 16 11 10 5 5 13 18 19 21 27 32 31
97 92 89 85 77 73 61 50 37 25 14 6 7 13 17 23 26 30 32 35 39 46 51 52 52 45 40 37 30 26 23 18 23 18 17 17 20 16 22 11 11 15 9 19 21 24 25
92 88 86 82 74 68 57 47 35 24 13 6 7 9 10 19 27 31 33 34 38 40 46 51 49 42 41 34 31 29 25 24 23 18 14 19 16 10 14 13 7 5 9 7 15 19 25
87 85 83 79 72 65 54 44 33 21 12 6 9 14 18 20 25 29 33 38 42 45 44 40 41 41 39 35 33 29 26 26 19 16 20 22 17 12 12 10 8 4 6 6 1 5 8
84 81 78 76 69 65 52 41 32 19 11 11 12 14 17 19 22 29 35 40 43 43 40 41 41 40 38 37 33 24 24 23 23 13 19 24 23 18 15 12 11 10 6 5 6 7 6

GFSGBSN_250_spd_024.txt.gz
Wind_Speed
92 87 82 73 61 50 43 40 36 36 41 43 47 51 56 61 62 65 75 76 77 78 80 79 80 82 88 87 84 86 82 82 79 77 79 76 73 70 67 63 57 53 55 53 50 50 51
98 91 86 77 65 55 48 43 38 35 38 42 43 47 51 58 62 63 68 74 80 79 79 78 80 80 78 84 85 85 85 83 81 78 80 78 77 72 70 68 64 58 59 56 52 52 48
102 97 91 83 71 61 53 47 41 37 36 39 44 45 48 51 57 65 68 72 73 76 78 76 75 76 80 81 85 88 86 84 81 77 78 77 78 78 76 75 72 63 61 59 60 55 50
105 101 97 90 77 66 58 50 42 38 37 39 43 46 48 53 53 57 61 67 70 74 75 75 76 78 78 80 84 88 87 84 83 77 76 74 74 75 75 72 69 64 58 63 65 61 56
107 104 100 93 82 70 64 56 47 40 41 42 45 49 51 53 56 58 58 60 62 66 72 74 78 78 75 77 79 84 89 85 82 81 78 75 73 71 73 72 69 69 65 64 66 65 62
113 109 104 96 85 75 67 59 52 52 55 52 57 58 55 56 59 57 58 55 56 58 62 66 73 75 72 71 74 79 82 87 84 81 80 77 73 72 74 76 73 70 67 68 68 71 67
116 112 108 100 92 80 71 61 52 54 58 64 58 60 66 61 62 61 58 54 50 53 55 60 67 64 66 68 69 72 77 80 85 82 79 77 73 75 77 76 74 74 72 71 71 72 71
119 115 112 104 95 84 74 64 59 59 56 55 52 50 55 61 65 65 58 47 50 59 58 59 57 57 59 61 65 69 72 76 82 81 80 78 76 78 77 78 77 77 74 73 75 75 73
121 118 113 106 98 87 76 69 63 56 47 44 42 41 46 51 56 63 57 49 54 54 55 52 53 52 53 53 55 59 65 72 80 80 79 79 79 80 79 81 81 80 76 78 78 77 75
122 120 114 107 100 90 81 72 62 51 39 37 36 38 37 39 46 57 60 55 53 53 55 52 51 52 50 51 50 51 55 61 70 77 80 82 82 82 82 82 82 79 78 77 78 79 79
124 122 116 110 102 92 83 74 61 48 40 34 31 32 31 33 44 50 64 59 57 57 54 51 48 50 53 51 52 53 54 61 69 75 78 79 81 83 80 80 76 75 76 77 79 80 82
126 123 117 111 103 92 83 73 60 50 39 32 26 24 27 35 38 48 65 62 63 49 51 47 49 49 52 52 50 51 52 55 63 69 73 75 75 74 74 73 74 75 78 81 84 85 82
127 124 117 111 102 91 82 71 60 50 38 30 23 20 25 36 40 52 67 69 53 43 47 47 49 50 49 48 47 43 41 48 53 55 59 59 63 65 69 70 72 74 79 82 83 85 82
127 124 117 110 100 91 82 70 60 45 33 25 15 15 25 34 40 55 65 64 48 42 44 49 49 49 46 42 37 33 34 41 46 46 50 53 59 63 66 67 71 74 78 80 72 75 77
128 123 116 109 100 90 81 69 59 42 32 24 12 11 21 30 39 52 63 56 48 47 45 50 49 48 45 40 32 29 31 30 36 43 48 53 56 58 60 60 64 67 68 70 74 79 80
127 123 115 108 99 88 79 68 56 40 30 23 11 8 19 29 35 49 60 57 52 52 44 47 48 47 44 36 30 25 23 25 29 34 39 45 46 51 48 51 55 60 66 74 83 82 82
127 122 113 106 96 87 76 66 54 39 30 23 9 6 19 30 36 43 46 53 58 49 44 46 48 46 43 36 30 26 24 24 24 26 27 29 35 41 45 50 54 59 62 62 66 67 68
125 119 111 103 94 85 75 64 53 39 34 24 7 6 17 28 32 41 60 61 54 50 46 44 47 45 42 38 33 28 24 24 23 24 27 32 36 40 44 49 44 41 34 38 48 50 55
123 115 110 101 90 83 73 63 51 40 35 25 8 6 15 22 27 37 52 61 59 53 46 42 41 44 42 39 36 31 28 26 26 27 30 34 35 39 39 33 25 23 26 28 31 35 37
120 112 107 99 88 82 72 62 50 39 32 21 10 8 18 24 28 39 50 62 59 51 45 40 38 39 41 40 36 32 30 28 28 29 29 28 32 28 24 17 16 25 29 34 34 27 19
117 109 103 97 87 80 71 62 50 38 30 18 9 9 17 25 30 36 44 58 58 50 44 40 35 34 38 40 38 34 30 26 25 23 25 27 19 17 16 8 20 26 26 36 33 34 26
111 104 100 96 84 78 70 62 50 36 27 18 6 7 16 21 30 36 40 48 56 50 44 41 34 33 34 34 33 29 24 22 19 20 21 19 17 13 4 15 17 21 29 35 40 40 33
107 99 96 93 84 75 67 60 50 36 26 15 5 8 16 22 25 30 43 53 56 52 47 42 39 35 33 33 31 25 21 18 16 19 18 15 15 7 3 13 14 17 25 31 35 39 42
101 94 91 87 85 77 68 62 51 38 25 17 6 7 16 24 30 38 42 55 60 55 51 46 42 36 34 33 30 24 18 15 17 18 14 18 13 5 4 8 9 16 25 31 33 42 41
95 88 86 82 80 73 69 63 51 38 26 16 6 7 19 25 31 37 45 54 60 60 55 50 45 41 38 36 30 25 18 16 15 16 18 15 8 12 6 1 2 10 18 28 33 33 37
88 84 81 80 74 71 64 59 51 39 26 16 8 3 9 20 26 31 40 48 57 62 58 53 49 44 41 36 30 24 20 17 15 15 16 16 7 9 4 4 11 11 14 19 22 26 31
82 80 77 76 71 66 61 57 50 39 27 17 9 4 7 9 17 25 31 39 51 58 58 55 50 45 41 38 32 26 21 20 19 19 18 13 11 18 8 5 10 4 10 15 17 20 22
78 77 72 72 70 63 59 53 51 39 28 16 11 8 7 12 17 23 28 33 41 53 56 55 51 47 44 38 32 25 23 26 21 24 21 13 10 13 11 6 2 4 8 6 11 10 13
76 74 70 68 66 62 56 51 50 38 26 16 12 10 11 13 19 23 28 32 38 45 54 55 52 49 45 38 32 27 30 28 23 24 18 19 18 13 10 11 9 7 5 7 9 7 9

GFSGBSN_250_spd_027.txt.gz
Wind_Speed
99 100 96 87 83 77 72 65 57 50 47 43 44 47 47 53 58 63 69 73 75 78 80 84 88 85 85 88 89 89 87 86 86 81 81 79 78 78 75 73 72 74 75 71 66 66 65
105 106 102 93 89 84 76 67 60 53 48 44 43 44 47 49 51 57 63 69 73 75 81 83 85 87 88 88 85 89 88 86 86 86 87 85 83 81 78 75 76 75 74 73 69 63 62
108 107 105 100 94 89 83 76 65 55 50 46 43 44 46 48 50 49 55 64 70 74 74 83 85 84 87 79 88 88 87 89 86 85 84 84 84 85 82 80 77 74 76 72 69 66 61
111 109 108 102 96 90 84 74 69 68 58 48 47 44 47 48 50 49 50 56 65 71 74 80 87 83 80 81 83 84 87 89 88 91 87 84 84 84 84 81 81 79 77 74 71 70 67
113 114 111 106 99 95 86 78 69 63 59 59 51 51 50 51 51 52 53 52 58 67 74 77 80 90 83 83 85 86 83 84 88 90 88 86 86 85 85 84 82 80 79 78 76 75 71
118 118 116 111 104 99 92 83 73 63 56 57 64 64 57 57 56 56 56 56 56 61 66 71 74 82 87 82 84 79 83 84 82 84 89 86 86 87 87 86 83 80 78 78 78 77 78
119 120 120 115 108 103 96 85 76 68 62 56 56 60 61 57 62 62 60 63 64 48 47 61 74 78 88 85 86 86 80 80 82 85 81 87 86 85 89 86 83 79 78 78 78 77 74
120 122 122 118 111 107 100 90 81 74 65 56 52 50 50 49 57 64 66 68 54 53 60 67 68 68 76 81 81 77 76 75 76 79 82 82 86 89 85 85 84 79 78 77 76 77 76
123 124 124 120 113 110 102 91 82 74 63 55 50 45 43 42 45 58 65 71 62 60 61 58 58 56 62 66 69 72 74 71 71 72 75 82 85 87 85 83 83 83 80 80 78 77 76
126 127 126 121 115 110 101 92 82 73 63 53 48 41 37 38 42 50 57 72 70 62 58 59 54 50 55 57 61 62 64 64 66 67 67 70 80 83 84 82 82 80 80 80 79 79 79
129 129 128 122 116 109 101 91 82 73 61 50 43 38 32 32 39 48 53 62 74 67 61 58 49 45 48 48 49 51 53 55 57 60 61 65 71 76 83 85 81 81 80 82 82 83 82
130 130 129 122 116 109 100 90 81 70 58 48 38 31 25 27 35 44 49 61 74 76 58 49 46 45 44 42 43 44 44 46 52 54 56 62 68 72 78 81 81 80 80 84 85 86 85
131 131 129 121 116 109 98 88 78 67 54 44 33 25 18 22 33 42 48 57 72 69 49 49 44 44 43 42 41 40 42 43 43 44 46 53 60 65 70 78 80 80 82 84 88 88 85
132 131 128 120 114 107 97 86 75 62 51 43 31 18 10 19 30 37 46 58 65 55 45 46 44 44 43 41 40 40 41 40 41 44 48 49 56 61 67 71 75 79 80 85 84 87 83
132 131 127 118 112 105 94 84 72 58 45 37 23 11 4 14 25 37 44 49 57 51 49 45 42 43 41 39 41 40 42 42 42 44 49 52 55 59 63 67 70 69 66 64 63 64 64
132 130 124 115 110 101 90 81 70 57 42 32 22 9 5 18 25 34 39 48 56 50 46 42 41 44 42 41 40 39 38 36 38 37 34 34 34 34 35 36 37 38 46 50 54 58 69
131 129 121 111 107 98 86 77 67 54 40 32 24 10 6 16 21 31 39 48 53 49 45 39 41 41 41 40 36 31 29 27 26 24 23 23 21 27 23 21 28 33 41 50 58 64 72
128 126 117 108 104 94 82 74 65 52 40 31 23 10 8 17 23 33 46 54 50 46 43 37 40 41 39 37 34 30 27 23 21 19 17 16 17 18 18 24 30 36 43 46 45 53 61
125 123 112 105 100 90 78 71 62 51 40 30 21 11 12 16 24 34 48 56 54 47 40 36 40 41 39 36 33 27 25 21 19 17 17 16 16 18 22 27 30 27 29 32 26 31 35
121 118 108 101 93 84 74 67 61 50 38 30 21 12 14 11 25 39 51 50 44 46 41 37 37 39 38 36 33 27 24 23 20 17 15 16 17 18 22 16 17 7 14 18 27 34 32
115 110 104 97 89 80 69 64 57 50 38 32 20 10 12 18 24 37 46 47 49 45 41 36 34 37 38 36 33 29 27 24 20 18 17 16 17 16 7 10 2 6 10 16 22 29 29
109 103 101 95 87 76 65 61 54 48 37 28 21 8 8 14 24 32 44 43 45 44 40 36 34 34 35 35 32 30 26 24 22 20 16 14 9 3 8 7 5 6 10 20 24 29 34
101 97 96 93 87 77 68 61 54 48 39 25 16 6 5 14 20 30 42 51 50 45 41 37 34 31 31 33 33 31 28 24 20 17 14 10 2 11 9 12 8 7 14 19 23 26 32
94 92 89 85 83 74 67 61 57 47 39 28 15 7 5 14 21 30 39 51 51 47 44 40 35 30 29 31 31 28 26 21 16 14 10 4 4 13 12 12 10 9 12 19 27 26 29
87 86 84 79 76 72 63 61 55 51 38 28 17 7 6 14 21 27 37 47 53 51 47 41 37 33 31 30 29 27 24 18 16 10 9 9 8 12 13 7 8 7 4 16 22 25 33
82 80 79 74 68 70 62 57 54 48 40 30 20 10 6 13 21 30 36 49 57 56 51 46 42 37 32 31 29 27 23 19 15 9 11 10 7 10 9 12 2 10 4 5 16 20 28
78 75 74 70 63 62 61 57 53 46 41 31 22 15 8 9 17 25 34 44 54 61 57 50 45 41 37 33 30 27 23 18 14 14 11 8 9 6 6 7 7 4 8 3 6 12 19
74 71 70 65 60 57 56 56 52 46 40 31 23 17 12 12 15 21 28 37 50 57 58 53 48 45 41 36 32 29 24 18 16 18 13 13 13 11 8 6 4 3 4 6 13 8 11
69 68 67 63 56 55 51 52 52 46 40 31 21 19 13 14 17 21 25 32 44 56 60 55 52 48 44 40 35 30 25 21 21 22 18 14 13 9 8 5 6 8 10 12 12 12 14

GFSGBSN_250_spd_030.txt.gz
Wind_Speed
102 104 106 105 107 103 96 88 83 80 70 61 53 52 47 44 51 55 62 70 76 80 83 81 83 82 87 90 90 93 94 89 85 81 78 77 74 73 72 72 72 69 68 71 72 71 72
104 107 109 109 110 109 100 91 85 83 79 72 62 56 52 50 47 55 59 65 73 78 82 84 85 84 82 85 87 92 93 92 91 86 84 78 79 77 77 75 74 72 71 71 70 73 77
108 110 111 112 113 114 106 93 85 82 72 74 74 62 53 51 52 50 58 60 66 73 77 81 86 87 81 85 85 92 90 90 92 93 90 86 83 81 77 76 73 72 73 74 72 75 75
110 111 113 115 117 118 112 99 90 83 78 71 66 69 68 56 55 53 54 59 60 66 72 77 81 84 82 83 85 87 87 89 89 89 91 92 88 86 83 79 78 81 78 80 79 78 76
111 113 116 118 120 120 115 103 94 88 83 74 64 63 68 71 55 57 54 59 58 63 69 72 76 79 82 83 82 84 85 86 85 88 89 85 86 85 86 86 83 81 81 81 81 80 79
112 116 119 121 123 123 117 106 99 93 86 75 65 59 55 59 55 53 56 57 61 62 65 68 70 72 78 79 81 81 82 83 88 87 86 84 85 86 85 85 86 90 87 86 85 82 83
116 120 122 123 126 125 118 110 101 95 86 77 66 58 50 46 46 45 54 59 60 62 62 54 60 70 76 80 84 82 80 80 85 84 84 82 82 82 90 88 86 84 84 84 85 85 83
118 123 125 126 129 126 118 109 103 97 88 78 67 56 46 37 37 38 47 59 62 60 56 51 61 59 71 80 79 85 82 82 80 84 77 75 78 89 86 84 86 87 86 86 85 86 82
120 124 126 128 131 127 118 111 104 98 89 77 65 51 41 33 27 32 41 60 59 60 53 54 56 58 67 70 73 82 86 81 80 78 79 79 79 80 80 83 88 89 88 89 87 86 86
122 125 128 129 132 126 118 111 106 97 87 75 60 49 39 30 22 28 41 50 60 57 57 55 53 49 53 57 68 74 78 87 82 78 78 77 74 80 80 81 80 83 87 87 85 84 83
123 125 129 130 132 125 117 112 106 97 84 71 58 49 37 27 21 25 36 49 55 59 60 57 50 49 47 43 49 59 68 78 84 85 79 78 76 74 76 82 81 80 80 85 87 85 83
124 126 129 130 131 122 115 111 104 95 82 67 56 46 34 23 17 21 33 41 45 58 60 53 42 43 40 38 39 46 55 65 74 79 77 77 74 74 75 75 77 79 84 84 83 84 81
125 126 129 131 129 120 114 110 103 91 76 63 53 40 29 19 10 16 26 34 45 58 48 49 44 40 40 39 38 39 44 50 56 63 64 67 69 67 66 64 66 68 73 78 80 79 80
123 125 129 130 127 117 113 108 101 89 73 60 47 36 25 11 5 14 27 34 36 42 54 48 44 38 37 36 33 35 38 39 41 43 46 50 50 50 53 53 53 56 60 67 68 73 78
123 124 128 129 123 114 110 107 100 85 68 56 44 32 19 7 3 11 21 29 34 38 53 51 42 37 33 29 33 34 33 33 32 33 33 34 37 40 43 45 48 53 58 62 64 69 70
120 123 126 126 119 111 107 104 96 80 65 52 40 27 17 9 6 16 19 20 32 47 59 49 42 37 31 32 34 32 29 30 29 27 27 31 33 33 37 40 44 46 54 56 59 61 65
117 122 122 122 114 106 103 100 92 75 60 49 38 24 16 11 8 10 16 33 44 53 56 47 41 34 30 36 34 31 28 26 27 29 31 31 33 38 42 42 42 40 40 38 36 39 42
116 119 119 117 110 102 98 94 86 71 58 47 38 23 17 11 13 15 20 34 46 53 50 44 37 29 29 32 29 27 26 27 28 28 29 31 34 31 21 20 16 17 20 25 33 40 44
114 116 115 110 105 99 92 90 82 69 56 47 38 26 20 14 14 21 30 37 48 49 43 38 31 28 32 31 27 27 25 21 20 20 22 20 19 16 13 9 13 17 23 26 26 30 26
111 111 110 104 100 97 90 85 77 66 54 45 36 27 21 11 11 18 35 40 41 41 39 30 26 30 31 29 26 24 20 19 18 17 16 15 11 9 9 10 14 14 14 16 15 14 16
108 107 103 98 96 94 89 81 73 62 53 41 32 26 19 8 8 19 34 40 40 35 32 27 26 31 31 29 26 24 19 18 18 16 13 10 9 8 11 9 7 8 3 6 13 13 16
104 102 96 93 91 90 86 79 66 59 53 43 34 22 14 5 5 16 29 33 36 34 30 26 26 30 32 31 28 26 21 18 17 14 10 8 8 11 10 12 15 5 4 2 16 12 18
98 96 90 89 87 85 83 77 66 55 48 42 33 24 12 2 6 14 28 37 36 34 29 26 25 29 32 30 28 25 22 20 17 13 10 11 10 10 11 16 12 8 6 7 16 12 24
92 89 84 84 82 81 78 76 67 55 47 42 33 24 13 5 10 18 30 39 41 38 34 29 27 29 32 32 29 26 24 21 17 12 13 10 13 10 15 20 16 11 5 12 15 18 25
86 83 79 80 78 77 73 70 65 56 45 41 35 26 18 11 11 19 32 39 41 41 39 36 32 30 30 31 30 27 25 20 15 15 11 15 14 12 20 17 13 12 6 8 13 13 19
81 76 75 75 75 73 71 67 60 54 46 39 35 25 18 15 15 20 30 46 46 44 41 39 36 32 30 29 28 26 23 20 19 12 13 15 12 13 17 19 11 17 13 10 9 12 19
76 71 70 71 71 69 66 65 57 51 46 39 34 28 17 16 18 21 30 39 52 51 48 43 39 35 32 29 26 24 23 23 19 10 14 14 11 12 11 13 11 17 13 8 5 6 14
72 67 66 67 67 66 62 61 56 49 46 41 36 31 23 15 21 21 24 30 40 51 53 48 45 40 36 30 27 27 26 22 18 12 17 13 13 15 17 15 12 15 11 9 7 10 17
69 64 62 64 62 62 60 58 54 49 44 40 38 34 28 19 18 23 24 29 38 44 56 53 48 45 41 34 30 29 27 22 19 14 18 14 15 13 12 5 6 9 11 13 14 17 17

GFSGBSN_250_spd_033.txt.gz
Wind_Speed
113 102 101 107 107 108 109 110 105 99 89 79 72 73 64 52 50 42 46 53 59 68 76 79 83 86 90 90 92 97 95 89 86 85 83 84 82 80 81 80 81 78 77 78 79 78 74
115 105 105 109 109 111 111 111 106 100 91 84 76 67 67 65 51 48 42 50 56 65 72 79 81 84 85 87 91 92 97 96 92 87 85 84 82 80 80 78 77 77 75 76 75 76 74
112 111 108 110 113 114 114 112 108 102 94 86 78 65 60 62 65 50 47 44 52 61 69 76 82 84 84 88 86 90 94 96 97 93 87 86 84 81 79 79 77 72 71 73 76 75 74
116 114 111 112 115 116 115 115 110 102 96 88 80 67 57 53 56 50 49 45 47 57 64 71 80 84 87 87 88 90 90 91 92 96 96 92 87 83 81 78 79 76 73 73 77 76 73
114 116 117 116 116 117 117 117 110 102 97 90 79 69 58 48 44 47 39 46 48 51 58 68 74 79 89 88 89 89 87 87 87 91 95 95 92 85 82 77 77 75 75 78 77 74 73
112 117 118 119 118 118 120 118 111 104 98 90 78 69 57 46 37 36 35 43 46 49 57 67 67 73 80 90 93 89 86 84 84 86 88 92 93 91 86 80 79 82 80 77 78 78 76
113 118 118 118 117 120 120 119 112 107 99 90 80 68 54 42 33 28 30 38 46 50 55 56 51 65 74 81 90 90 86 86 86 84 84 85 87 88 90 91 88 84 80 80 81 81 78
111 114 118 119 119 121 121 119 112 108 101 91 80 66 53 42 31 23 27 34 44 48 48 49 57 59 70 74 79 86 88 86 85 81 80 79 79 84 90 87 88 86 86 89 87 85 83
112 114 118 119 119 121 123 120 112 106 101 90 80 66 52 40 27 18 19 28 39 44 41 49 53 57 63 68 71 77 86 88 86 82 77 77 75 81 81 80 82 83 83 85 85 87 88
113 114 116 120 121 122 124 121 112 106 97 92 79 66 51 37 24 14 17 27 41 42 44 51 49 55 55 59 63 67 79 80 82 77 76 75 70 71 75 77 77 78 79 81 82 85 84
113 115 118 121 121 122 124 119 113 107 100 88 75 63 46 33 19 10 15 27 35 42 49 48 47 50 50 51 57 58 61 74 74 73 74 71 69 69 72 75 75 78 80 83 83 81 79
113 114 119 121 122 121 121 116 112 105 97 88 74 60 45 30 16 5 10 21 28 39 45 41 44 40 41 43 48 52 55 59 71 72 72 72 70 71 71 71 71 72 74 76 74 76 74
113 114 118 120 121 121 119 114 109 102 95 84 69 54 41 28 17 10 9 19 26 30 35 40 42 39 41 42 41 46 52 55 61 70 74 78 79 74 72 69 68 71 71 70 70 73 74
111 115 117 119 121 119 116 111 107 100 93 80 63 49 38 27 15 11 15 21 21 29 35 42 42 41 40 36 34 36 39 43 52 58 64 72 79 78 74 72 69 69 68 68 69 71 72
111 114 116 118 120 117 113 108 105 97 89 76 58 44 35 25 14 13 16 21 28 33 41 39 33 33 29 28 30 31 32 33 41 49 54 59 64 74 78 76 74 73 69 68 65 64 61
111 112 113 115 118 115 111 105 102 95 86 73 53 44 34 26 20 17 17 28 34 38 43 40 36 33 26 24 23 22 23 28 34 37 40 46 50 55 60 63 63 59 58 54 50 48 46
109 109 111 112 116 113 107 101 99 92 84 72 52 43 36 25 15 14 24 31 37 39 39 38 34 29 23 18 19 19 21 23 24 25 27 28 30 35 35 34 33 34 35 34 37 41 43
108 107 109 109 114 110 104 99 96 90 82 71 52 40 35 27 16 12 25 36 38 41 39 36 31 23 14 13 15 16 21 22 24 24 22 23 25 22 20 22 27 33 34 36 35 31 36
105 104 106 105 109 106 101 95 94 90 83 72 54 41 36 31 24 9 19 35 43 44 40 34 27 21 16 17 19 24 22 23 22 21 21 21 20 19 24 27 29 26 20 17 20 25 31
103 102 103 103 102 101 97 91 89 86 81 72 59 43 36 31 24 11 11 27 42 44 38 32 26 21 18 25 27 23 21 19 19 19 20 22 19 22 24 23 18 15 16 18 19 16 22
101 99 102 99 95 97 93 88 85 81 75 69 58 44 34 29 21 9 15 21 35 41 35 30 24 21 26 29 27 24 21 18 16 18 19 23 27 24 19 17 15 14 14 16 17 14 14
99 98 99 95 88 89 90 84 80 76 72 62 54 42 31 25 12 16 26 24 30 32 28 24 21 27 30 28 23 20 19 19 19 21 22 21 18 17 15 14 17 17 17 11 4 5 9
98 98 95 90 84 83 84 82 77 74 65 58 51 40 27 20 7 12 26 29 27 27 26 22 25 30 30 28 25 22 22 22 21 17 16 15 15 15 15 17 19 16 12 8 3 3 12
97 96 90 84 79 78 79 79 75 72 64 56 47 38 27 15 5 9 18 26 30 30 26 24 27 32 31 30 27 23 21 19 18 16 14 14 14 13 17 23 21 17 15 10 3 3 10
94 92 85 78 75 72 74 73 72 70 66 58 46 38 29 17 7 10 18 26 31 31 30 26 27 32 32 31 28 24 22 19 17 14 14 15 14 17 17 25 21 19 16 6 8 11 16
90 85 78 74 70 68 68 68 68 68 66 59 50 39 30 22 12 10 19 26 30 33 33 30 28 30 32 32 29 26 23 21 19 17 16 15 17 20 22 26 23 19 16 12 11 8 14
83 79 73 69 65 63 63 64 65 61 63 59 52 43 33 24 17 15 16 27 38 37 37 35 33 32 33 33 33 30 27 23 20 20 16 19 18 21 25 26 22 18 19 17 14 11 14
78 73 69 64 61 59 59 61 63 60 57 55 55 47 40 30 23 16 18 24 39 39 42 41 38 35 32 32 32 31 29 26 25 21 16 24 21 22 28 26 24 19 16 17 12 14 15
73 68 65 62 57 55 55 58 60 59 59 52 51 51 43 36 29 20 19 22 30 43 43 46 43 40 36 33 32 31 29 29 27 22 18 21 23 23 25 22 19 19 20 19 16 19 19

GFSGBSN_250_spd_036.txt.gz
Wind_Speed
106 108 106 107 106 107 106 104 104 100 91 86 82 75 65 56 59 48 46 45 53 58 62 70 81 86 93 97 102 103 102 98 97 94 93 91 90 93 94 94 92 87 84 84 83 82 79
107 107 108 107 107 109 107 105 106 102 94 89 84 77 66 57 53 54 46 47 49 56 61 67 76 84 87 93 101 102 102 100 96 95 93 89 88 88 90 93 90 86 86 83 81 81 80
108 108 109 109 109 108 107 108 107 101 94 92 85 76 62 52 47 48 47 44 48 54 60 68 75 80 85 93 97 100 102 103 100 95 92 92 90 85 84 88 86 83 85 83 82 85 82
108 107 111 110 110 109 109 111 109 102 98 94 86 75 59 47 41 38 40 41 47 53 58 65 71 75 84 88 93 97 99 100 102 99 96 91 89 88 86 83 83 81 79 79 82 85 83
109 108 111 111 110 110 112 114 110 104 101 97 86 74 57 46 36 31 31 36 45 51 58 60 65 72 85 87 87 94 96 97 99 102 99 94 91 87 85 82 81 77 74 76 82 80 79
108 110 113 111 111 112 114 116 112 105 102 100 87 71 59 48 38 28 24 27 41 49 57 57 62 71 80 86 89 91 91 92 94 98 99 100 95 90 86 81 79 80 79 77 76 75 73
108 111 114 113 111 113 116 118 113 106 104 98 86 70 62 52 40 25 20 25 39 48 53 53 47 57 72 83 87 86 87 91 90 91 92 94 96 93 89 88 85 82 79 76 76 75 72
109 114 117 115 114 116 118 119 115 109 105 96 86 71 65 53 40 24 15 22 31 39 47 49 50 60 68 79 87 92 86 86 86 86 85 88 88 90 97 94 88 84 79 78 78 77 75
113 115 118 116 115 116 119 120 115 110 107 95 82 72 64 52 36 20 12 21 28 36 47 48 50 56 62 72 81 86 88 89 85 83 84 84 84 87 89 89 90 90 86 84 80 76 75
115 118 119 115 115 117 120 121 115 109 105 95 81 73 63 50 33 15 7 17 25 35 46 49 51 52 51 62 71 80 85 89 85 80 80 80 79 77 80 80 83 89 89 89 88 85 79
115 119 118 115 115 117 119 121 115 108 103 92 82 72 60 48 31 12 3 11 23 29 39 48 47 48 46 52 61 68 73 82 88 82 78 77 78 76 75 75 77 80 82 87 89 89 85
116 119 117 114 115 116 119 120 115 107 102 91 79 68 54 46 32 12 5 9 17 23 41 47 44 36 39 45 48 54 61 70 79 87 77 73 73 74 75 72 68 71 76 78 80 84 83
115 118 114 113 115 116 119 119 113 105 99 88 76 64 51 44 33 17 11 16 23 31 38 36 35 38 41 41 39 42 49 53 64 73 83 79 76 74 74 71 65 66 66 66 72 74 76
114 117 114 112 115 116 119 117 112 102 97 85 75 64 50 40 28 17 17 19 27 36 34 37 33 35 35 34 33 39 42 47 52 56 70 83 78 73 71 68 64 63 59 60 61 65 68
113 113 111 111 115 117 117 115 108 98 92 81 73 62 48 41 24 14 21 30 36 39 37 31 32 33 29 26 26 28 33 40 43 48 52 65 73 70 70 69 66 66 62 61 60 62 62
114 111 109 111 115 118 114 113 105 96 90 80 72 60 46 39 26 11 16 31 39 39 38 38 35 27 27 24 22 24 29 33 36 38 42 49 60 72 67 66 66 66 65 65 65 64 64
114 109 107 110 113 117 113 110 104 95 93 82 73 60 47 36 23 7 18 28 33 33 34 35 34 31 25 25 24 24 25 25 26 30 36 41 46 53 61 64 66 67 70 70 69 66 64
112 107 105 110 111 112 112 107 101 92 90 80 71 62 46 36 25 18 17 22 28 33 32 28 27 21 17 20 20 22 24 26 28 32 34 37 39 42 47 50 51 53 55 56 60 65 63
108 104 104 109 109 106 105 102 98 90 84 77 69 60 47 34 24 15 14 26 29 29 29 29 27 23 19 15 12 19 21 21 24 25 26 25 27 29 31 32 34 34 35 35 38 40 40
103 102 102 106 106 102 97 93 91 86 80 75 67 58 47 32 19 14 9 20 31 31 30 28 24 20 16 18 23 23 24 25 25 24 24 24 25 26 27 28 28 27 28 31 33 34 31
98 100 101 103 103 97 91 87 85 81 74 68 65 57 48 31 18 9 6 15 27 31 30 27 24 20 17 19 26 27 25 24 22 23 23 22 22 23 24 26 26 27 29 27 25 24 23
94 98 99 100 97 91 86 81 79 76 71 66 60 55 47 33 17 7 5 11 25 29 29 25 21 16 16 24 27 25 22 20 19 19 20 23 26 25 22 22 23 25 25 23 20 14 6
93 95 97 96 91 85 82 77 73 71 66 61 55 50 43 35 18 1 4 16 23 25 25 22 19 18 22 27 25 24 22 19 20 20 22 23 23 23 23 23 22 21 20 21 19 19 10
93 93 94 92 85 78 76 74 69 68 63 56 51 47 41 33 21 9 10 12 22 25 25 23 22 22 27 28 26 24 23 23 25 25 24 23 23 21 20 21 20 21 23 24 18 15 10
92 92 91 87 79 73 70 69 66 65 63 58 49 43 38 33 23 13 14 16 19 25 27 25 23 28 30 31 29 27 27 27 25 23 20 20 20 20 19 21 20 24 24 25 19 11 10
92 90 86 81 75 69 67 64 61 64 61 57 53 46 37 30 27 19 17 21 21 27 27 26 25 31 33 34 33 31 29 26 23 21 19 21 20 18 20 23 22 21 26 23 14 9 12
90 85 80 76 70 66 65 61 57 58 60 59 55 51 43 33 28 25 20 23 26 30 32 30 28 31 34 36 35 33 31 28 25 22 20 21 20 20 22 24 23 25 28 24 22 17 17
84 79 75 71 67 62 61 58 56 55 56 56 53 51 49 40 30 28 23 23 29 35 38 36 33 31 33 36 36 35 33 31 28 23 23 23 21 23 24 26 28 28 26 24 22 20 20
78 74 72 67 65 62 58 55 54 54 55 54 52 50 50 45 34 27 25 25 28 34 41 42 39 36 34 36 38 37 35 32 30 26 26 23 22 24 25 30 31 31 27 24 24 23 24

GFSGBSN_250_spd_039.txt.gz
Wind_Speed
99 103 103 104 108 106 101 103 104 106 103 95 89 86 79 69 63 54 57 54 57 62 69 72 77 82 89 93 100 113 115 115 112 113 111 111 108 108 106 103 100 94 94 91 93 92 88
99 103 102 104 109 107 105 107 107 110 105 95 91 89 80 69 57 50 50 51 54 61 68 73 77 81 85 91 100 106 113 114 109 111 106 107 110 110 108 103 99 96 95 94 92 89 85
100 100 102 104 109 110 110 111 112 113 107 98 94 89 78 65 53 44 44 46 48 56 64 71 76 80 82 91 97 101 108 113 110 107 106 105 106 106 108 109 104 97 95 91 88 88 86
103 104 103 106 113 116 113 114 115 115 108 99 96 89 77 63 49 37 36 39 42 51 56 69 74 77 74 91 94 99 104 109 114 109 106 103 102 100 98 98 99 98 95 92 91 92 89
104 105 104 110 116 119 116 116 118 115 108 101 98 89 74 60 46 36 30 33 37 43 50 64 72 72 78 85 88 96 99 108 113 114 109 104 101 98 96 91 91 93 92 86 90 93 91
106 105 108 112 115 120 118 117 120 117 109 100 99 89 71 58 51 39 26 25 33 39 47 61 69 69 79 76 85 93 96 102 110 112 112 105 100 97 93 88 86 85 85 85 84 85 84
106 108 110 114 117 121 118 118 122 118 110 102 99 89 69 59 52 40 24 21 29 36 46 58 63 60 72 76 82 87 90 97 104 108 108 107 100 93 91 91 92 87 82 79 79 79 79
109 109 112 115 118 121 119 118 122 117 110 104 100 87 68 58 51 39 23 17 25 31 39 51 60 64 72 73 76 77 86 90 96 101 103 104 102 97 93 91 88 84 82 81 80 79 75
110 112 116 118 121 121 119 118 122 116 108 103 98 82 65 57 49 37 22 10 19 26 33 52 60 61 65 66 69 72 81 84 89 94 95 98 97 98 95 93 90 83 81 82 81 80 76
112 113 117 120 121 121 118 118 123 114 106 100 94 77 64 55 47 37 19 6 11 23 36 53 57 61 60 62 66 70 80 81 82 86 90 93 92 95 96 98 91 88 87 84 80 81 76
112 115 119 121 121 118 116 118 122 113 104 97 91 75 66 54 44 34 18 3 6 22 38 52 56 55 53 52 58 60 74 75 77 78 79 80 87 86 91 92 93 91 91 89 86 81 77
113 116 119 119 119 116 114 117 121 112 101 94 89 73 65 50 42 31 16 8 9 18 35 47 48 41 39 44 49 52 71 69 74 73 74 77 80 80 85 85 85 88 90 91 90 87 82
112 117 119 118 117 115 113 114 118 109 99 93 87 73 61 49 40 27 15 15 19 19 30 39 37 39 39 39 40 49 59 61 67 69 65 67 67 73 77 77 75 79 82 81 81 83 85
111 116 119 116 115 113 114 114 115 107 98 91 85 72 60 52 40 29 12 10 24 35 38 42 39 35 33 34 39 46 50 54 60 71 74 73 71 68 69 68 70 74 72 69 70 74 76
109 115 117 114 113 112 112 112 112 104 96 90 85 74 61 53 38 27 10 13 26 34 31 30 29 30 29 30 34 37 40 45 49 57 71 74 72 68 69 65 64 65 67 70 68 67 66
108 112 113 112 111 110 110 110 109 101 94 87 82 73 61 53 39 22 13 20 29 32 30 31 31 26 28 28 26 26 29 34 39 44 49 61 70 71 73 69 65 61 62 60 61 60 62
107 108 108 109 107 108 109 108 104 97 90 86 77 71 59 49 40 22 12 21 26 30 33 30 27 29 23 21 20 19 23 25 32 37 39 43 53 63 69 72 68 65 63 62 60 60 61
106 105 104 106 105 105 107 106 100 92 85 80 74 67 56 48 40 26 12 16 21 23 25 24 23 18 16 15 13 15 20 25 27 31 33 36 40 43 48 57 70 74 69 65 59 60 62
105 102 103 104 103 103 105 102 96 88 80 74 70 62 54 45 37 26 10 12 20 22 25 23 21 21 18 14 14 13 15 19 22 25 27 30 33 35 38 44 52 62 70 69 62 60 58
102 101 102 101 102 100 101 97 90 83 76 70 63 57 51 42 33 27 10 9 17 22 25 24 22 21 21 20 20 21 22 24 24 25 25 27 30 33 36 39 41 43 46 50 52 50 50
99 99 101 101 100 99 96 89 83 79 73 67 61 52 46 40 34 24 17 5 15 21 22 22 20 18 16 13 19 23 24 24 24 24 25 25 27 28 29 31 32 32 35 38 35 33 29
97 99 101 101 99 94 89 82 78 74 71 65 57 53 44 36 31 22 16 10 10 17 20 21 18 15 13 14 20 23 22 21 20 20 21 23 25 24 24 23 24 26 27 26 27 29 29
96 99 100 98 94 89 82 76 74 69 66 64 55 49 44 35 29 23 17 14 10 16 19 18 16 14 13 17 21 22 20 19 19 21 21 21 22 23 24 23 25 27 27 26 24 23 22
96 98 97 94 88 82 77 72 69 66 61 60 55 49 43 35 28 24 18 13 16 15 19 20 19 18 15 17 21 23 23 21 20 20 22 24 24 22 20 23 24 22 23 25 25 24 23
97 97 93 88 81 76 72 69 67 63 58 55 53 48 42 36 29 22 19 16 18 17 23 22 22 20 19 20 24 24 25 23 21 22 22 22 21 21 21 20 21 24 26 27 29 27 25
95 92 87 81 75 71 69 65 63 61 57 53 52 45 41 34 28 25 21 18 22 23 23 29 26 23 21 24 26 27 26 25 25 23 22 21 17 18 20 21 21 23 26 30 31 29 25
91 85 80 76 71 68 65 62 61 58 56 54 51 46 42 36 28 24 21 21 20 25 30 29 30 28 25 27 30 30 28 28 28 25 23 20 19 20 22 21 21 25 29 32 31 26 23
84 80 75 72 67 64 63 61 58 57 55 52 51 49 43 39 32 26 23 22 23 25 30 36 34 33 30 31 34 34 32 32 30 28 25 22 22 22 21 20 23 26 28 30 32 29 25
78 75 72 68 64 62 61 59 58 56 53 50 48 47 45 42 37 33 26 19 21 26 29 33 43 39 36 34 36 38 37 35 32 30 28 25 23 24 21 20 24 28 29 28 32 31 27

GFSGBSN_250_spd_042.txt.gz
Wind_Speed
96 100 102 104 106 110 110 109 105 104 105 108 97 89 82 77 70 61 54 52 51 57 55 65 69 77 81 86 95 104 113 118 123 126 122 117 112 111 108 105 103 97 91 91 93 91 89
99 103 105 106 108 112 112 110 106 108 109 109 98 90 84 77 66 56 50 47 48 50 53 58 66 74 79 84 92 100 108 114 121 127 124 122 117 113 111 109 105 98 97 96 94 92 90
100 104 106 106 109 114 112 111 109 110 112 110 99 90 85 76 62 53 44 44 45 47 50 53 58 68 71 82 88 97 101 112 116 124 125 119 123 119 114 110 106 99 97 98 96 93 91
102 105 108 106 111 114 113 113 111 111 113 109 100 94 87 75 61 52 44 39 39 42 44 48 50 62 72 82 85 91 98 105 113 121 120 118 114 118 119 115 110 101 100 94 95 96 93
103 106 110 108 112 115 114 114 113 113 115 108 100 95 86 74 61 50 44 35 32 34 37 40 46 59 73 78 84 88 96 102 106 113 126 118 111 109 111 113 112 104 99 95 95 98 97
106 110 110 110 114 117 115 115 115 115 115 108 99 92 84 71 56 49 42 31 24 26 30 36 43 58 73 76 82 82 92 98 101 107 117 125 115 107 103 102 101 102 101 99 100 97 97
107 111 112 112 115 117 116 115 115 116 116 109 100 92 83 67 53 49 38 23 16 17 23 31 45 62 73 74 77 79 87 92 93 100 109 114 118 99 93 94 95 99 98 97 95 94 89
110 113 113 113 115 119 116 117 117 118 116 109 100 91 81 63 53 47 33 20 11 9 19 31 46 60 68 69 71 76 81 86 88 93 100 107 109 111 100 93 92 91 89 87 89 90 91
112 113 114 115 117 119 117 117 118 117 114 107 97 89 77 60 51 44 33 19 9 4 17 29 41 54 62 65 69 71 74 79 84 90 97 101 108 106 105 95 92 88 84 83 85 86 81
113 114 114 115 117 119 117 118 118 117 113 106 96 87 76 58 49 44 35 19 8 5 16 31 45 55 59 60 61 64 70 75 80 87 93 93 94 100 103 100 94 87 86 88 86 81 78
116 113 112 114 117 117 116 118 118 116 110 103 94 85 77 60 48 44 37 19 12 5 12 24 37 49 55 56 60 59 64 68 74 82 88 83 88 95 102 103 97 91 88 86 84 82 78
115 111 112 112 115 116 115 118 117 114 108 100 92 85 78 60 50 44 34 22 19 9 13 21 37 45 46 46 47 53 59 59 66 73 78 80 84 91 95 97 100 96 91 88 83 81 79
112 111 111 112 114 114 114 117 116 112 107 100 91 86 77 64 55 46 36 22 17 16 13 27 34 36 37 39 43 49 54 55 59 63 67 73 76 81 86 92 96 96 97 92 87 84 82
111 111 109 110 112 112 112 116 115 107 102 98 89 85 77 68 60 50 38 23 21 19 22 24 27 26 27 32 39 45 50 48 53 58 61 64 65 72 79 81 85 91 93 93 90 88 87
110 109 109 109 110 109 110 114 113 103 96 93 86 80 76 65 59 50 41 22 20 22 24 23 23 30 31 33 34 37 44 39 45 53 58 59 60 63 69 74 77 81 82 82 80 84 88
107 107 109 109 108 106 108 110 108 99 90 87 83 76 70 60 55 47 35 16 16 22 22 24 28 24 27 26 26 27 33 34 36 45 54 56 54 56 61 65 69 72 73 76 78 78 80
105 107 107 107 104 104 106 106 102 94 86 81 77 74 68 57 49 47 35 16 9 12 16 17 15 19 19 18 19 22 25 28 32 39 49 55 55 54 55 56 62 64 66 67 68 70 73
106 106 105 104 101 101 103 101 95 89 82 77 72 67 62 55 43 41 34 19 10 10 13 13 14 14 12 12 11 12 19 24 29 35 42 50 59 56 57 57 57 58 57 58 59 60 63
105 103 103 101 99 99 100 95 88 82 77 73 67 65 58 52 41 34 33 22 8 8 13 16 17 16 16 15 13 14 17 23 25 30 34 39 43 52 60 64 64 64 62 59 58 59 60
105 102 101 99 97 97 96 88 81 76 73 69 64 59 56 49 40 29 27 26 13 2 8 12 14 15 13 13 13 15 15 18 21 25 29 32 34 36 40 45 51 55 57 59 62 60 59
104 101 98 97 96 95 91 82 75 71 68 65 61 57 51 46 40 29 21 20 20 8 5 7 10 10 9 8 9 10 11 15 18 21 25 28 30 32 33 35 38 41 44 47 51 54 55
103 102 98 96 93 89 84 76 71 66 64 60 58 56 52 43 37 31 22 15 15 12 10 8 9 8 9 8 9 11 12 12 14 15 16 19 22 25 28 31 33 34 35 36 36 38 33
103 101 96 92 87 82 77 71 66 62 60 57 53 51 49 44 38 32 22 15 9 10 13 13 12 10 8 8 9 11 13 14 17 17 17 18 19 20 23 25 26 28 29 29 28 26 26
102 97 90 86 81 77 72 67 63 58 57 55 52 49 44 40 37 31 25 16 9 8 13 16 17 15 12 11 10 13 14 14 15 16 16 16 16 15 15 17 18 19 19 20 21 22 22
99 92 85 80 76 72 68 63 59 55 54 52 51 48 45 38 33 31 26 22 12 9 15 19 21 20 18 15 13 16 18 17 16 18 19 19 19 19 17 18 19 21 20 21 22 22 24
93 87 81 77 72 68 64 60 57 53 52 50 49 46 45 39 34 29 27 23 19 13 13 20 22 25 23 21 18 19 22 21 22 21 22 23 22 22 21 22 21 19 20 21 22 24 26
90 83 78 75 69 67 62 59 55 53 51 49 47 46 44 37 33 26 24 25 25 19 17 18 24 27 28 26 22 22 24 26 25 22 21 19 20 20 20 19 19 19 20 22 25 29 28
88 82 77 74 68 65 61 57 54 52 50 48 45 44 43 40 31 29 26 23 22 25 22 23 23 29 31 31 28 23 27 29 27 24 23 22 21 19 18 18 19 19 21 25 28 31 32
85 82 77 74 70 64 60 57 54 51 49 48 44 42 42 41 34 30 31 28 24 24 30 26 28 29 33 32 33 28 30 32 29 29 28 24 22 20 18 20 21 20 22 26 28 33 34

GFSGBSN_250_spd_045.txt.gz
Wind_Speed
91 96 100 99 100 102 104 104 103 102 105 104 99 93 87 81 76 69 58 49 46 45 47 47 48 63 73 76 81 92 95 108 119 122 128 125 122 117 115 110 106 100 97 97 98 94 90
94 99 100 102 104 104 105 106 105 105 109 106 99 94 87 82 75 64 54 45 41 41 42 40 43 56 66 72 83 87 91 101 113 120 125 128 124 122 117 114 110 106 103 100 100 96 92
94 100 104 105 106 106 108 107 107 108 110 106 99 93 87 83 73 61 49 43 37 38 39 40 39 49 56 69 80 83 86 94 108 119 122 128 128 124 120 117 115 111 106 103 100 95 91
95 101 107 107 108 108 109 109 109 110 112 107 100 95 89 81 71 60 48 40 35 32 32 35 37 40 53 69 76 82 84 90 102 114 120 123 130 127 124 120 117 112 107 104 101 97 92
96 103 109 109 109 110 111 111 110 112 113 107 101 95 89 80 71 58 47 40 32 25 24 27 32 43 56 66 75 79 88 90 99 108 116 120 124 129 124 120 117 113 107 104 102 100 96
97 105 109 110 109 111 111 112 111 113 113 107 102 97 89 79 67 53 46 36 28 18 16 23 32 45 56 65 73 79 80 86 96 103 112 119 120 123 123 119 113 108 106 104 103 102 98
101 107 109 112 110 112 113 113 113 114 113 106 100 93 85 77 63 50 42 34 22 10 12 23 36 49 60 64 70 75 80 82 92 98 104 112 112 109 122 112 113 111 108 106 103 100 97
102 106 108 111 111 115 114 113 113 117 111 105 100 91 83 77 62 49 42 34 23 8 6 19 32 45 52 60 66 71 70 80 88 92 98 102 109 108 113 119 111 113 111 107 105 100 97
102 105 109 109 112 115 115 113 113 117 112 105 102 93 84 77 62 50 45 32 22 12 6 18 29 39 48 55 61 65 69 76 83 87 90 96 99 105 106 114 106 102 102 105 105 104 98
101 104 108 111 113 114 115 113 113 117 113 105 101 94 85 79 64 53 46 30 21 16 9 13 25 36 44 50 55 61 67 75 77 80 83 89 92 100 105 107 110 99 91 95 99 98 99
100 105 109 110 112 114 115 113 113 114 111 103 99 94 85 79 65 54 46 31 27 23 13 8 22 29 36 42 47 53 59 66 70 73 80 86 90 99 103 100 106 101 95 91 87 87 85
103 106 108 111 111 113 113 114 112 111 107 101 95 93 86 81 70 57 51 37 29 25 21 13 18 26 36 41 47 51 56 61 63 67 74 82 84 87 85 91 97 103 96 85 82 81 78
105 107 109 110 110 112 113 113 110 108 101 97 90 89 84 80 75 59 54 45 32 31 26 15 20 27 33 38 42 48 53 53 56 60 66 73 74 74 74 78 86 96 102 93 83 81 77
107 108 108 108 110 110 112 111 107 103 95 91 86 82 80 76 70 62 55 47 40 25 22 17 17 21 27 32 37 42 46 47 50 54 58 62 63 61 66 70 76 84 93 99 88 82 80
108 109 107 107 110 109 110 108 101 97 89 84 80 74 73 70 66 59 52 46 37 25 14 16 19 25 28 32 35 38 41 40 42 46 50 54 57 60 63 66 70 76 82 91 99 91 87
108 107 106 106 106 107 108 102 96 90 84 77 74 69 65 64 61 51 47 43 32 22 15 9 7 15 21 28 31 34 34 32 35 38 41 47 52 53 57 60 65 67 76 82 87 96 93
107 103 105 103 103 105 102 95 90 85 79 73 67 64 61 58 55 52 43 40 31 21 14 9 8 6 12 14 21 23 23 30 32 33 36 39 43 46 50 56 60 63 64 70 77 82 90
104 103 103 102 101 102 95 89 85 81 75 70 63 61 57 53 50 46 38 35 33 24 12 8 7 9 12 12 14 12 17 27 29 30 34 38 42 45 46 47 50 54 60 65 69 74 78
103 102 101 100 99 98 91 85 79 78 71 66 61 56 53 49 45 42 36 30 29 27 16 11 5 6 7 8 7 8 12 17 21 26 30 35 40 44 48 48 48 51 55 61 64 67 71
104 103 100 99 98 94 87 81 76 74 68 64 58 54 51 46 42 38 33 25 21 22 19 15 8 4 4 5 3 5 10 14 18 22 26 31 36 40 44 47 47 49 52 56 59 60 60
103 100 98 98 97 92 83 78 73 69 64 61 56 50 49 45 41 35 30 24 16 11 11 11 8 5 1 1 2 2 3 8 12 18 25 28 31 34 38 42 44 44 47 50 52 52 55
102 101 98 95 94 87 79 74 71 66 61 58 56 51 46 43 40 35 28 22 15 8 5 6 6 6 5 5 4 3 4 5 6 11 15 20 25 28 30 33 35 40 44 48 49 51 49
101 102 98 95 91 83 76 72 68 64 59 55 54 52 46 42 38 33 29 22 17 11 6 6 8 9 6 6 7 7 4 5 8 12 14 17 20 23 25 27 29 30 32 32 32 34 34
101 102 98 95 86 79 74 70 66 62 57 53 51 50 47 42 38 32 25 23 18 14 12 10 11 12 12 10 8 8 4 4 7 10 12 16 18 20 22 25 27 27 28 27 29 29 28
100 100 94 92 84 76 73 69 65 60 55 51 49 47 45 42 37 33 29 22 18 16 14 16 16 16 16 15 11 7 7 7 10 12 13 13 11 11 11 14 17 19 21 24 25 25 26
99 94 89 85 81 76 72 68 63 59 54 49 47 45 43 39 35 31 29 26 23 18 16 17 20 20 19 19 16 12 9 13 15 16 15 15 14 14 14 14 14 16 18 20 21 22 23
93 89 84 80 77 74 71 66 61 57 53 49 46 44 42 38 35 31 27 23 23 25 20 18 20 24 25 24 22 19 14 17 21 20 20 20 20 19 18 19 19 20 20 23 23 24 24
88 85 81 78 74 71 69 63 58 55 51 49 45 42 41 37 34 31 27 23 20 21 28 26 23 23 28 30 29 26 21 18 26 25 24 22 21 20 23 20 20 19 21 22 24 23 25
86 83 79 77 72 68 65 60 55 53 50 47 44 41 39 39 34 30 27 24 25 24 27 29 31 27 29 32 35 31 29 23 24 28 27 22 19 22 20 20 19 19 19 20 21 21 25

GFSGBSN_250_spd_048.txt.gz
Wind_Speed
84 88 94 95 98 99 97 97 95 95 96 99 93 88 88 84 79 71 58 46 41 37 36 43 49 54 69 83 85 95 97 100 108 120 126 128 127 123 119 113 110 105 101 100 98 98 96
85 93 96 97 99 99 99 99 98 96 99 100 93 89 87 82 78 67 54 44 36 34 32 34 42 46 58 77 88 93 95 97 103 115 124 127 129 125 122 117 113 110 105 104 103 100 97
90 93 98 99 100 99 99 100 102 98 100 100 96 92 89 83 76 64 53 44 37 30 30 30 33 41 53 75 86 90 92 94 99 108 119 128 131 128 124 122 117 114 110 109 106 103 98
91 94 99 102 101 100 101 102 104 102 104 103 98 95 93 85 74 63 52 43 36 28 23 28 32 37 54 68 82 86 89 91 95 101 115 124 131 133 128 126 121 117 113 110 107 104 99
92 94 100 104 104 101 102 104 107 105 105 104 100 97 94 87 73 61 51 41 33 23 18 21 32 43 55 65 76 84 87 86 91 96 105 120 128 130 131 127 124 119 113 111 108 103 100
91 97 103 105 104 102 103 106 109 106 105 104 102 97 94 86 75 62 49 41 32 20 13 19 35 49 57 64 70 79 81 82 86 91 99 114 124 128 132 128 122 116 113 111 109 105 101
91 97 103 105 105 103 104 108 110 108 105 102 101 97 92 86 75 62 50 40 29 18 7 13 31 47 54 60 64 71 76 76 84 90 94 104 116 120 126 129 124 119 117 115 113 108 105
92 100 104 105 104 104 106 109 111 109 104 101 99 96 92 85 77 63 51 40 26 18 6 9 25 41 49 53 58 67 70 72 78 85 89 95 104 116 121 128 126 122 118 116 113 109 105
95 101 104 103 104 106 106 109 110 107 103 101 98 95 92 84 75 62 50 39 24 22 12 9 21 38 46 51 58 63 67 70 75 81 84 88 92 102 115 121 127 124 120 118 114 111 108
98 101 102 102 104 105 105 107 108 105 101 100 97 93 90 83 75 63 50 43 28 23 20 12 20 32 41 47 52 57 60 66 69 75 78 82 85 92 109 112 121 123 121 118 116 113 109
99 100 102 102 105 106 104 106 105 101 99 97 94 92 89 84 77 68 55 46 32 27 24 17 17 25 35 41 47 49 56 61 60 67 70 74 78 87 99 111 111 118 118 119 117 114 110
97 100 104 103 105 105 104 104 103 97 95 94 91 88 86 82 77 72 59 49 39 34 29 20 17 19 26 32 41 49 57 59 62 66 68 70 73 79 88 101 107 109 113 113 118 114 111
98 104 105 104 104 103 104 102 99 95 91 90 86 83 82 78 75 69 59 47 48 41 31 26 23 24 24 28 37 45 48 50 52 51 55 62 66 72 81 90 99 104 104 108 110 114 105
99 104 103 103 102 103 103 100 96 92 87 86 84 78 76 72 70 66 59 50 49 40 33 25 22 24 24 27 32 35 35 36 44 46 49 53 58 61 70 76 82 94 97 97 100 98 101
98 101 101 103 103 101 102 98 93 88 83 80 78 74 71 68 63 58 53 46 41 38 31 24 15 17 22 23 28 31 32 35 38 42 46 48 50 53 57 65 71 79 90 94 93 93 90
97 99 101 102 102 100 99 96 90 84 80 76 73 67 67 63 59 54 48 39 36 32 26 19 15 5 11 18 22 22 26 27 30 35 39 41 43 47 51 56 62 68 78 83 87 91 90
96 100 101 102 101 100 96 94 86 80 77 74 69 64 60 58 54 51 46 37 31 31 27 17 11 5 3 9 13 14 17 23 26 28 33 35 38 40 44 48 52 59 65 72 81 86 87
97 101 101 102 102 98 94 89 84 77 74 70 67 62 56 54 52 47 43 37 30 27 27 21 13 6 8 9 12 13 15 17 21 26 30 32 34 36 38 41 47 53 60 67 71 79 85
98 100 101 103 102 96 92 85 81 74 72 68 64 60 53 50 48 46 41 35 29 21 21 22 18 11 5 6 9 12 15 19 23 26 28 31 33 35 37 40 44 48 53 58 64 67 71
99 97 99 102 101 96 92 84 78 73 69 66 62 56 52 47 43 41 39 35 29 21 14 14 14 13 10 7 6 6 9 14 19 24 26 28 30 34 36 37 38 39 42 48 54 59 62
93 99 100 100 99 95 87 85 76 72 67 64 59 55 50 45 39 36 33 31 27 22 14 8 8 9 9 7 6 4 0 8 15 20 23 27 29 31 35 37 40 41 43 44 46 50 56
97 98 99 97 94 91 86 80 76 72 66 62 57 53 50 43 40 33 30 28 24 21 15 9 5 3 3 1 1 1 4 3 7 13 18 21 23 25 29 34 39 44 46 46 47 50 51
97 98 95 97 90 87 84 78 74 71 67 61 55 51 48 44 39 34 27 25 22 20 16 13 8 6 5 3 3 3 3 7 7 6 9 15 19 23 24 26 28 33 39 46 47 50 52
93 95 94 93 85 86 82 76 72 70 65 60 54 50 46 44 39 35 30 22 22 18 16 14 13 11 11 9 7 5 4 7 8 8 9 10 12 14 17 19 22 25 29 32 38 43 44
94 91 91 87 84 83 80 76 72 68 62 58 53 49 45 43 39 35 31 26 20 20 17 15 15 15 17 16 13 9 6 7 7 7 9 12 13 15 17 19 21 22 23 25 26 27 28
94 96 90 85 81 77 78 76 72 66 59 56 51 48 45 42 39 37 31 28 24 20 19 19 16 16 18 20 20 17 12 11 13 11 11 11 12 15 17 19 21 25 28 28 28 27 28
96 95 93 79 74 72 72 73 69 65 58 54 50 46 43 42 38 35 33 29 24 25 25 21 19 18 18 21 25 25 20 16 16 18 17 15 14 15 17 20 21 21 21 24 26 29 30
105 98 85 77 72 70 67 69 65 61 56 51 49 45 42 40 39 35 34 28 27 24 27 28 22 19 23 24 24 27 27 25 20 22 24 22 21 20 21 20 22 23 22 23 23 24 26
104 92 83 74 70 66 64 64 62 58 56 49 48 44 42 40 38 35 34 30 29 27 26 27 30 27 23 26 26 26 33 32 28 24 27 27 26 24 24 25 27 26 24 26 27 28 29

GFSGBSN_250_spd_051.txt.gz
Wind_Speed
82 81 84 90 96 99 98 96 95 94 96 94 88 85 81 77 73 70 61 51 41 37 36 39 45 56 74 85 88 91 98 98 102 111 121 127 130 128 125 118 114 108 104 101 96 100 99
84 83 86 93 99 100 99 96 96 95 97 95 91 89 85 83 78 72 58 48 39 34 31 35 38 48 65 81 94 96 94 98 99 109 115 125 131 129 128 123 119 113 107 103 102 104 100
87 87 89 94 98 99 99 97 96 97 98 96 93 91 87 86 83 77 63 48 38 29 25 33 36 42 55 74 90 94 95 95 97 105 112 121 130 132 129 127 123 119 112 107 105 105 102
88 88 90 96 99 99 98 97 96 98 99 96 93 93 89 87 84 78 64 50 40 29 22 27 32 42 52 64 80 93 95 93 96 102 107 117 122 131 131 128 124 122 117 112 108 108 104
87 88 93 98 99 98 99 98 98 98 99 95 94 94 90 87 84 78 65 52 43 32 20 19 27 41 48 59 74 91 94 92 93 99 103 109 119 124 132 130 126 125 121 114 112 109 106
86 91 97 100 100 100 101 99 101 99 99 95 92 93 90 87 83 77 65 50 43 31 16 12 22 37 47 57 70 83 89 92 91 95 97 102 114 121 125 132 126 120 120 117 114 111 106
87 94 100 100 101 101 102 102 102 102 99 95 92 91 88 86 83 79 65 51 42 26 13 4 18 33 47 54 64 76 86 89 91 89 93 98 105 116 117 128 132 127 124 122 118 113 109
91 97 102 99 100 102 102 102 104 103 99 94 93 91 88 85 82 78 67 53 41 24 14 3 16 32 43 53 63 76 82 81 84 86 89 92 97 108 117 121 132 127 126 122 120 116 113
89 97 100 101 103 102 101 103 104 102 98 94 94 92 90 86 80 76 67 52 38 22 19 9 12 28 39 47 53 64 72 75 79 82 83 87 92 99 108 113 126 125 125 125 122 118 116
87 97 100 102 103 102 100 103 101 100 95 93 93 92 90 87 82 78 67 53 36 25 22 14 11 25 37 46 50 53 59 66 69 75 81 84 87 93 99 108 118 128 124 123 122 120 120
87 96 99 104 104 104 100 101 99 96 92 90 91 91 89 85 83 77 68 54 40 31 25 17 13 16 28 36 40 42 48 58 64 70 72 74 79 85 89 98 110 123 127 122 122 122 119
86 94 95 107 106 105 103 100 97 93 91 88 88 88 87 84 79 74 69 57 42 38 26 21 14 14 22 32 40 44 49 53 58 63 66 68 72 75 79 84 98 111 123 125 123 122 121
87 91 92 101 106 105 104 99 95 92 88 86 85 84 84 81 78 72 67 60 46 44 34 19 20 15 16 22 32 40 46 51 56 59 61 62 66 68 71 77 86 101 112 122 126 125 121
88 92 93 97 101 102 102 100 94 88 87 83 82 80 79 77 74 70 66 60 50 40 36 31 17 15 14 15 20 26 30 35 43 48 49 54 57 60 63 68 78 90 102 110 115 119 121
87 91 91 91 98 98 99 98 93 87 83 81 78 77 73 72 68 65 60 55 46 36 33 28 25 13 12 14 16 19 21 22 26 33 38 41 46 50 55 60 68 78 87 98 105 107 111
87 88 87 92 96 100 96 97 93 86 82 78 77 74 71 67 64 61 56 51 42 34 29 25 19 15 9 5 10 15 17 20 21 25 27 31 36 41 47 50 58 62 72 80 91 99 103
85 87 84 89 96 102 97 96 93 87 79 75 73 72 67 63 60 56 52 46 38 31 25 22 18 12 8 4 1 3 10 14 18 21 23 25 27 32 38 43 50 55 63 69 76 86 93
86 85 83 92 95 103 101 93 94 86 80 72 72 70 65 59 54 52 48 42 38 31 23 18 16 13 8 4 4 6 8 12 17 20 22 24 26 28 32 35 41 48 55 63 70 76 84
85 82 85 93 95 110 106 95 92 87 82 73 70 69 64 57 52 47 45 41 35 29 22 17 14 12 8 3 2 8 15 17 20 21 24 25 26 29 31 34 37 42 50 58 66 74 80
87 80 83 93 103 111 104 101 91 86 81 75 69 67 62 55 50 45 40 39 35 28 20 13 10 7 6 4 2 1 4 10 17 23 26 27 28 29 31 34 36 40 44 50 57 64 72
90 78 81 91 107 118 108 105 92 84 81 76 69 64 60 53 49 43 40 35 32 28 22 15 9 5 4 2 2 0 2 6 10 16 23 26 28 31 31 32 34 37 41 46 53 58 60
86 78 85 92 105 117 113 107 94 83 78 74 69 63 60 52 49 42 38 35 31 26 23 18 13 6 4 3 4 4 6 6 9 12 17 22 27 30 31 33 35 36 39 43 43 47 54
88 89 92 98 104 115 116 102 88 81 76 73 67 63 59 51 47 41 37 33 32 28 24 20 16 13 10 9 7 7 8 10 11 11 14 18 21 25 30 33 36 38 41 41 43 43 43
88 91 92 101 104 113 110 98 82 77 73 71 66 62 56 49 46 42 36 31 30 28 25 22 18 16 15 16 15 12 9 11 14 14 13 14 16 19 22 24 27 35 38 41 43 43 44
92 98 98 103 109 110 102 92 80 73 70 67 64 61 55 48 45 43 37 32 29 28 26 24 22 19 18 18 19 19 15 12 15 16 17 16 14 14 18 22 24 23 27 31 36 43 46
99 99 105 101 101 108 96 87 79 72 67 63 63 60 55 48 44 42 40 33 29 28 27 27 23 21 20 20 21 23 23 19 15 15 14 15 15 16 18 18 19 23 24 25 27 30 36
101 99 96 100 100 100 93 82 77 72 66 63 60 58 52 48 42 41 39 37 31 28 28 27 26 24 21 22 22 24 26 26 21 18 17 14 15 17 18 20 23 25 26 27 26 30 29
96 99 97 96 97 96 90 81 72 68 64 62 60 56 50 47 42 39 39 37 33 29 29 29 28 26 27 24 24 25 26 31 30 24 23 21 20 20 20 22 21 24 25 27 32 32 32
98 95 97 95 98 99 88 79 73 70 65 61 59 56 51 46 42 39 38 37 35 32 31 30 32 31 28 27 26 26 28 30 33 33 29 29 26 25 25 24 24 22 23 26 26 27 31

GFSGBSN_250_spd_054.txt.gz
Wind_Speed
79 83 88 89 94 98 97 98 100 97 95 94 89 84 81 79 77 72 65 53 45 38 36 33 34 46 58 72 81 84 88 96 99 105 114 122 132 129 126 123 121 116 109 108 107 97 92
80 84 90 92 98 101 99 100 101 102 99 94 87 85 83 81 78 75 69 55 44 32 30 30 31 37 51 69 88 85 89 93 98 103 110 118 134 133 131 130 124 119 115 112 106 98 96
81 85 90 94 102 104 103 100 103 105 101 96 88 85 86 83 81 77 72 57 46 33 24 25 28 35 47 67 81 86 87 90 97 102 109 117 129 136 131 129 128 124 120 115 106 100 101
81 86 91 95 99 104 106 104 104 106 103 96 88 85 86 85 83 80 74 59 51 38 27 23 25 30 44 58 75 89 87 90 93 99 105 113 121 136 133 129 130 127 122 116 109 106 104
82 86 91 96 101 106 108 110 109 106 104 97 90 85 85 85 84 81 75 65 57 44 35 23 21 26 40 52 70 86 88 87 92 98 104 108 116 124 136 130 130 129 124 116 115 111 109
83 87 93 96 104 106 108 111 109 107 104 100 93 88 86 84 82 81 77 70 60 48 35 21 15 22 33 51 64 76 90 87 91 95 100 103 111 119 126 132 125 123 124 119 115 114 110
84 90 93 96 102 104 107 110 111 106 103 102 96 90 88 86 83 81 78 70 59 46 29 17 7 19 31 47 55 66 83 87 89 92 93 97 100 109 115 128 133 127 127 126 121 117 113
84 90 93 95 97 101 106 110 113 108 101 100 98 93 89 87 84 82 78 71 57 43 32 18 7 12 25 37 47 63 73 88 89 89 86 90 97 103 107 114 121 127 127 124 123 116 115
83 87 88 96 97 97 104 108 110 109 101 98 98 95 92 89 85 83 80 72 59 45 36 24 15 8 23 33 43 52 64 80 88 86 89 90 92 92 95 102 112 121 126 124 122 119 119
82 86 89 95 98 98 103 104 109 109 102 96 96 94 92 89 87 81 78 74 63 48 37 29 20 11 12 28 41 49 55 76 85 85 87 86 84 85 88 96 103 111 123 124 117 121 120
82 84 92 93 99 95 106 99 104 107 102 95 93 93 91 88 85 79 76 70 62 50 39 28 22 12 12 16 30 44 57 72 76 76 75 74 74 76 77 85 96 104 116 125 121 122 120
82 85 90 94 98 98 106 97 103 106 103 94 91 92 90 87 84 77 72 68 62 51 40 31 22 16 8 14 21 27 43 55 66 68 73 75 73 70 71 76 83 96 106 118 126 123 120
83 85 91 94 97 97 108 103 100 104 101 95 88 88 89 86 84 78 71 66 61 50 39 31 22 16 9 12 20 27 34 42 53 58 61 64 67 65 65 67 75 84 98 111 115 125 122
86 87 91 93 94 94 110 113 99 100 98 93 89 85 85 83 81 78 72 67 62 52 37 30 26 17 11 5 8 19 28 36 43 49 53 56 55 55 57 61 69 78 87 99 109 111 122
84 89 90 91 94 95 104 112 110 99 98 94 89 85 81 79 78 75 67 61 58 53 44 32 24 24 15 7 6 3 7 24 32 36 41 44 45 48 51 54 61 68 74 84 96 107 111
86 90 92 91 92 91 102 108 114 97 97 92 88 84 79 75 72 70 64 56 51 47 42 31 23 18 17 17 9 8 8 11 18 23 28 32 37 40 43 48 54 61 67 74 83 94 104
87 90 93 94 92 86 101 101 111 99 97 92 88 83 77 71 68 65 62 54 48 44 39 33 23 15 12 12 12 9 7 8 11 14 18 23 28 32 38 41 49 55 58 65 73 81 91
88 91 91 88 89 85 95 97 107 103 93 92 87 84 77 68 64 61 58 52 46 41 36 30 23 16 10 7 6 7 7 8 10 14 16 21 23 26 29 35 42 48 53 60 65 70 80
87 90 88 84 84 91 93 97 104 105 91 87 83 83 78 68 61 58 55 49 42 37 34 30 26 19 11 5 2 3 5 8 12 15 17 19 22 24 27 32 37 43 49 52 57 65 70
88 86 86 85 88 88 91 99 99 99 90 86 79 78 76 71 60 54 52 48 42 37 32 28 24 19 12 8 3 2 3 7 11 14 17 19 22 24 26 31 34 38 43 48 53 56 65
87 85 83 85 84 84 91 95 96 101 87 84 81 75 74 70 62 52 48 47 41 36 31 28 24 21 15 8 4 2 6 9 13 17 20 23 24 26 27 30 33 36 40 45 49 57 60
86 85 83 84 86 85 92 96 97 93 82 77 74 72 71 67 60 52 45 44 41 36 30 27 24 20 18 16 11 8 6 5 6 11 16 21 25 26 29 32 32 34 36 42 47 50 54
87 86 86 84 85 87 89 93 92 88 80 75 74 68 67 64 59 52 47 41 38 36 32 27 24 21 18 16 16 14 10 10 9 10 13 17 20 24 27 26 30 34 38 40 42 45 47
88 88 88 86 87 86 88 91 87 85 77 71 69 66 64 59 56 52 45 43 38 34 31 28 24 21 19 17 17 17 16 13 13 13 15 15 19 22 23 25 29 34 33 36 38 40 45
89 91 88 87 86 84 87 85 85 80 77 73 71 67 62 56 52 49 44 41 39 37 31 28 25 22 21 18 18 19 21 20 17 16 16 18 17 19 22 26 30 30 34 36 38 39 41
89 89 87 89 84 86 83 86 83 78 70 71 68 65 61 56 51 47 44 40 37 38 35 30 27 24 21 21 20 20 22 23 23 20 17 18 19 20 20 25 26 29 28 31 35 39 42
91 88 88 87 83 89 82 81 81 78 70 69 66 63 56 53 50 46 44 41 36 36 36 33 31 26 24 23 22 22 23 23 25 23 21 21 21 21 22 23 25 25 26 27 27 33 37
92 91 89 88 85 83 79 83 80 79 71 68 65 60 53 48 49 46 44 40 37 35 35 35 31 31 27 27 25 24 26 26 26 25 25 24 24 23 22 23 23 25 24 25 29 31 29
94 93 90 92 86 88 83 83 88 80 74 68 66 65 57 48 47 45 43 41 39 36 36 34 32 32 28 30 29 25 26 28 27 29 29 28 26 26 26 24 24 23 22 24 27 31 31

GFSGBSN_250_spd_057.txt.gz
Wind_Speed
72 78 81 86 90 95 101 106 105 104 103 102 99 91 84 80 77 71 68 62 48 38 34 34 34 34 39 51 72 77 79 84 93 96 100 109 113 120 121 121 122 116 113 113 113 108 103
72 77 82 86 91 99 101 107 106 105 105 104 101 93 87 83 80 74 71 66 48 34 25 27 30 29 34 55 77 79 81 83 88 94 99 107 113 124 124 124 123 118 117 118 118 112 106
71 77 83 87 90 99 104 107 109 108 108 108 104 95 88 84 82 77 73 69 54 42 28 19 21 27 36 53 68 79 82 82 87 97 102 107 114 118 126 124 124 123 124 122 117 114 105
72 77 83 87 91 96 107 109 112 112 111 111 109 97 91 84 82 77 75 71 60 52 38 24 13 19 27 44 67 78 81 83 84 93 97 107 112 116 125 127 125 125 127 124 121 114 107
74 77 83 86 91 97 105 110 112 113 112 112 111 101 94 86 83 78 76 72 63 52 40 27 12 13 27 44 64 74 78 84 83 90 96 103 108 113 118 131 127 125 127 123 121 114 110
73 77 82 86 92 97 104 110 111 114 114 115 111 103 94 89 85 80 78 74 64 52 40 29 13 8 26 41 57 67 76 83 84 86 95 101 105 109 114 125 128 122 122 122 124 116 113
74 78 82 87 92 98 104 107 112 114 114 114 113 103 95 91 88 83 81 76 66 55 41 30 17 2 19 36 52 67 76 83 81 84 90 94 99 104 111 122 131 129 126 124 126 122 117
74 79 82 88 93 100 105 105 108 115 116 115 112 104 95 92 90 87 83 79 70 58 43 32 23 5 13 29 42 57 69 77 82 80 85 87 94 99 106 114 129 128 126 122 125 124 120
73 78 82 87 91 100 102 101 105 109 114 114 112 104 95 92 88 84 83 78 72 60 48 36 28 13 9 22 35 48 65 73 77 80 77 82 89 96 102 109 116 130 127 125 123 121 120
72 77 82 87 91 97 100 99 104 107 113 112 110 104 97 91 86 82 80 78 72 64 55 38 30 22 10 14 25 39 51 65 72 77 72 76 82 90 96 103 112 127 127 123 122 122 118
72 77 81 86 90 94 95 99 105 104 110 111 108 105 99 91 85 81 76 75 70 65 55 42 32 24 18 11 23 33 47 52 63 70 70 72 74 82 88 94 99 108 122 120 120 120 119
71 76 81 85 89 94 94 96 102 102 105 109 105 104 99 93 87 81 75 72 69 64 55 44 32 27 19 12 13 30 46 55 55 65 71 69 68 72 75 80 83 88 101 121 124 119 117
71 75 80 84 88 93 90 95 103 104 101 105 107 100 98 93 87 80 73 68 65 60 55 47 33 25 23 17 11 20 34 40 51 55 60 57 62 63 65 66 69 74 86 99 111 124 113
71 75 78 83 86 91 88 91 98 102 101 102 102 99 96 92 85 78 73 67 63 57 53 48 36 25 17 18 9 11 22 35 37 45 55 57 55 55 54 54 56 61 68 82 96 105 117
71 74 78 82 87 89 88 86 95 99 99 95 98 98 91 89 85 77 71 65 59 55 49 44 37 26 15 12 12 11 8 19 32 37 42 47 51 52 54 51 48 52 59 68 77 92 100
71 74 77 82 86 87 87 87 90 96 93 96 93 92 89 82 79 75 67 63 57 52 46 40 36 26 16 10 12 15 9 12 18 24 29 37 42 47 51 52 52 53 55 61 68 75 84
71 74 77 82 84 83 84 84 87 88 90 89 87 87 87 80 73 70 64 58 53 50 46 40 36 30 20 9 9 13 16 17 17 21 25 30 33 37 39 42 45 48 52 56 64 68 75
71 74 76 80 84 82 83 81 87 89 88 86 82 83 81 83 73 66 60 55 49 45 42 39 33 28 23 14 5 7 13 15 18 20 19 21 24 28 33 38 42 46 50 54 58 63 70
71 75 78 80 82 82 82 79 83 85 87 92 85 79 79 79 72 61 57 53 48 42 37 34 29 26 22 17 9 2 5 11 14 18 18 22 26 28 30 34 38 42 46 49 54 60 64
72 75 78 79 81 81 81 79 81 84 88 86 88 80 77 76 72 62 52 49 47 43 35 31 29 24 21 18 14 8 3 6 11 15 19 22 24 27 31 33 35 39 43 45 49 51 59
74 76 79 80 80 80 80 80 80 83 88 86 84 79 74 77 70 62 52 48 42 41 36 31 27 24 20 17 14 11 8 5 7 12 15 19 22 27 30 32 35 37 40 43 48 53 54
76 76 79 80 80 82 80 78 78 79 87 88 88 78 77 75 67 63 51 45 42 36 35 30 27 23 20 16 13 11 9 9 8 10 12 15 18 21 25 29 34 36 39 44 47 51 56
76 78 79 80 79 82 79 77 79 77 87 87 86 79 75 69 64 61 53 45 40 36 33 30 26 23 20 17 15 12 10 9 9 11 11 14 16 21 24 25 28 33 37 41 45 48 50
78 78 81 81 79 81 79 79 80 80 84 89 84 82 71 68 62 58 52 46 39 34 32 29 26 23 21 18 17 15 14 11 10 12 12 13 14 17 22 26 29 33 32 35 38 41 44
77 79 82 80 83 83 81 81 81 75 90 85 87 84 71 66 62 56 51 46 39 35 27 29 27 24 21 19 18 18 16 16 15 14 13 14 16 17 19 24 30 32 31 34 35 36 38
78 81 83 83 83 84 82 82 78 73 80 86 87 90 76 66 59 54 49 45 40 36 30 25 26 24 22 20 20 19 19 18 18 17 16 16 17 18 19 21 27 27 30 34 33 34 37
81 82 86 85 85 84 85 83 75 73 83 83 90 89 80 65 57 50 46 43 40 35 33 28 25 22 21 21 21 21 20 20 21 19 19 19 19 19 20 22 23 20 26 30 32 36 37
85 86 89 88 88 87 87 82 76 77 84 84 84 85 80 66 56 49 43 40 38 34 32 31 26 24 20 21 23 22 20 21 22 21 21 23 22 20 22 23 23 22 24 27 29 30 31
89 92 92 92 92 89 88 86 77 79 83 90 87 85 88 74 60 49 43 40 36 32 31 30 27 24 22 22 24 22 22 23 23 24 22 25 27 27 25 25 22 22 24 26 25 26 28

GFSGBSN_250_spd_060.txt.gz
Wind_Speed
69 71 74 78 82 88 93 98 99 100 103 102 102 101 94 88 77 72 68 65 60 48 33 29 40 42 35 42 68 74 74 79 84 88 90 93 97 103 109 118 119 118 117 115 112 106 100
70 72 74 78 84 89 94 100 104 100 102 104 105 101 97 88 77 73 70 66 60 49 38 26 28 35 30 43 62 71 77 80 81 84 89 92 96 102 108 118 119 117 120 120 115 109 108
69 73 75 79 85 88 94 101 105 104 105 107 107 106 99 91 78 72 71 66 62 52 41 31 20 27 25 34 55 69 75 79 82 84 90 92 96 100 104 116 121 122 125 121 116 112 110
68 74 76 79 84 89 95 101 108 104 107 109 109 110 104 95 83 76 74 70 65 54 43 31 17 18 28 36 50 65 72 79 84 83 87 93 96 101 104 112 124 125 125 123 120 118 114
69 72 75 79 84 88 97 102 112 108 108 110 110 110 107 101 89 79 76 71 67 56 47 36 18 13 23 34 46 63 69 76 80 82 84 91 93 97 102 109 124 125 122 119 120 120 117
70 72 75 79 85 89 95 102 110 111 108 112 113 112 108 103 95 84 79 74 68 59 49 38 20 4 14 28 43 58 64 70 77 82 86 90 92 94 98 104 118 120 119 120 119 120 120
70 72 75 78 82 88 94 100 108 111 108 113 112 110 107 105 98 88 81 77 69 62 53 41 24 12 6 21 36 50 59 69 80 85 88 91 88 89 95 102 118 125 124 122 122 123 123
72 70 74 77 80 86 92 98 104 110 108 109 112 111 108 103 98 89 80 76 69 64 56 42 30 19 5 15 29 42 56 72 80 82 79 76 78 87 93 102 111 123 126 124 123 125 126
71 70 72 75 78 84 88 96 100 105 108 110 112 110 108 103 97 92 81 77 70 65 58 46 31 24 11 8 23 37 53 65 71 68 67 72 77 87 91 96 102 121 126 125 126 124 122
70 70 71 75 77 82 86 93 99 102 107 111 111 107 101 101 99 92 81 73 70 64 60 46 32 25 19 9 11 28 43 56 61 64 69 71 75 81 89 93 101 114 124 123 123 123 121
68 71 69 73 77 79 85 92 93 98 103 108 111 109 101 101 97 93 83 72 69 63 56 49 38 25 20 15 10 19 28 45 58 63 63 65 66 72 82 88 95 100 124 124 123 122 122
67 70 68 72 77 78 84 88 92 96 99 100 105 105 105 103 98 93 83 72 67 63 54 51 42 27 20 12 12 18 23 33 45 55 57 64 66 69 75 83 88 93 106 126 121 117 117
66 68 67 69 75 77 81 89 88 92 96 99 101 102 103 100 97 93 84 73 62 61 55 49 44 32 20 12 5 12 20 28 37 39 44 47 53 62 67 73 82 88 97 105 123 115 115
64 66 65 67 72 77 79 84 88 87 93 93 98 103 99 98 95 90 82 74 62 54 52 49 44 36 23 14 5 7 11 19 29 35 38 43 49 54 57 63 70 78 84 90 97 113 128
65 64 63 66 69 74 78 83 85 82 91 90 95 101 98 94 92 89 82 72 61 52 49 44 40 36 29 13 8 6 8 18 20 27 34 31 38 46 52 52 56 61 68 78 81 94 121
64 63 60 65 69 72 76 80 81 78 88 88 96 97 98 93 83 84 79 72 63 50 44 41 36 34 30 22 10 6 13 15 20 25 25 25 29 31 37 42 50 51 52 59 70 80 98
62 61 59 63 68 71 75 78 78 78 79 85 95 97 94 91 87 78 78 70 62 52 41 36 33 28 27 24 17 7 8 14 21 25 27 30 36 39 36 40 50 53 54 56 61 67 77
62 59 59 60 66 69 72 74 75 77 79 81 94 95 95 96 92 80 75 68 59 53 41 35 30 26 21 21 16 13 6 7 17 21 24 26 29 33 36 38 39 44 50 52 57 64 70
62 58 59 60 66 69 69 72 71 75 77 82 86 100 99 94 94 79 69 69 59 52 44 35 30 24 19 15 13 8 8 7 9 16 21 24 26 30 34 38 41 42 46 49 53 57 64
60 57 58 60 66 69 69 71 72 73 77 76 84 92 97 100 92 84 70 67 62 50 43 34 28 24 17 13 11 8 5 7 12 15 20 23 27 31 35 35 37 39 43 47 49 52 58
59 56 57 60 66 67 71 71 71 71 78 75 78 87 98 98 95 86 76 71 60 51 42 33 26 24 17 12 8 8 6 4 9 14 17 20 24 26 29 31 33 35 39 43 46 51 51
59 56 58 62 65 67 69 70 73 73 77 77 76 85 95 100 95 85 76 68 58 53 43 35 25 22 19 15 9 6 8 7 6 8 13 18 22 26 29 32 34 34 36 39 42 45 48
59 56 60 63 65 67 71 71 73 72 73 78 78 84 92 93 96 87 76 68 60 54 44 36 26 21 17 17 11 8 8 9 10 7 8 10 15 20 27 31 31 34 37 37 39 42 45
61 58 61 65 66 68 69 71 73 74 75 80 80 83 92 97 93 91 78 72 59 51 42 36 30 22 17 17 13 11 11 10 12 11 11 11 13 14 17 21 28 34 34 38 40 40 42
61 62 62 65 68 70 70 73 74 75 78 81 79 87 92 100 95 98 82 74 62 56 42 34 32 24 19 18 17 14 14 13 14 16 15 15 14 15 17 17 22 25 29 33 37 39 40
63 64 66 65 69 72 70 74 76 78 81 83 85 83 86 95 99 95 80 80 67 57 45 35 30 26 19 19 20 18 16 15 17 17 17 18 19 16 13 17 19 17 21 28 34 37 37
66 66 69 69 71 72 74 75 77 80 82 84 82 80 87 90 96 90 78 76 65 56 44 34 28 27 23 18 20 20 19 19 20 20 20 19 20 20 19 17 13 16 19 24 28 30 33
68 70 72 73 74 75 77 78 80 81 84 87 85 83 89 98 89 85 76 64 60 51 46 36 28 25 24 21 20 22 21 20 21 21 22 22 23 22 23 22 17 15 17 20 24 27 30
70 73 74 78 78 80 78 82 83 85 85 89 83 90 89 89 93 81 73 58 60 50 42 34 27 24 22 23 23 23 23 24 23 24 23 24 27 25 25 24 22 21 19 18 21 24 26

GFSGBSN_250_spd_063.txt.gz
Wind_Speed
66 70 75 78 81 81 84 91 99 97 97 96 96 95 92 92 80 68 61 62 60 57 49 39 33 38 43 43 54 65 72 76 83 85 84 89 92 93 100 101 104 107 111 112 113 115 112
66 69 76 78 80 83 84 90 97 102 97 93 98 98 96 93 84 70 63 65 63 59 50 39 30 30 35 36 42 58 66 71 79 85 85 85 90 93 100 103 103 107 112 112 112 116 114
65 70 74 80 81 84 84 90 96 102 102 98 101 102 96 95 87 71 66 69 65 61 49 38 30 25 27 31 44 54 65 69 76 85 84 83 90 91 96 101 102 108 114 114 115 117 114
65 69 74 80 81 84 84 88 95 100 104 98 102 101 100 99 93 76 70 72 70 65 51 41 34 22 17 25 42 53 65 67 76 82 83 85 89 91 95 99 102 108 113 116 115 116 116
64 66 74 79 82 85 86 88 93 101 106 103 105 104 102 102 95 84 76 74 71 66 54 46 36 21 10 20 36 49 61 68 75 81 85 86 89 90 92 96 99 104 110 115 116 115 115
63 66 71 77 82 86 84 87 93 101 105 110 108 105 106 103 97 92 82 77 75 68 57 48 38 22 9 12 26 42 56 64 74 82 92 89 85 85 86 89 86 94 101 115 117 115 114
63 67 70 75 81 85 84 87 91 99 104 109 109 112 106 105 99 95 89 79 75 70 61 50 41 24 12 6 25 38 47 57 70 80 81 77 73 74 81 83 88 96 101 121 119 118 115
66 67 69 73 79 82 82 85 89 96 104 106 111 110 109 105 102 97 91 82 77 70 64 53 41 27 17 5 12 31 42 53 66 74 76 74 69 73 80 83 86 94 98 116 120 120 117
63 65 68 72 77 80 79 83 86 93 102 104 108 108 110 108 104 99 90 85 79 73 67 54 42 32 21 14 6 19 32 49 62 69 70 69 69 72 78 81 83 91 95 115 119 118 120
60 62 64 69 75 78 78 80 83 89 97 103 108 108 108 109 106 99 92 85 79 74 67 56 46 34 21 19 10 19 35 49 58 64 68 71 72 73 77 79 81 87 94 112 121 121 119
58 58 63 67 72 76 75 76 80 84 91 97 103 105 106 107 103 99 93 85 79 72 66 58 49 39 28 18 12 10 22 43 53 60 64 66 68 68 72 74 77 85 93 109 119 122 121
56 57 61 66 70 74 73 74 76 81 86 90 97 100 103 106 105 102 95 83 78 73 64 57 50 40 32 23 14 9 5 17 33 43 45 49 53 61 66 70 74 80 85 96 118 118 116
55 55 59 64 68 71 72 74 75 77 84 87 89 99 101 103 106 104 95 86 79 68 63 57 48 42 34 25 17 13 6 4 19 32 36 40 46 55 61 66 70 76 83 96 106 119 117
54 54 59 61 66 69 70 72 73 76 80 85 84 92 97 98 101 104 100 88 79 70 62 53 49 39 33 28 17 12 5 4 19 17 22 30 46 52 56 60 65 74 78 86 95 117 119
56 54 57 60 63 67 69 69 72 72 78 83 81 88 97 93 98 101 99 92 80 69 58 52 43 40 30 25 17 8 1 6 10 9 14 15 24 43 54 56 58 61 72 80 88 102 115
55 54 55 59 62 65 67 68 71 71 75 79 80 85 92 95 92 96 98 95 82 69 59 50 43 36 32 22 16 7 5 10 13 12 13 10 17 22 31 42 49 55 61 69 78 87 97
53 54 54 58 60 63 65 66 69 70 71 77 77 83 90 94 95 94 96 96 87 72 59 47 40 34 28 23 16 10 1 10 15 16 18 22 19 21 20 30 42 49 52 59 68 75 86
55 53 54 56 59 61 64 65 67 68 70 74 75 82 86 91 95 88 90 92 89 74 61 51 36 32 28 21 16 10 5 2 13 21 24 23 24 26 32 36 39 43 47 52 56 65 75
55 54 52 56 58 59 63 63 67 67 71 74 74 81 83 88 91 90 86 88 83 81 65 55 41 29 25 24 15 10 6 4 6 13 19 25 28 32 35 38 37 42 50 54 58 63 63
57 54 52 57 59 58 62 61 65 67 69 72 75 77 86 85 88 89 86 84 84 83 69 55 44 31 23 19 19 13 10 5 5 9 13 17 23 27 30 34 34 36 37 45 51 58 63
56 54 53 56 59 59 62 61 63 65 68 72 73 77 82 84 87 85 87 84 84 79 72 54 46 33 24 17 16 15 11 10 7 8 11 15 18 22 26 28 32 35 35 37 42 52 52
56 56 53 56 58 61 63 60 63 64 68 72 72 75 83 85 84 84 88 84 82 75 66 54 46 37 27 21 16 14 14 11 10 10 12 15 17 21 24 24 27 29 34 37 42 43 46
59 58 53 55 57 62 64 61 61 64 68 71 72 77 83 83 82 85 85 80 82 76 64 54 42 34 29 22 20 15 16 15 13 12 12 13 15 18 23 23 25 28 30 34 36 38 40
61 59 55 55 57 61 62 61 62 66 67 72 74 79 82 83 83 85 93 79 79 76 65 54 44 33 26 24 23 19 18 18 17 16 16 14 14 15 17 20 26 31 28 31 33 34 37
62 60 57 58 59 61 60 60 61 65 68 72 76 79 79 78 86 91 94 87 88 81 67 53 44 32 25 24 25 23 20 20 21 20 20 18 18 17 17 18 22 24 29 32 34 34 33
62 60 57 60 61 61 58 58 63 63 68 72 73 80 77 77 82 90 87 82 82 78 65 55 51 32 27 23 23 26 24 22 22 24 23 23 23 22 21 20 21 20 20 25 33 36 33
61 60 59 61 64 61 58 59 62 62 67 72 74 79 78 78 83 90 82 85 79 74 59 50 44 34 28 27 23 24 27 26 25 25 25 26 26 27 25 26 23 22 25 24 24 29 29
60 61 62 66 63 58 58 61 63 63 68 72 74 78 78 77 81 86 78 89 78 68 67 51 40 30 27 27 27 25 29 29 26 24 25 28 30 28 28 28 23 26 23 24 26 24 25
60 63 65 65 63 60 61 65 65 68 70 73 77 79 79 80 84 88 87 88 72 71 64 56 42 30 25 27 28 28 28 29 30 29 28 29 31 31 31 30 27 27 25 25 24 25 24

GFSGBSN_250_spd_066.txt.gz
Wind_Speed
60 61 64 67 75 82 85 90 91 95 97 94 95 98 94 96 95 89 80 70 59 55 52 51 43 34 33 41 45 52 64 72 78 81 83 89 95 100 102 98 99 98 95 99 102 106 111
61 61 63 69 77 82 86 89 92 95 96 99 97 99 97 99 99 94 85 75 63 58 57 54 40 31 26 31 41 46 59 68 76 77 82 84 91 97 104 103 100 99 99 100 103 107 107
59 61 66 74 78 83 85 88 91 93 95 101 100 99 99 101 100 100 87 79 68 62 61 55 42 32 25 24 35 39 52 63 67 75 81 82 88 94 102 105 103 100 102 103 104 105 106
59 64 68 73 75 79 82 87 90 93 93 98 107 104 103 104 103 102 95 82 74 66 63 55 44 36 25 19 24 30 45 56 63 74 81 84 87 92 97 104 105 104 103 103 100 105 110
57 62 65 72 74 78 81 86 89 91 93 96 102 109 107 106 106 104 101 85 77 70 66 58 46 39 24 13 13 27 42 53 60 71 80 83 86 90 94 100 103 103 101 97 99 107 107
56 63 63 66 73 76 80 85 89 91 89 93 100 108 106 110 109 105 101 94 81 71 68 62 48 41 24 11 9 27 40 50 57 64 77 83 86 87 87 92 89 93 97 99 99 103 102
56 61 61 65 70 73 80 84 88 92 90 91 97 104 112 110 110 110 102 101 85 74 68 65 52 42 24 13 1 18 33 46 53 60 74 78 76 78 79 83 88 93 98 101 100 101 108
54 56 61 65 69 71 79 83 87 89 91 89 96 102 110 110 111 113 106 103 97 79 69 67 56 43 29 14 9 8 23 37 48 57 69 77 75 79 81 81 83 89 92 97 99 101 108
53 52 59 64 66 70 76 80 85 87 89 86 92 101 106 112 109 112 110 109 102 81 74 68 58 44 31 21 12 6 16 29 42 56 66 69 72 75 75 76 79 84 88 93 97 99 104
54 53 56 63 64 67 73 76 82 85 88 83 89 95 104 109 111 108 110 109 103 89 77 68 62 48 34 24 19 11 8 25 42 53 59 58 62 66 69 70 75 79 83 87 93 96 99
58 54 58 61 63 66 69 73 80 83 86 83 86 92 101 107 108 107 107 106 106 95 80 70 61 53 36 26 22 15 7 17 30 36 43 48 48 54 61 67 71 73 77 80 87 92 96
55 54 58 58 61 66 65 72 76 80 82 82 84 91 97 101 105 104 104 105 102 96 84 71 61 54 41 27 19 18 14 10 22 26 37 45 49 55 61 64 67 71 72 76 81 88 91
54 54 56 56 59 63 63 70 73 77 80 80 80 87 93 97 101 101 99 102 105 95 87 74 62 52 45 31 18 16 13 8 15 3 19 29 43 53 59 62 64 65 67 70 75 80 87
55 55 57 55 57 62 62 67 70 74 77 77 78 82 90 92 96 98 95 100 101 98 79 75 60 52 44 35 22 13 15 8 2 1 3 11 19 39 48 56 61 63 64 65 71 75 84
56 56 56 57 56 60 61 65 68 73 74 75 73 79 86 88 91 95 97 95 97 96 87 70 56 49 41 35 27 15 8 6 3 3 2 4 16 25 41 51 57 59 59 61 68 73 80
56 57 56 56 55 60 61 64 66 71 73 73 72 76 83 84 87 93 93 94 95 92 79 71 53 44 38 34 27 18 7 3 8 10 10 6 9 16 29 41 48 53 56 57 61 66 75
54 56 59 56 58 60 63 62 64 68 72 72 70 71 79 83 82 89 90 94 92 92 84 69 56 43 34 29 27 21 10 5 7 12 14 14 13 14 17 28 43 50 52 55 60 62 67
55 57 59 57 58 61 62 61 64 66 69 70 68 70 76 80 76 83 89 89 90 91 87 71 56 46 34 25 22 21 15 10 5 10 17 21 18 20 23 27 30 37 43 50 51 55 64
57 57 59 56 56 61 61 62 63 65 65 68 66 69 76 79 77 79 87 90 90 89 85 67 62 50 37 27 19 17 17 13 10 8 12 20 28 30 31 35 37 38 43 50 54 60 60
58 58 59 59 56 59 59 60 64 64 65 68 65 68 73 77 77 79 85 86 89 84 81 76 62 50 40 32 22 16 14 12 11 11 11 13 21 32 36 39 42 43 49 53 58 55 62
58 58 58 58 56 58 59 60 60 62 63 68 66 67 69 72 76 78 86 86 86 83 84 76 65 57 42 33 30 19 16 14 12 11 12 13 15 18 24 31 35 37 40 41 42 54 59
58 59 59 58 57 56 59 59 60 61 62 65 64 67 69 72 75 79 84 88 84 81 81 79 71 59 44 29 26 26 20 17 14 14 13 14 14 15 17 21 23 29 36 40 45 48 47
61 58 56 57 57 55 58 61 60 61 61 61 62 65 67 71 74 78 82 86 89 85 81 80 69 60 44 31 26 24 24 21 17 17 16 15 15 17 19 19 18 24 24 28 34 40 43
59 56 54 56 56 55 58 59 59 60 60 60 59 62 64 68 74 77 78 84 86 88 83 80 75 68 48 36 27 22 23 23 21 20 19 17 17 19 21 20 22 30 22 24 27 30 32
57 53 53 54 56 56 57 56 56 56 60 56 59 60 63 67 73 77 81 85 88 92 92 82 76 62 55 36 30 27 20 26 23 22 24 22 22 22 22 22 28 26 23 24 28 28 28
55 53 54 56 55 55 55 54 54 55 58 53 58 59 62 67 71 74 77 81 86 93 87 78 74 59 57 35 28 29 24 24 24 27 25 26 26 27 27 24 27 26 23 23 25 28 29
54 53 53 53 54 53 54 54 55 56 55 53 57 58 64 67 70 76 78 79 83 87 87 78 74 63 54 43 27 26 27 26 27 29 25 27 27 28 28 28 29 23 27 29 28 29 29
53 53 53 53 53 53 53 55 58 54 52 55 57 60 64 68 71 75 76 72 81 84 86 81 66 64 53 46 33 25 26 27 29 29 27 28 29 27 29 31 32 26 29 28 30 31 31
51 52 52 54 53 54 54 58 57 50 53 55 57 60 65 68 72 77 79 77 82 82 85 76 68 65 59 46 34 26 26 25 27 31 31 30 32 31 31 32 34 31 32 31 32 30 29

GFSGBSN_250_spd_069.txt.gz
Wind_Speed
57 58 63 65 69 72 78 83 85 91 95 94 93 92 94 100 93 97 101 99 91 71 63 59 51 40 32 32 36 43 54 64 70 77 80 86 89 91 93 96 94 94 93 96 100 100 98
62 59 60 66 67 70 77 81 85 89 94 96 96 96 97 98 99 96 101 100 92 76 67 62 54 41 34 28 33 40 49 60 70 78 79 83 87 88 91 96 97 94 94 97 96 98 100
65 61 61 64 65 69 76 79 86 88 94 95 97 95 98 101 98 99 103 100 93 82 71 66 57 45 35 27 23 31 43 52 63 74 77 80 86 87 89 94 98 98 96 99 99 96 98
66 60 59 62 63 68 74 78 84 86 93 94 97 95 99 101 105 104 103 102 94 87 72 66 61 50 39 28 17 22 35 47 57 67 77 80 85 86 87 90 95 98 98 98 97 95 96
64 62 59 60 62 68 72 77 83 85 92 94 96 96 95 101 105 103 104 105 96 89 76 68 62 53 43 28 14 15 31 44 51 60 74 78 82 84 85 88 91 96 95 92 95 96 94
63 63 61 59 59 67 71 76 80 85 89 93 95 95 96 98 105 105 103 107 99 89 78 69 64 55 47 29 13 8 27 41 50 57 71 79 81 79 82 81 80 85 90 91 94 95 94
61 62 61 60 61 68 71 73 78 82 86 91 93 94 93 98 104 105 105 106 104 92 84 65 64 57 48 33 14 3 18 36 47 57 66 74 77 77 78 80 83 89 94 95 95 96 100
59 60 61 61 60 67 69 72 76 80 84 89 91 93 93 94 101 108 104 105 104 96 89 69 62 58 50 36 15 8 6 24 37 45 55 68 65 71 76 75 80 86 91 96 98 99 101
55 59 59 59 60 64 68 70 74 79 82 87 90 92 93 93 100 109 106 105 105 99 87 72 60 57 51 39 21 14 8 12 32 45 52 57 65 68 71 73 78 83 89 94 97 99 99
55 57 58 58 60 62 66 69 72 77 81 85 88 90 90 91 97 107 111 107 106 101 88 76 60 54 50 42 29 19 11 14 20 37 44 54 62 67 69 72 76 80 86 92 96 98 97
55 55 57 56 58 60 63 67 71 75 79 82 87 88 88 88 93 104 107 104 103 100 91 82 64 54 49 44 34 22 15 7 17 27 37 45 54 61 66 69 74 77 82 86 90 94 97
57 54 56 52 55 60 63 66 69 74 78 81 84 86 86 86 91 98 102 102 98 99 93 85 73 56 49 43 33 24 20 15 3 4 22 34 46 56 61 65 68 71 74 78 82 87 91
60 53 58 52 55 59 63 65 68 71 74 79 81 85 83 81 86 93 96 99 98 97 93 85 75 60 47 41 35 25 16 17 15 6 6 17 31 43 52 58 61 63 67 70 73 77 83
60 55 57 51 56 59 61 63 67 69 72 75 78 81 79 78 82 89 92 96 95 95 91 83 79 63 46 40 33 25 13 14 13 7 10 10 24 33 44 51 56 60 64 66 68 70 75
60 56 58 55 55 57 59 61 64 66 69 72 75 76 77 76 80 84 87 91 93 87 91 83 80 65 48 36 32 26 18 7 12 15 15 9 12 28 39 48 54 57 59 62 64 67 69
58 55 58 54 52 55 58 60 62 66 67 70 73 74 74 73 75 80 81 86 89 87 90 89 75 69 54 38 28 25 19 11 4 13 19 22 19 17 24 37 47 52 57 58 60 62 63
58 58 55 49 50 52 57 58 60 64 65 69 71 72 73 72 71 77 77 81 89 92 87 87 81 66 60 42 25 21 19 13 3 8 17 22 27 24 26 31 40 47 52 56 57 57 58
56 54 49 48 50 52 53 55 57 60 64 67 70 71 70 71 70 73 75 79 84 90 88 84 82 72 61 52 29 19 15 14 9 4 13 19 25 28 31 30 33 38 47 52 53 55 57
54 50 44 46 47 48 51 53 54 58 62 64 67 68 66 68 66 73 71 76 79 88 95 87 83 76 64 50 38 22 14 11 10 8 8 18 26 29 34 36 36 37 43 48 52 54 53
50 51 47 48 47 47 50 52 54 57 60 61 65 65 63 62 66 67 71 73 77 86 91 87 85 79 69 54 40 27 19 14 10 10 11 13 21 31 35 39 41 44 46 51 56 56 60
51 49 47 48 51 48 50 52 54 55 58 59 64 60 62 58 63 65 70 72 79 83 90 94 88 80 71 61 46 33 21 18 15 12 13 13 17 19 30 34 39 43 48 52 55 58 61
50 47 47 49 51 50 49 52 50 53 55 57 60 58 60 56 59 62 68 74 79 82 90 95 89 86 73 62 50 37 25 20 17 15 15 15 15 17 21 25 29 35 43 48 51 54 55
49 46 46 48 51 47 50 51 48 49 52 57 55 55 59 53 58 61 67 72 78 81 90 99 91 83 75 72 57 39 29 22 20 19 16 17 17 18 19 21 22 28 30 32 38 42 42
50 48 46 49 50 48 49 49 47 48 50 54 53 55 58 52 57 62 66 73 77 81 89 96 95 84 80 73 59 43 31 22 20 21 20 18 19 22 21 21 25 31 25 26 29 30 31
50 46 48 47 48 46 45 45 46 47 48 52 52 54 53 50 54 60 65 73 77 82 88 94 92 86 81 73 59 47 35 24 19 21 23 22 20 22 24 20 25 26 22 23 27 26 26
51 51 46 48 44 44 43 43 44 44 48 49 50 52 48 49 53 58 65 72 75 81 84 90 93 86 70 71 60 56 40 29 21 21 23 24 23 25 27 24 28 25 21 21 23 23 29
53 49 47 43 41 43 42 43 43 44 46 50 48 51 46 48 54 59 65 71 76 79 80 85 92 89 74 74 67 54 42 31 25 24 22 25 26 27 26 27 29 23 25 25 24 26 27
54 47 41 38 40 41 39 43 42 42 47 49 49 47 45 48 54 59 64 69 75 79 80 82 87 92 77 69 65 51 47 36 29 24 20 24 28 29 29 30 33 25 28 29 29 29 28
50 44 40 38 39 41 39 40 40 41 47 48 47 43 44 50 55 57 63 68 73 79 82 80 86 89 78 67 53 49 51 43 33 26 23 23 28 31 31 32 32 29 28 31 33 33 33

GFSGBSN_250_spd_072.txt.gz
Wind_Speed
70 70 75 70 70 69 71 73 81 83 85 90 90 92 95 94 97 93 88 90 95 94 88 71 52 47 38 29 26 33 45 56 69 74 79 84 87 87 90 95 96 94 93 92 97 100 103
70 72 74 67 70 67 69 71 80 82 85 88 91 92 94 98 93 91 89 92 93 93 90 74 55 49 38 29 24 28 39 49 63 75 80 82 85 87 88 93 98 96 93 92 96 98 102
75 62 71 64 67 64 66 69 78 81 82 87 90 93 93 95 95 94 93 90 96 95 87 73 57 51 42 32 23 22 33 46 60 73 78 82 86 87 87 89 97 96 96 96 96 94 100
68 68 63 65 64 60 64 67 76 80 81 85 88 90 93 95 97 97 92 92 95 99 87 71 56 53 44 35 25 19 25 41 56 66 77 81 83 85 88 87 92 98 98 97 95 96 99
65 62 61 61 63 60 61 67 74 79 80 82 86 89 93 94 98 97 92 92 96 99 92 76 58 55 45 38 27 17 18 34 51 59 75 80 82 83 87 89 91 96 95 95 93 92 94
61 58 57 60 60 61 60 65 72 77 78 80 85 88 92 91 97 98 97 92 97 98 95 82 62 54 47 39 28 15 10 28 47 58 71 80 79 84 87 87 82 84 90 93 92 91 90
58 57 57 61 58 61 61 64 71 75 77 79 83 88 90 93 96 96 97 91 96 99 93 83 65 54 47 41 29 14 4 17 38 54 65 72 77 78 80 83 87 88 92 93 94 91 92
57 59 56 60 57 60 59 63 69 71 76 77 80 86 89 91 94 95 98 92 96 98 92 83 69 54 49 42 31 14 5 9 26 44 55 68 74 73 77 78 81 83 88 91 96 94 93
56 59 57 59 58 58 58 61 66 70 74 75 77 84 87 88 92 94 95 96 95 99 92 86 72 57 50 42 31 18 12 7 25 39 52 63 67 68 72 74 77 79 84 87 92 95 93
59 57 60 57 59 58 59 61 65 69 72 74 75 80 85 86 87 89 92 100 93 96 94 84 74 62 51 44 33 21 14 10 20 36 47 55 63 65 68 69 72 76 80 84 89 92 92
59 58 59 57 61 60 61 60 62 66 70 71 73 77 81 83 84 87 89 97 96 93 93 83 78 64 54 44 36 25 21 16 10 29 42 50 56 62 64 66 68 71 77 81 84 86 91
60 58 59 58 62 59 59 60 62 65 67 69 71 74 77 79 81 84 86 95 97 93 93 87 82 70 57 44 37 26 19 22 14 22 35 43 49 58 63 64 66 70 73 76 78 80 84
62 59 58 58 61 59 59 59 62 62 63 66 69 71 72 75 77 79 83 91 93 94 87 85 81 76 60 48 36 28 17 18 27 18 20 33 43 51 57 60 64 67 66 67 70 73 78
65 61 58 57 58 57 57 57 60 57 61 64 66 67 69 73 72 76 78 86 90 90 86 83 84 76 65 52 36 27 19 11 20 22 26 23 32 40 51 56 58 59 61 61 63 70 77
65 59 59 58 58 55 56 56 57 55 60 61 64 64 66 69 69 69 74 79 82 88 89 85 84 72 68 57 41 26 19 9 12 22 26 27 30 35 44 51 55 56 58 61 63 68 73
64 60 58 58 55 53 55 56 53 53 56 57 62 62 64 66 64 65 69 74 80 83 89 82 80 75 70 63 47 29 17 9 4 16 26 30 28 30 34 42 48 52 57 60 64 67 69
59 59 59 55 52 53 54 51 48 49 53 55 60 60 61 63 60 61 65 70 75 81 87 86 81 76 68 63 53 33 18 9 0 13 18 27 34 35 35 39 45 50 53 58 62 64 66
58 59 57 54 50 51 49 44 45 48 51 53 58 57 58 58 56 58 63 67 72 78 82 89 80 77 72 62 54 44 23 11 2 8 19 24 31 37 40 40 42 45 49 54 56 59 63
55 56 54 53 49 48 45 43 44 47 49 51 57 54 54 57 54 56 58 63 69 75 79 84 84 75 72 62 56 45 30 15 7 5 14 23 28 32 39 44 47 50 52 53 55 58 58
54 53 52 51 48 45 44 44 45 48 48 50 55 51 53 53 52 54 54 60 67 70 78 82 84 78 72 66 56 44 32 20 12 9 10 16 24 33 37 43 47 51 55 57 57 58 62
51 52 50 46 47 45 41 39 41 45 46 47 54 48 51 51 49 50 52 59 64 70 75 80 86 84 74 70 60 56 37 21 15 12 12 14 16 26 33 39 44 49 55 57 60 63 61
52 51 47 44 43 42 40 40 40 43 43 46 50 46 49 49 48 48 51 56 63 68 73 79 85 84 75 73 71 56 46 29 15 13 14 15 17 19 26 34 40 43 48 52 56 60 62
51 49 45 45 42 41 39 39 41 41 40 43 45 47 46 48 46 45 49 53 59 63 72 76 80 88 81 74 72 60 49 36 22 13 14 16 18 20 23 26 30 38 44 43 45 49 51
49 46 44 46 44 40 37 38 40 39 41 39 40 43 43 47 44 44 48 50 56 63 70 75 80 83 84 76 66 71 55 40 28 16 14 16 19 21 22 23 27 31 29 31 34 35 39
48 47 45 45 44 40 38 38 39 40 39 36 39 41 42 45 42 40 46 51 55 62 68 73 79 83 90 83 69 69 62 45 36 24 16 17 20 21 22 22 26 25 24 27 29 28 33
49 48 45 44 42 39 37 37 39 40 39 34 36 40 41 41 40 40 46 51 56 62 67 72 78 81 90 87 78 68 60 59 39 32 20 17 20 24 25 24 27 25 22 22 25 27 32
50 48 47 46 40 38 37 38 40 39 37 33 35 39 39 40 39 40 45 51 55 60 65 69 75 79 88 89 81 73 65 57 44 33 24 19 20 25 26 27 27 24 24 24 25 27 28
49 48 48 45 40 36 38 38 37 35 36 35 35 35 33 36 36 40 45 51 54 59 65 70 74 77 83 87 81 71 62 56 50 38 28 22 22 24 28 29 30 26 27 27 28 29 29
47 49 48 44 37 37 38 35 36 36 38 35 34 30 32 32 38 40 46 51 54 59 65 69 73 75 78 84 83 65 61 66 48 43 37 30 26 25 27 28 30 30 27 29 32 33 34

GFSGBSN_250_spd_075.txt.gz
Wind_Speed
70 73 74 75 74 71 77 71 74 75 77 79 80 85 87 91 91 93 90 80 81 86 88 91 83 62 46 41 30 27 32 42 50 63 70 75 80 85 88 90 98 100 99 99 102 103 99
70 75 74 72 74 78 72 70 72 74 76 79 79 84 88 89 93 94 96 83 81 86 90 92 81 62 47 41 31 26 28 39 48 61 72 76 80 84 87 89 97 98 99 101 103 99 102
77 74 69 79 81 72 70 70 70 72 76 78 79 83 89 88 92 97 97 87 81 84 90 91 82 65 50 43 31 21 23 34 47 57 72 78 82 84 86 89 94 100 100 100 100 96 100
80 85 81 75 79 74 68 70 69 71 75 77 80 83 87 88 91 97 99 92 82 84 90 92 85 68 51 44 33 21 18 28 42 55 68 77 81 84 85 86 90 96 100 101 102 101 98
87 88 84 78 70 69 67 68 68 69 72 77 79 82 86 87 89 95 97 94 83 85 91 93 84 68 53 45 35 26 18 22 37 51 64 76 83 85 85 86 89 96 100 101 100 97 95
96 90 88 77 70 63 66 67 69 67 70 76 79 80 85 85 90 93 95 95 82 85 91 90 87 69 53 46 36 27 16 17 32 47 62 73 79 82 83 86 86 86 91 99 98 96 93
95 91 84 68 68 63 62 65 67 65 70 74 78 78 83 83 88 91 93 92 86 85 91 92 83 69 52 45 37 27 12 10 26 43 55 65 71 74 78 77 83 90 93 97 98 96 95
93 83 72 68 63 63 62 63 66 65 70 73 75 77 80 78 84 87 91 87 86 84 91 91 85 69 53 47 38 28 12 4 18 36 50 60 67 72 75 79 84 84 87 90 95 95 93
85 75 68 62 62 61 61 62 65 64 69 71 74 75 76 77 83 84 87 85 88 87 90 91 78 68 55 46 38 29 11 4 13 27 45 57 63 69 76 78 80 82 83 87 92 95 93
82 71 63 60 61 62 60 60 63 65 67 70 72 73 72 74 79 80 82 82 86 89 89 90 80 67 58 46 40 34 13 9 10 25 42 52 60 67 72 72 73 78 83 86 86 90 93
78 72 63 61 61 62 61 60 60 64 65 68 70 70 70 70 76 76 78 77 86 88 89 89 81 70 60 47 41 35 17 14 8 22 31 45 52 58 65 69 72 77 80 81 84 89 92
78 72 67 64 62 62 61 60 59 62 63 64 68 71 65 68 73 73 75 75 83 87 91 89 83 71 62 50 41 36 26 10 15 12 29 39 46 53 62 65 66 71 76 79 84 85 85
78 73 66 64 63 61 60 60 58 61 61 63 65 69 63 65 70 70 70 74 79 87 86 88 81 71 63 55 40 36 30 13 14 13 20 34 41 51 56 60 63 68 72 75 77 78 81
66 66 67 67 66 62 61 60 58 60 59 59 63 64 59 61 66 65 68 70 75 82 85 84 80 71 62 59 45 29 25 11 8 17 26 30 36 43 50 56 59 62 65 69 70 70 75
64 63 65 70 68 63 60 60 55 58 57 57 61 55 57 59 62 62 63 65 72 80 81 80 77 72 66 58 49 32 22 14 4 15 24 30 39 46 49 54 56 57 59 61 63 65 69
63 60 66 68 67 62 59 57 57 55 53 55 53 51 54 56 58 58 60 61 68 76 81 76 74 74 68 59 52 35 20 15 6 9 24 31 34 40 44 49 53 56 57 59 61 64 67
62 53 63 66 65 60 58 56 55 52 49 51 49 49 51 54 54 53 57 55 63 69 74 76 71 69 68 65 58 44 20 11 7 5 18 28 34 36 38 43 48 52 54 57 59 61 65
60 53 59 65 63 56 58 54 53 50 47 46 46 49 48 51 50 50 53 54 59 66 71 74 72 65 66 61 60 51 30 11 6 7 12 21 32 35 39 41 45 50 52 55 58 62 64
60 55 57 63 61 57 56 51 51 49 44 42 44 47 45 48 45 46 49 50 55 61 66 72 71 67 64 63 59 55 39 20 8 8 12 16 25 34 39 42 44 47 50 52 54 57 61
59 54 56 59 57 53 49 47 48 45 39 38 41 43 43 46 43 43 47 45 51 57 63 69 72 70 65 63 58 52 45 29 13 9 12 15 23 25 32 41 46 49 53 55 56 57 62
54 51 53 57 52 49 45 45 45 41 36 36 40 42 40 43 40 40 43 42 47 53 60 67 73 74 67 64 58 51 47 39 23 10 13 16 20 26 29 33 40 49 52 55 58 64 62
55 55 54 50 51 46 43 40 42 38 37 36 37 39 38 40 37 38 43 38 46 50 57 64 69 75 79 66 59 56 49 44 34 19 12 15 19 23 28 35 38 40 49 52 56 60 61
56 53 51 47 45 44 42 43 41 37 35 35 34 37 38 37 36 37 39 37 43 47 53 59 64 73 80 74 63 60 53 46 42 30 18 15 17 21 25 30 37 40 43 46 51 55 58
57 55 52 51 46 44 43 41 39 38 34 34 34 32 35 35 33 36 35 35 40 45 49 56 61 69 74 81 71 64 55 50 43 34 23 17 18 19 23 25 28 34 36 41 47 49 53
55 51 50 48 47 44 42 40 41 38 35 34 33 32 33 34 33 35 32 33 38 44 48 54 57 63 71 78 75 68 61 54 53 43 31 21 18 20 22 23 27 29 28 30 35 40 46
58 52 52 50 46 44 41 40 41 39 36 35 32 32 31 33 32 32 30 33 37 44 49 55 58 62 65 74 83 73 61 59 55 49 38 27 22 20 22 22 25 30 27 28 30 31 37
58 53 51 49 45 41 40 41 39 38 36 35 31 30 31 30 31 30 29 32 37 42 46 52 55 58 63 68 72 80 74 65 61 48 47 35 25 20 19 22 25 27 27 27 27 30 33
58 52 51 48 45 41 41 39 38 37 36 34 30 30 29 28 30 27 28 31 37 42 46 50 56 60 64 66 71 74 81 77 72 59 45 44 36 26 20 21 24 25 28 29 32 33 33
62 53 50 48 42 43 43 38 37 37 37 34 31 28 28 29 28 27 27 32 37 45 46 51 56 61 64 67 74 77 84 78 77 65 52 52 42 36 23 19 23 25 27 31 34 33 33

GFSGBSN_250_spd_078.txt.gz
Wind_Speed
66 69 68 76 81 82 80 82 89 88 89 79 81 81 84 84 86 90 92 94 94 86 79 83 83 85 74 58 42 36 33 35 39 43 52 63 69 74 75 81 84 91 103 107 104 105 105
68 71 78 79 82 82 81 89 84 78 86 79 81 78 83 84 86 91 94 94 97 87 79 85 85 87 74 61 45 37 31 32 36 41 50 62 70 72 78 82 84 94 101 105 105 108 103
76 82 82 85 84 86 90 95 87 85 85 76 78 77 83 84 86 91 92 95 98 89 80 84 87 86 77 63 48 39 31 29 32 38 48 64 68 69 74 80 84 92 98 103 109 101 101
84 92 89 92 93 94 94 90 87 83 77 76 75 78 82 84 87 91 92 94 95 92 80 85 88 88 80 64 50 41 30 24 29 36 47 58 66 73 76 80 86 91 95 104 106 104 102
97 94 95 92 93 93 90 90 87 79 71 75 73 76 81 83 86 90 91 94 97 93 82 85 88 88 81 66 49 41 30 22 24 33 45 55 67 72 76 79 85 88 93 99 101 102 102
100 95 98 96 94 95 88 85 82 75 69 74 71 74 78 82 86 87 91 92 96 92 81 84 88 88 82 64 48 38 31 24 21 28 42 54 64 70 74 78 80 84 87 96 99 101 103
109 107 102 98 96 88 83 80 74 68 65 70 69 73 76 80 84 86 88 89 94 93 79 81 86 87 79 63 47 39 33 27 19 24 37 52 58 70 73 76 82 88 92 97 99 99 100
104 101 98 94 90 83 77 71 67 67 63 66 67 72 73 78 81 83 86 86 91 87 80 81 84 87 78 63 47 40 33 25 15 22 35 47 54 64 72 79 82 85 89 93 100 100 99
98 95 90 89 86 83 72 65 65 60 59 62 66 69 73 75 81 81 82 85 87 86 78 81 85 85 78 64 47 39 33 22 11 17 30 47 55 65 73 75 77 80 85 88 94 96 98
103 93 88 85 84 79 69 64 64 58 57 61 65 67 71 73 79 79 77 82 84 80 79 78 85 84 81 68 49 39 33 22 8 11 26 39 49 56 63 68 72 73 80 87 91 96 99
104 98 90 82 75 74 69 66 61 55 57 59 62 66 69 71 75 75 73 79 83 77 77 77 82 82 82 70 51 38 32 27 10 8 22 31 39 47 57 65 69 75 79 83 88 94 96
108 102 92 81 71 69 67 63 59 56 58 59 60 65 68 68 69 68 70 76 78 74 77 76 79 78 76 72 57 40 31 27 9 4 12 23 38 47 57 64 66 71 76 81 85 88 86
97 99 93 84 72 63 59 62 59 55 54 58 60 61 65 66 66 64 67 72 74 70 73 73 78 75 71 71 59 44 33 26 12 6 9 16 30 45 55 62 64 68 73 77 81 80 78
81 93 94 85 75 58 51 56 58 54 54 56 57 59 63 63 62 59 62 67 70 66 72 74 75 72 68 66 60 47 35 26 16 8 7 16 25 33 47 54 58 63 67 74 74 75 75
72 79 89 86 76 60 52 53 54 55 54 55 55 56 57 58 57 55 58 62 66 62 69 76 74 73 69 62 60 48 38 25 18 7 7 15 23 33 42 49 56 61 63 65 69 72 74
68 72 79 83 73 57 49 52 52 52 52 54 53 54 55 55 52 51 54 59 61 59 68 72 75 72 65 59 55 52 42 29 18 11 0 17 27 36 42 47 51 56 59 61 63 67 70
63 68 72 77 68 54 50 51 52 49 51 51 51 54 50 51 48 46 50 54 55 56 63 69 69 71 66 59 53 49 43 33 20 11 5 9 21 28 34 42 47 51 52 54 58 62 67
68 70 71 72 62 55 48 52 51 49 48 46 48 49 48 47 43 40 46 50 51 51 60 67 66 67 64 60 54 47 43 35 27 14 8 8 17 24 32 37 42 45 49 54 55 59 62
69 67 69 69 61 55 49 49 49 47 46 42 46 45 44 42 38 36 42 47 49 48 55 60 64 61 62 60 55 51 46 39 29 19 13 9 12 20 28 32 41 44 47 51 54 56 58
68 70 67 64 61 56 51 47 45 46 42 41 41 40 42 39 33 34 39 44 44 43 51 56 61 62 61 59 55 54 50 45 31 23 16 13 13 14 20 28 34 42 47 49 51 54 59
72 68 67 62 60 57 50 47 45 44 40 35 34 36 37 36 30 32 35 41 39 39 47 51 57 62 64 59 55 56 52 44 39 28 19 14 15 17 21 22 25 34 43 47 50 58 55
71 66 65 62 58 50 50 47 43 41 38 31 33 33 34 32 27 30 33 38 37 35 42 49 52 58 64 65 60 59 54 48 41 35 22 17 18 18 21 24 26 25 31 41 52 52 55
71 69 66 60 54 53 51 43 41 39 34 27 31 31 32 28 25 29 32 35 35 32 39 45 50 54 63 67 63 63 57 55 45 38 33 20 15 21 22 24 25 31 30 34 36 41 55
75 71 68 60 54 51 47 42 40 36 33 31 32 30 29 26 25 27 29 33 33 32 35 42 47 50 59 64 70 65 63 56 47 40 39 34 22 14 22 25 26 32 32 35 38 41 43
73 67 63 57 53 50 45 42 41 39 33 34 31 30 28 25 25 26 27 30 29 31 33 40 45 49 53 59 69 76 66 57 52 46 39 35 29 23 17 21 27 30 33 32 37 38 41
75 70 65 57 51 50 45 44 41 37 37 34 31 29 28 25 23 24 25 28 28 29 34 36 43 47 49 55 64 69 69 61 54 53 42 41 35 26 21 18 21 28 33 31 33 32 43
73 66 61 57 54 50 45 42 39 37 36 34 31 29 28 23 23 23 23 26 28 29 34 35 40 46 50 54 61 66 68 63 63 56 51 47 31 33 24 18 20 25 27 31 30 34 43
73 68 63 58 55 49 46 44 39 38 36 33 32 30 25 23 23 22 22 25 26 27 32 37 40 45 50 55 56 63 70 77 68 67 59 54 51 37 28 19 18 20 24 27 31 36 39
75 70 63 59 55 52 47 41 39 36 36 31 31 28 24 23 22 21 22 23 24 27 31 36 42 45 47 51 56 59 67 73 77 72 61 59 53 47 41 32 25 23 23 25 30 35 37

GFSGBSN_250_spd_081.txt.gz
Wind_Speed
74 75 75 76 79 77 73 73 82 87 91 93 95 96 98 91 81 83 85 91 93 93 91 84 77 75 79 74 67 54 41 38 35 35 35 39 53 56 62 74 81 91 96 101 102 105 104
80 79 81 82 85 87 85 89 87 87 88 94 95 98 94 84 79 82 84 92 93 93 91 83 77 76 79 73 69 60 43 39 34 32 31 34 54 59 68 74 79 87 96 101 102 104 103
94 97 97 95 93 96 91 88 88 92 90 96 95 94 90 80 78 80 82 90 92 93 91 81 76 77 79 75 72 61 46 40 34 29 29 36 50 60 64 72 82 90 97 101 105 105 112
108 107 100 102 100 100 99 92 86 89 89 93 92 89 79 75 75 78 83 89 92 94 89 82 74 80 80 77 74 61 45 37 29 25 29 37 49 60 69 74 81 87 90 100 104 108 111
114 112 109 109 106 106 102 97 90 90 91 88 87 80 75 72 71 76 81 87 91 93 90 80 75 81 81 79 78 60 45 34 23 20 26 37 51 61 71 74 81 87 91 95 102 106 107
120 117 116 110 106 106 101 95 95 85 89 86 79 76 71 68 70 74 80 85 90 91 90 78 74 80 78 82 76 57 44 32 20 14 22 34 44 58 67 74 81 85 87 95 101 102 107
117 111 110 107 106 95 93 88 81 85 84 78 71 71 67 65 68 73 78 84 90 90 89 78 72 77 77 80 75 55 40 31 22 13 19 29 41 59 70 75 78 80 87 89 93 97 100
117 112 112 108 102 96 90 88 80 78 75 71 67 67 65 61 64 71 77 82 87 88 88 77 71 77 75 80 72 53 38 30 20 10 15 30 45 58 69 74 75 79 82 84 92 95 98
112 115 108 105 102 95 88 80 77 77 72 65 65 62 63 58 64 69 75 81 84 85 86 75 71 75 78 78 70 51 36 29 20 8 13 28 40 54 66 70 75 76 78 81 84 93 91
84 89 97 99 97 97 92 81 76 72 66 64 60 58 58 57 62 66 73 77 80 81 85 73 72 75 77 76 70 53 36 27 20 9 7 19 36 52 60 66 71 75 78 80 83 88 89
82 80 78 84 88 87 87 85 78 69 61 56 57 58 54 54 59 64 70 75 76 77 82 70 70 73 75 75 67 54 35 24 21 12 3 18 33 47 58 63 66 71 72 72 79 87 86
78 76 75 69 77 81 81 81 78 69 58 52 53 52 52 53 57 62 67 70 72 72 77 68 69 74 74 73 67 53 35 24 21 12 3 14 28 39 48 59 63 65 67 71 76 81 82
68 75 73 57 62 71 74 76 78 69 57 48 49 49 48 52 53 58 64 66 67 67 70 64 65 74 73 71 68 57 43 27 22 13 8 12 21 34 44 55 59 62 64 70 75 77 79
59 57 63 56 53 59 65 69 71 71 57 41 45 45 48 49 53 57 60 60 61 65 65 61 62 69 69 68 67 58 49 34 24 18 9 13 19 30 37 47 57 61 65 70 75 72 74
61 59 56 59 54 58 62 65 68 68 53 40 42 44 42 44 49 53 55 56 56 62 60 62 60 64 65 67 66 60 49 39 25 19 9 9 15 26 34 42 52 57 59 66 66 71 73
60 64 61 63 52 54 57 60 65 61 48 40 41 41 39 44 46 48 49 50 52 57 56 59 59 62 63 64 63 61 52 41 29 20 14 6 17 23 29 41 50 55 57 61 64 67 69
56 64 67 67 56 56 56 60 60 55 48 40 41 38 35 39 42 43 43 44 48 51 50 59 60 60 63 63 63 62 54 45 35 23 15 9 5 19 29 35 41 46 51 55 59 64 66
60 65 72 67 58 57 57 61 58 50 46 43 42 37 35 37 37 38 36 40 43 45 45 53 60 58 63 63 59 60 56 47 38 28 19 11 5 6 19 28 36 41 45 48 53 58 61
68 70 75 68 62 57 60 58 53 45 44 42 39 35 32 32 33 31 32 35 39 41 39 47 57 60 60 62 57 58 54 50 43 33 23 13 7 5 9 20 30 38 41 44 48 50 54
73 73 71 65 63 62 61 58 52 44 44 41 37 32 29 27 28 27 29 31 34 38 36 43 53 58 58 60 58 58 55 47 43 37 29 19 10 7 9 13 22 31 40 43 46 48 56
78 77 72 68 66 66 63 56 47 45 42 40 35 29 26 24 22 23 26 26 31 34 33 39 44 54 56 56 60 58 54 50 41 40 34 26 19 9 11 12 15 19 29 38 46 50 51
76 74 74 71 71 66 63 53 49 43 41 38 33 27 24 23 21 21 23 24 27 30 30 36 41 49 54 57 58 55 52 52 44 40 37 30 22 17 10 12 17 21 23 27 35 43 52
73 75 74 76 74 68 61 54 49 45 41 33 32 27 24 22 18 20 22 22 25 27 27 32 35 44 50 54 58 58 53 51 49 43 37 33 27 20 17 14 16 21 22 25 29 33 37
75 78 81 78 75 68 57 54 48 45 37 32 31 27 23 20 16 19 21 20 22 26 25 32 33 40 47 49 54 58 55 52 46 45 45 38 27 25 18 16 18 20 23 26 30 29 32
78 82 80 79 70 62 57 51 47 42 36 32 32 27 23 19 17 19 20 20 19 22 23 29 33 37 44 49 53 55 56 51 48 45 41 38 31 29 21 15 17 20 22 26 31 30 34
84 82 80 77 69 62 57 53 47 42 38 37 34 29 24 20 18 18 18 18 18 20 21 26 31 34 39 46 49 54 57 56 55 49 41 43 37 33 31 25 19 20 23 25 29 32 38
84 82 79 75 70 62 56 50 43 41 39 38 34 29 25 21 18 19 16 16 17 20 20 25 28 34 40 43 46 52 56 57 56 53 51 49 45 42 36 27 26 25 21 19 24 33 39
90 89 84 76 69 65 57 50 48 44 41 38 34 29 25 20 19 18 14 15 15 20 18 23 26 33 38 40 42 47 53 56 57 60 53 49 47 50 43 36 31 26 26 23 22 26 33
86 83 79 73 66 57 56 53 48 45 43 37 34 30 24 24 22 16 13 14 16 19 17 22 26 30 34 39 42 43 49 53 56 60 63 64 57 56 58 53 39 34 30 26 25 28 30

GFSGBSN_250_spd_084.txt.gz
Wind_Speed
82 83 84 83 74 73 76 75 77 81 86 89 89 93 95 92 96 95 95 93 91 90 83 82 78 73 70 68 70 69 66 59 46 38 31 30 33 42 49 56 64 71 79 89 96 102 103
94 92 90 86 86 84 92 92 86 90 92 93 93 95 95 96 94 94 91 91 88 87 82 81 76 72 69 70 74 74 67 53 41 36 32 29 32 42 52 58 65 72 80 89 94 100 102
115 113 98 100 99 97 100 99 101 97 99 96 98 98 94 95 95 86 87 82 84 85 82 81 76 71 70 73 74 70 65 49 38 34 31 27 32 42 53 60 69 78 85 92 99 100 103
120 115 116 114 118 115 108 105 105 103 103 99 100 98 95 97 85 81 79 78 81 82 80 79 74 71 69 75 74 71 62 51 36 34 30 28 33 44 56 61 69 78 84 93 100 102 101
111 115 119 121 120 119 115 111 108 103 104 104 98 96 94 84 79 80 76 76 79 80 79 77 72 69 67 75 75 69 63 51 36 34 28 28 32 44 54 67 73 79 85 93 100 96 106
101 97 106 111 119 120 118 116 114 107 101 101 92 86 85 77 78 75 72 71 76 75 78 76 69 68 66 73 72 70 62 48 36 29 24 27 30 43 56 68 72 76 80 87 91 95 100
80 92 87 91 108 106 104 107 106 103 97 90 80 80 75 72 69 67 66 68 73 74 78 74 69 68 67 71 70 72 59 45 36 26 20 23 30 43 54 66 70 72 76 85 92 91 94
81 79 86 86 86 84 97 103 100 99 92 85 74 69 66 65 62 62 62 66 68 73 79 72 68 65 67 72 71 68 57 41 33 24 18 18 29 40 53 65 70 71 77 84 91 90 91
83 80 75 74 76 81 81 84 86 83 82 80 72 68 66 61 57 57 57 62 65 72 77 68 67 61 69 70 69 68 54 37 30 21 12 16 27 37 50 63 71 73 78 81 83 88 92
83 80 76 74 71 73 72 68 74 75 74 75 69 64 61 58 53 51 53 56 62 71 75 67 65 62 68 66 68 63 51 35 27 18 6 7 24 39 51 62 69 74 77 82 87 87 90
79 74 74 73 73 69 67 53 62 66 65 64 62 58 55 50 49 46 48 51 60 69 73 65 64 59 64 62 65 60 49 33 25 16 4 12 21 33 46 58 66 72 74 78 80 86 88
83 66 62 66 67 65 64 53 53 59 57 59 57 54 48 43 44 42 44 49 58 65 72 66 61 57 60 61 62 57 48 31 24 15 5 10 22 32 42 51 62 68 72 76 76 81 84
74 66 63 63 61 56 55 54 52 55 54 56 54 47 38 37 38 37 40 45 53 60 65 63 56 57 59 61 63 57 46 31 21 16 8 8 17 28 39 45 55 59 64 68 73 76 79
60 58 59 63 64 59 56 56 57 52 53 54 49 40 34 34 33 32 36 41 51 56 60 60 54 55 60 62 61 57 46 35 22 17 11 9 15 23 34 41 49 54 54 61 66 67 69
45 48 57 64 69 66 53 57 62 55 53 51 45 37 35 33 31 29 32 41 46 49 53 59 52 52 59 60 59 57 51 41 27 19 14 10 14 22 30 37 44 51 53 56 59 63 67
38 39 43 62 68 66 64 59 67 56 55 49 43 37 34 32 25 26 31 37 42 43 47 54 47 49 55 59 58 59 54 47 36 22 14 10 13 22 28 35 41 44 49 54 55 58 61
27 27 34 48 65 70 66 68 66 58 53 50 40 39 30 28 20 23 28 34 36 38 43 47 48 47 51 56 57 58 52 48 41 29 16 11 5 13 26 36 43 46 51 53 56 55 56
20 24 33 39 56 67 70 68 62 58 55 47 42 39 29 23 19 22 26 30 31 32 36 41 42 45 50 53 58 58 56 50 45 34 24 12 7 4 12 28 37 42 48 50 53 53 53
17 22 31 40 61 66 69 64 62 60 55 48 46 37 28 23 19 21 23 26 26 27 30 33 42 42 47 51 57 56 55 53 50 40 30 21 8 3 4 8 24 33 39 44 47 50 52
21 30 39 59 70 69 69 68 66 60 54 50 44 36 28 23 20 18 19 22 22 25 26 28 38 40 45 50 53 57 52 51 52 44 36 26 15 4 3 9 14 23 32 36 42 46 49
31 37 49 64 69 67 65 65 64 60 57 52 42 34 28 24 19 15 16 19 20 22 21 27 30 41 44 48 53 57 55 53 50 47 40 32 24 15 3 5 10 15 19 27 37 41 45
37 53 63 71 73 68 71 67 65 61 58 49 41 35 29 23 19 14 14 17 17 20 19 23 26 35 43 47 51 54 56 51 47 49 45 39 32 24 11 5 8 13 17 21 26 32 43
46 51 67 74 71 73 75 71 65 61 55 47 41 34 29 24 17 14 14 13 15 18 17 20 29 29 37 45 48 53 52 53 53 49 45 42 40 33 22 12 9 10 16 20 24 26 30
52 61 69 73 72 77 74 71 67 61 53 48 41 36 31 25 19 14 13 10 14 16 15 17 25 28 33 38 46 49 50 51 51 50 49 46 43 37 33 25 18 14 13 15 22 26 31
57 63 71 72 76 73 72 68 65 61 52 45 42 36 30 23 19 15 11 10 12 14 14 16 22 27 31 37 41 46 51 51 49 48 46 47 46 40 34 29 26 23 16 14 14 21 28
62 69 71 74 77 73 69 68 63 55 50 44 40 36 29 24 20 14 11 9 11 12 12 13 20 26 29 35 39 42 46 48 50 49 47 49 49 46 40 34 28 25 23 20 18 19 22
66 73 72 78 78 72 69 66 58 53 49 44 39 34 30 26 20 15 12 9 10 11 10 12 17 23 27 32 37 44 45 46 48 46 47 48 48 48 44 40 41 34 29 24 23 24 24
65 69 73 79 78 74 69 64 59 54 49 43 40 34 31 26 22 16 13 9 8 10 9 9 15 19 26 31 36 42 46 50 49 51 50 46 48 48 49 48 50 49 36 27 24 24 25
63 60 78 78 75 72 68 61 58 53 50 46 41 36 31 27 22 18 13 10 8 9 10 8 12 19 21 28 33 38 44 46 52 54 54 57 54 54 50 50 48 46 48 41 33 31 29

GFSGBSN_250_spd_087.txt.gz
Wind_Speed
109 111 106 107 109 108 104 101 95 98 94 93 93 86 88 88 92 96 96 97 101 101 105 106 100 96 88 75 71 65 62 62 64 68 63 56 41 37 38 41 43 50 57 68 70 83 96
119 121 120 119 116 117 115 113 116 107 106 101 98 93 90 97 96 98 97 98 99 101 105 99 96 93 86 74 68 64 63 66 66 65 56 45 33 32 37 40 46 52 60 65 68 82 95
101 100 106 103 120 122 126 123 121 119 111 109 107 100 97 102 100 99 97 99 99 104 99 95 92 89 80 69 66 65 67 66 63 56 48 37 28 30 36 43 52 55 58 54 65 79 90
91 91 93 98 98 104 103 111 108 110 111 113 109 105 99 101 102 102 100 99 97 93 89 87 86 84 72 66 64 66 67 67 62 52 41 33 27 26 35 47 55 58 57 62 67 81 90
89 87 84 85 86 94 98 99 102 103 101 100 110 107 108 104 106 103 101 97 87 82 80 82 84 80 66 63 64 69 66 67 60 48 36 31 26 24 36 49 57 60 59 63 68 76 81
91 95 96 91 86 83 89 86 82 87 94 92 91 94 95 95 94 92 93 88 85 74 77 78 80 77 60 60 64 68 67 64 60 44 34 29 24 24 38 48 53 53 61 62 72 75 85
95 99 95 94 83 77 81 83 82 77 80 84 83 90 85 86 85 82 79 76 72 69 73 76 78 70 58 55 63 65 66 61 57 41 33 27 22 26 36 46 55 65 71 71 77 85 84
98 98 95 93 91 78 71 75 81 80 78 73 63 74 74 73 70 70 68 68 66 67 69 74 73 61 57 57 63 65 65 58 50 38 31 24 19 26 36 45 57 63 63 66 79 85 89
104 104 99 93 91 86 68 63 71 78 74 70 58 65 65 62 57 58 57 61 60 59 64 70 68 55 55 58 64 63 62 55 43 34 27 22 16 25 36 44 56 60 63 68 72 83 88
107 105 98 97 87 77 70 61 58 73 71 64 55 55 51 50 47 47 50 51 49 53 61 64 61 50 52 57 62 61 59 48 36 30 22 16 13 25 35 43 54 60 62 66 75 80 84
101 99 95 87 75 68 67 58 59 62 66 55 52 54 47 43 40 42 42 42 43 50 56 58 54 48 50 56 57 60 53 43 33 25 18 9 13 25 35 45 52 60 63 67 72 77 79
95 83 77 72 66 59 54 56 65 53 60 51 54 50 43 40 35 37 34 33 39 44 50 53 48 45 49 56 55 55 50 42 28 22 15 5 12 24 31 36 49 60 62 65 70 73 76
82 70 64 57 54 48 43 51 64 61 56 51 53 47 42 37 35 31 28 29 35 39 49 48 46 40 46 55 53 52 46 37 25 19 14 3 9 21 30 40 47 54 62 66 68 72 73
71 61 51 48 44 42 36 51 61 61 55 55 50 45 42 35 33 26 25 22 29 34 46 45 46 35 45 51 49 50 44 37 27 21 17 7 6 14 23 33 47 53 60 66 68 66 64
61 52 45 40 38 35 34 54 58 61 61 57 50 48 42 37 31 26 23 17 23 32 42 44 44 35 46 47 47 44 46 38 32 21 18 11 8 12 21 27 31 45 50 55 61 59 59
55 45 36 32 31 30 35 50 58 64 64 58 50 51 44 38 30 26 14 15 19 28 38 41 44 39 43 44 44 41 42 41 35 27 19 14 8 11 16 26 34 39 43 44 47 50 54
47 37 28 27 26 31 39 52 60 67 62 56 57 52 47 38 32 23 12 12 15 24 33 38 43 42 42 45 43 43 45 42 37 32 21 15 10 4 13 23 30 35 40 43 42 42 46
41 30 21 22 26 32 39 53 58 63 56 56 58 53 45 39 33 20 12 8 13 19 28 34 37 40 41 45 45 45 45 45 42 35 28 16 9 5 2 9 23 32 39 44 44 43 43
34 22 17 20 25 37 52 60 63 59 57 62 60 52 44 39 28 22 13 6 9 14 22 27 32 36 45 46 46 46 46 48 46 41 35 25 14 7 3 1 9 16 30 35 39 43 46
29 17 14 19 28 41 58 66 62 57 62 65 58 49 44 37 30 22 12 6 4 11 18 21 28 35 42 48 47 51 47 50 49 43 38 31 20 11 3 2 8 14 19 25 32 37 40
21 9 11 23 40 52 71 68 61 68 69 66 56 50 44 38 30 21 13 7 1 8 13 16 27 33 38 45 50 56 52 53 51 47 44 38 31 18 11 2 5 10 15 20 24 25 32
15 4 13 31 49 59 61 68 70 73 72 66 58 52 43 38 31 22 14 8 3 5 9 15 23 30 35 41 46 52 55 53 56 52 51 49 42 33 23 12 3 7 13 17 20 25 32
12 2 15 31 48 59 62 67 70 77 70 64 59 51 43 36 28 22 15 9 5 4 7 13 21 25 34 40 42 47 51 51 54 56 53 54 49 42 33 24 17 11 6 11 16 22 25
6 6 14 38 51 59 72 77 77 72 66 61 56 50 43 35 29 22 16 10 7 4 5 10 17 20 30 33 39 44 47 49 50 52 53 52 54 52 46 38 34 24 18 13 12 16 22
3 10 23 49 60 71 75 77 75 69 65 60 54 47 41 34 28 21 15 10 7 4 3 8 14 21 23 29 36 41 44 47 50 49 49 48 49 49 47 46 41 43 36 27 19 16 15
11 18 35 52 60 72 75 71 68 66 59 56 52 46 40 33 26 21 15 10 7 4 3 6 13 19 22 28 30 36 42 45 46 52 47 53 52 51 46 46 42 42 45 41 38 32 26
23 28 55 61 61 73 71 68 64 60 55 55 50 45 39 32 25 20 15 10 6 3 3 4 11 16 19 24 30 34 38 43 46 47 51 50 53 56 54 50 49 47 40 42 45 40 35
37 43 49 54 59 69 68 65 61 57 53 49 47 41 37 30 26 20 15 10 6 3 3 2 8 14 17 24 28 32 35 41 43 47 49 50 50 52 52 57 57 54 49 51 46 48 46
41 47 52 57 63 70 66 62 60 55 51 47 44 41 36 31 24 19 15 11 8 4 2 2 4 10 15 18 25 28 33 37 41 44 48 50 52 55 57 56 59 64 60 52 52 51 47

GFSGBSN_250_spd_090.txt.gz
Wind_Speed
73 70 70 76 84 93 105 107 108 112 117 117 113 113 110 108 109 103 101 98 98 95 96 101 98 101 103 105 103 102 82 77 70 64 69 72 72 68 67 62 51 45 47 51 53 58 72
82 81 81 81 74 66 69 79 84 93 97 108 112 116 116 116 116 110 104 102 102 101 104 101 102 103 106 101 99 94 87 76 64 65 69 71 65 64 56 49 41 46 48 53 55 62 69
81 80 80 83 82 78 79 70 70 77 82 86 88 97 98 99 108 117 108 109 110 106 103 102 104 104 104 98 87 86 83 73 63 63 69 65 60 53 42 38 42 47 52 56 55 65 77
85 87 88 86 82 83 79 76 74 71 72 75 77 80 85 87 87 94 94 90 89 93 97 101 100 101 94 89 83 81 74 67 64 64 64 60 53 42 36 37 42 48 53 56 59 66 79
85 88 89 88 91 88 82 84 80 73 66 70 69 69 75 76 71 84 83 82 80 82 85 88 86 88 84 81 79 78 70 66 64 65 61 53 42 33 32 33 38 48 54 56 56 62 77
91 92 94 93 92 91 86 78 80 77 62 61 63 61 68 67 61 76 77 74 74 73 74 75 78 79 77 76 75 69 65 64 65 63 59 45 34 30 28 27 34 45 52 56 56 61 74
93 94 96 96 94 91 88 80 70 71 65 56 58 55 56 57 57 65 67 61 66 65 70 71 70 73 74 71 70 63 61 62 65 57 56 39 31 27 23 29 37 47 56 56 56 59 76
101 101 99 96 95 87 84 80 71 60 60 56 51 50 49 50 47 58 55 53 55 58 58 59 65 69 66 63 61 58 57 59 61 55 49 33 28 24 23 32 39 46 53 56 59 58 62
108 106 104 100 90 84 79 73 70 63 58 51 47 48 44 48 50 51 42 43 45 45 46 50 58 60 58 56 52 52 54 56 54 50 39 29 24 21 25 32 39 47 55 59 56 62 66
112 109 104 97 87 77 72 64 59 57 53 51 43 44 39 42 51 42 36 34 38 36 38 47 54 51 52 47 47 50 51 53 50 44 31 26 21 18 26 32 38 47 54 54 54 62 70
114 103 95 86 79 74 66 52 45 48 48 48 49 43 39 49 44 35 29 29 27 28 35 44 46 44 45 42 45 48 50 51 45 36 27 22 17 14 24 33 38 45 48 53 56 61 65
105 94 86 78 68 61 58 44 33 38 40 42 54 45 42 48 40 31 27 24 18 28 36 41 37 41 37 40 43 47 48 46 40 28 20 16 11 12 21 32 38 44 47 50 58 65 68
98 89 77 68 57 51 47 34 27 36 33 47 54 45 50 45 38 32 26 18 19 28 36 35 31 35 32 36 40 42 43 39 32 22 15 11 6 6 17 25 35 38 42 50 56 60 64
99 83 70 58 48 42 36 24 26 31 36 46 49 53 50 46 39 34 24 18 20 28 31 28 29 27 29 35 39 38 40 35 28 18 14 9 3 4 15 23 32 39 43 50 53 53 54
90 76 63 50 40 34 26 21 23 28 44 40 51 52 51 49 42 35 25 20 18 23 29 23 21 25 32 38 40 39 40 33 27 19 14 11 5 8 14 20 28 40 45 50 52 54 57
84 69 57 42 34 27 20 16 23 33 36 44 47 54 54 51 45 36 26 19 13 17 19 24 18 27 32 38 39 36 36 31 26 24 18 16 10 9 12 13 21 27 35 45 49 54 55
74 62 50 36 28 20 12 17 29 26 39 44 51 53 54 51 45 35 27 18 9 11 15 19 18 25 33 37 36 36 34 35 33 29 25 21 16 11 13 18 16 20 28 35 43 42 40
67 56 43 29 20 11 12 20 23 31 37 51 55 51 57 54 45 35 26 16 4 6 13 19 22 23 33 37 35 34 34 38 37 35 31 27 19 15 12 13 18 21 21 25 30 32 32
61 45 31 19 10 7 15 22 28 41 47 59 55 55 59 53 46 37 26 15 6 8 14 20 25 26 32 38 37 37 39 40 40 39 37 31 28 20 14 10 7 17 22 27 28 28 29
49 33 22 12 4 10 18 29 40 46 55 53 59 63 57 52 43 35 25 16 11 11 15 20 26 28 35 40 39 38 42 47 45 47 43 36 32 27 21 13 9 5 11 17 19 21 24
41 28 15 6 3 11 27 46 56 57 57 61 66 64 59 49 42 33 24 19 15 16 17 18 23 31 37 41 43 44 48 47 52 52 51 45 41 37 31 25 17 8 5 9 12 16 19
36 22 11 4 11 19 36 50 59 62 60 70 66 62 54 48 41 32 24 21 18 19 19 18 22 30 37 44 48 50 53 53 53 54 56 55 50 44 37 33 28 22 15 6 4 12 17
30 19 13 9 16 28 40 50 56 65 67 68 64 58 52 46 38 29 24 22 21 21 18 15 21 26 35 43 47 50 53 54 52 53 58 57 54 50 44 41 38 31 23 17 12 9 8
26 29 28 4 24 33 46 52 57 58 67 66 63 57 50 44 35 29 25 21 22 21 16 17 19 26 34 36 43 46 51 50 53 54 53 50 53 53 53 49 47 40 38 30 22 17 13
30 29 22 7 28 33 45 56 58 64 65 62 59 54 49 41 34 28 25 21 22 22 15 15 19 24 28 33 37 41 45 45 48 50 51 51 52 51 48 48 48 51 49 46 39 35 31
27 20 7 28 32 51 61 63 63 63 60 56 52 50 47 39 32 28 24 20 21 20 17 12 17 21 25 30 32 36 39 43 43 43 45 47 47 49 50 46 44 48 49 44 45 48 45
15 16 31 33 41 50 51 62 64 61 57 53 49 45 42 36 30 27 23 18 18 19 17 13 13 18 21 26 31 34 37 37 40 42 44 42 43 47 47 46 47 47 47 47 49 46 43
14 31 41 42 45 52 58 63 59 57 54 49 45 42 38 33 29 26 22 18 15 15 15 13 12 13 17 20 25 29 33 36 38 39 43 45 46 47 47 48 47 50 52 51 55 52 50
20 30 44 40 48 55 59 57 58 54 48 44 43 39 35 31 27 23 20 16 13 12 12 11 10 11 13 16 21 24 28 33 36 39 41 43 46 48 49 52 51 52 54 56 57 59 58

GFSGBSN_250_spd_093.txt.gz
Wind_Speed
63 67 70 70 70 70 70 71 68 65 65 66 72 80 84 95 100 103 105 106 105 106 105 102 101 100 100 105 104 97 89 81 70 70 66 70 69 66 64 65 66 69 70 71 72 74 76
71 74 75 79 79 78 76 77 73 76 65 63 65 73 74 79 81 87 94 94 89 101 99 97 98 99 96 96 93 89 77 69 70 69 62 68 69 62 66 69 69 70 69 70 68 63 65
76 79 80 82 85 88 84 80 79 76 73 66 65 67 63 71 73 78 82 82 83 88 88 89 88 83 84 89 81 79 70 66 66 65 64 63 62 67 69 71 71 68 64 58 52 52 54
76 80 84 87 88 90 91 90 81 76 76 66 66 63 66 67 66 73 74 76 73 75 75 73 68 70 74 72 71 66 65 67 66 65 59 57 61 66 68 68 63 57 49 44 45 48 52
78 85 91 91 93 94 95 94 84 72 68 67 64 62 63 63 63 63 67 64 68 66 62 59 60 66 65 66 65 60 62 65 67 62 58 60 61 64 60 55 49 42 40 41 44 46 51
87 94 95 96 98 98 98 87 77 71 67 60 62 61 59 63 61 58 61 55 59 56 53 54 60 59 59 61 58 56 57 60 63 58 60 60 63 58 51 43 41 38 35 40 44 49 52
101 100 98 101 101 100 92 80 74 71 67 65 56 58 58 59 57 55 51 49 53 46 46 54 54 52 56 48 52 52 51 57 55 57 61 60 58 52 42 38 35 32 36 41 47 51 60
107 111 111 108 103 97 89 82 76 70 67 66 54 54 55 56 52 50 42 46 42 39 41 45 45 46 43 44 43 44 50 50 53 58 62 57 52 43 38 31 28 28 35 41 47 53 57
117 116 116 109 99 92 85 79 69 64 60 59 52 47 48 52 49 43 40 38 36 35 33 37 40 38 34 35 38 43 45 48 53 55 56 51 43 36 32 25 23 28 36 42 50 54 61
118 118 114 106 100 93 80 68 60 53 50 49 45 39 42 50 44 42 40 35 33 32 31 32 31 29 26 31 38 41 42 49 49 51 47 41 33 27 24 18 22 29 34 39 46 53 62
124 119 107 100 94 78 68 64 51 41 39 38 36 32 40 48 43 41 39 34 30 28 25 24 23 18 23 33 35 39 43 44 45 46 39 31 24 21 16 14 20 26 28 35 41 50 62
125 113 102 92 77 66 59 54 43 33 30 32 25 32 44 46 44 41 38 30 25 26 19 20 11 17 25 30 33 37 39 39 41 38 30 22 17 14 9 11 19 25 29 34 41 52 54
121 110 97 82 68 57 52 42 32 25 27 20 26 36 42 45 46 43 35 29 26 18 16 5 13 19 23 28 30 32 32 36 33 28 20 14 10 4 7 12 18 23 28 33 40 46 50
117 104 89 72 59 49 42 32 23 18 16 21 32 36 47 45 46 41 37 31 21 16 7 9 15 16 21 25 26 27 31 29 25 20 13 8 3 2 6 11 18 27 29 32 39 45 47
112 95 77 63 50 42 31 18 10 8 16 27 32 42 47 44 47 44 39 29 21 12 10 13 13 13 18 19 24 28 28 25 19 14 9 6 6 4 9 12 16 19 22 30 39 42 43
103 84 68 56 43 32 18 6 6 11 19 28 42 40 50 48 50 46 35 27 17 16 14 12 11 15 16 21 26 24 23 19 16 14 12 14 10 11 12 15 17 19 23 28 35 36 39
92 72 61 46 34 20 8 0 5 9 21 37 45 48 48 54 51 44 33 24 21 18 16 16 18 19 21 25 26 23 22 20 20 20 18 20 17 13 13 13 13 18 20 27 33 38 38
83 66 51 35 25 11 6 9 13 20 32 41 48 55 57 56 50 41 32 27 20 19 20 23 25 25 27 27 29 24 25 24 27 26 26 24 25 21 15 13 15 13 12 17 19 24 31
75 57 39 26 17 11 10 17 26 32 38 42 57 61 59 55 49 40 32 28 22 22 24 27 31 32 30 31 30 29 33 37 37 32 32 30 28 26 24 19 15 14 14 13 16 9 13
64 46 30 25 17 12 19 27 37 41 43 52 54 62 60 54 46 38 33 26 25 28 29 30 33 38 37 37 35 37 40 44 46 43 41 37 34 32 28 25 21 17 14 9 10 9 9
51 35 32 27 17 17 23 37 44 46 58 62 58 61 59 55 45 38 33 27 28 31 33 34 36 41 45 47 44 43 49 51 51 53 50 45 42 40 36 31 26 24 19 13 10 9 9
35 34 42 23 26 24 25 36 49 60 64 66 65 58 58 51 43 39 34 28 31 32 33 38 41 46 48 50 50 50 56 60 60 61 59 54 49 50 48 40 35 31 27 22 16 10 2
39 45 48 31 25 22 29 34 48 55 59 64 64 59 52 47 43 38 34 30 32 34 34 38 41 45 47 49 49 54 58 59 60 60 60 58 55 51 54 54 47 41 36 30 25 20 15
44 46 47 30 23 21 19 27 49 55 58 60 60 56 51 46 42 37 33 29 32 35 34 36 40 42 45 46 50 55 55 56 55 57 56 55 53 52 55 55 54 48 48 42 38 35 30
50 26 24 19 13 10 16 38 50 57 58 57 56 54 49 45 41 34 32 31 31 32 32 36 39 40 42 45 49 52 52 52 52 52 51 52 51 53 52 52 49 45 45 44 40 40 37
45 17 4 7 4 6 23 45 55 54 52 51 47 46 43 42 38 34 31 30 30 29 29 33 34 35 39 41 43 47 48 49 48 48 49 47 46 47 47 46 47 47 44 43 42 43 41
36 14 15 14 14 28 42 48 53 53 50 47 45 42 39 36 34 32 29 27 27 28 27 29 29 30 32 35 37 40 42 43 44 43 45 46 47 45 44 46 47 46 47 44 44 44 43
29 13 10 25 30 44 47 51 51 48 45 42 41 38 35 32 30 30 28 25 24 24 27 24 23 24 25 28 31 33 35 36 37 37 39 41 42 43 43 45 44 44 45 47 48 45 43
27 9 19 25 32 49 49 48 49 45 41 38 37 35 33 29 26 27 25 23 21 21 21 21 20 19 20 22 24 26 28 29 32 33 35 36 37 39 39 42 42 44 48 47 50 49 42

GFSGBSN_250_spd_096.txt.gz
Wind_Speed
76 80 84 92 93 87 85 82 81 82 81 80 75 72 67 70 77 79 82 85 82 87 83 85 89 91 90 90 91 89 88 87 86 80 75 64 60 57 60 63 67 69 71 70 67 64 63
78 81 87 92 96 94 94 87 84 82 82 81 80 76 67 67 74 78 78 79 78 79 80 81 77 80 87 86 84 80 80 80 78 77 69 56 56 54 60 62 67 70 67 67 66 65 64
80 83 87 100 103 97 94 89 87 84 83 81 76 75 67 63 72 75 74 75 75 70 73 75 74 75 70 70 72 76 73 73 71 64 57 54 51 53 60 64 66 65 64 64 67 68 66
83 84 88 103 103 105 103 91 86 85 84 83 69 67 65 61 66 71 69 71 72 71 68 68 69 70 63 64 64 64 64 63 60 54 53 54 51 55 59 60 62 63 63 65 66 66 68
88 85 97 110 111 114 95 90 86 82 81 82 75 60 62 61 62 62 65 67 66 63 61 63 63 60 59 59 58 55 55 55 51 52 51 48 53 55 52 58 62 62 63 62 59 57 57
93 94 102 115 119 111 95 86 83 80 78 76 74 62 56 61 58 59 59 59 57 55 54 55 56 54 54 54 52 50 48 45 48 47 45 49 52 49 52 57 58 59 58 54 48 42 43
100 101 112 125 121 105 92 84 78 74 71 68 67 62 55 57 58 57 56 51 48 48 53 49 50 48 47 47 45 39 37 39 39 42 48 48 46 50 54 56 55 54 48 41 37 35 37
104 111 123 128 117 101 89 80 74 67 63 60 60 53 46 47 53 53 51 46 40 46 46 45 45 44 41 39 28 31 30 32 37 43 46 43 46 53 55 54 49 43 38 34 33 33 35
110 120 129 126 109 96 85 75 65 59 53 50 48 43 36 39 43 45 45 38 42 43 42 41 38 35 34 22 24 22 26 30 34 38 42 46 53 53 50 43 39 34 31 30 30 32 36
115 129 130 118 102 88 78 68 60 50 46 40 36 32 26 33 40 39 36 40 43 39 38 34 27 23 16 18 15 19 23 27 29 35 42 49 52 47 39 33 29 27 26 26 27 31 37
126 136 122 104 89 77 66 59 50 41 36 29 25 19 24 33 36 33 39 42 38 35 30 24 15 9 12 9 11 14 17 23 29 36 44 45 40 35 30 24 21 19 22 25 26 31 35
132 128 109 91 78 66 57 47 38 27 27 19 12 19 24 27 30 36 37 38 35 30 21 9 8 7 5 6 7 13 19 24 31 37 39 35 30 24 21 15 14 15 18 19 22 28 35
134 113 94 82 70 56 45 35 26 17 14 6 12 17 21 26 30 36 37 35 32 23 16 13 8 3 2 5 9 14 21 25 28 33 29 24 21 18 10 8 12 14 14 17 20 28 30
123 105 94 74 58 46 36 24 14 7 2 4 8 15 24 31 39 38 36 35 28 27 20 14 10 8 7 7 10 16 17 20 25 24 18 15 10 4 8 13 16 18 18 18 22 21 24
109 97 82 64 52 40 26 15 8 3 9 13 16 23 31 40 36 37 39 35 35 29 21 16 13 10 9 8 10 12 15 18 19 15 9 5 2 9 15 15 16 18 20 20 21 22 23
94 84 70 56 43 31 19 13 7 9 16 18 22 33 36 39 44 43 43 43 34 27 21 18 17 14 12 11 12 13 13 13 12 7 6 6 9 12 17 18 18 18 17 18 18 19 21
89 70 58 45 33 22 20 16 15 17 24 29 39 37 43 45 48 52 47 40 34 29 27 23 22 20 19 17 16 11 8 9 9 10 12 14 15 16 19 22 21 19 20 16 18 21 21
77 60 48 36 28 24 23 25 24 26 29 36 36 46 51 51 57 52 46 43 39 36 32 27 25 24 19 20 20 17 18 17 18 19 20 19 22 23 23 23 22 20 19 17 16 15 17
77 54 43 38 31 25 30 34 35 36 37 41 42 51 52 58 56 52 51 51 45 40 36 30 31 27 25 27 30 28 28 26 27 27 25 26 27 29 25 24 26 24 20 16 12 12 12
78 52 45 43 39 27 28 36 38 38 41 47 51 55 59 57 56 57 56 54 49 43 39 37 38 35 34 41 42 41 38 40 37 36 33 32 31 31 29 28 26 24 23 18 15 12 8
75 65 54 52 41 31 29 30 34 40 47 54 51 52 56 56 60 58 59 54 51 47 46 42 46 46 44 47 52 54 53 53 49 46 43 40 37 35 36 31 28 26 23 22 21 18 17
84 72 58 48 41 32 27 30 31 39 45 54 54 51 54 57 58 59 57 53 50 49 49 48 47 49 52 56 59 60 61 61 59 57 55 52 50 47 43 37 31 29 28 23 20 17 14
92 67 56 36 37 26 22 26 38 43 41 48 49 50 51 53 56 56 54 52 49 50 49 50 49 52 54 55 58 60 62 64 65 65 64 60 55 52 48 48 42 39 36 32 27 21 15
91 68 31 39 16 15 23 31 36 45 42 42 45 47 48 50 53 51 50 48 48 49 50 50 51 54 55 59 58 59 59 61 61 61 62 60 59 57 54 55 52 47 44 41 38 33 31
73 53 27 16 11 13 25 32 38 38 39 40 41 42 46 49 48 47 46 45 46 47 48 50 52 54 54 55 55 56 58 57 55 55 55 55 54 55 55 52 50 49 48 48 46 42 36
89 57 30 20 8 9 24 31 34 34 35 38 38 39 43 44 43 43 42 41 42 43 43 45 48 48 49 50 50 51 53 52 51 50 49 48 50 49 48 48 46 44 43 42 41 43 39
88 76 22 9 19 7 26 27 28 28 29 32 34 35 36 40 37 34 36 35 35 37 36 38 41 43 44 44 45 45 45 46 46 45 45 44 44 44 45 45 46 43 41 38 36 37 35
93 79 30 14 17 13 19 27 25 24 26 27 29 30 31 36 33 30 29 28 30 30 30 30 31 34 36 37 38 38 38 38 39 40 39 41 42 41 41 43 41 38 36 37 36 34 31
99 73 42 12 20 24 21 25 22 21 21 22 23 26 25 29 28 26 25 23 22 24 23 23 25 27 28 29 29 30 30 29 30 30 32 33 33 33 34 35 35 35 35 36 37 35 32

GFSGBSN_250_spd_099.txt.gz
Wind_Speed
66 69 72 74 76 74 78 78 85 94 95 92 89 85 84 82 80 77 76 77 79 82 84 80 81 78 76 76 80 79 84 85 87 87 86 87 85 83 82 82 77 74 73 72 72 71 73
75 78 79 85 87 85 82 82 93 102 105 97 90 87 86 86 82 79 73 69 74 80 82 79 77 76 70 72 74 71 76 78 79 83 84 85 82 79 79 78 76 72 73 74 73 69 70
83 84 85 88 90 91 89 90 100 106 106 104 95 89 84 81 77 75 71 64 67 73 75 77 72 70 65 63 68 72 73 70 72 76 77 76 76 73 71 67 69 70 68 72 75 70 64
90 95 95 97 98 98 92 100 108 111 109 102 98 91 83 75 70 73 68 62 64 66 67 68 64 65 61 61 63 67 65 63 63 62 64 65 68 65 60 58 63 65 69 71 73 71 68
96 104 104 104 102 97 104 110 113 110 104 91 86 84 82 70 67 69 66 61 62 61 60 61 58 60 56 58 61 53 52 53 56 55 58 57 56 57 54 55 58 63 68 68 68 65 64
101 114 116 110 109 111 117 117 105 94 85 78 73 70 73 64 61 63 61 58 59 56 56 55 55 54 53 54 51 51 48 49 49 49 47 49 49 51 51 53 58 60 61 61 63 65 67
105 123 122 116 120 120 110 97 88 78 69 62 59 58 58 55 54 55 56 53 55 53 52 51 49 49 50 47 46 42 41 41 39 41 45 44 47 49 47 51 53 54 58 61 64 64 64
115 130 126 122 119 108 94 89 76 66 58 52 49 46 46 45 46 46 45 46 52 47 46 47 44 47 43 41 36 31 31 33 38 39 39 42 43 44 46 49 53 57 57 57 59 58 53
127 132 128 111 99 86 86 71 60 54 49 45 40 38 36 37 36 36 39 43 42 39 40 39 41 38 33 28 24 24 29 31 32 34 36 40 38 43 47 52 53 52 52 50 49 44 41
138 130 110 96 90 82 63 55 48 44 38 35 30 25 26 29 30 33 36 33 34 34 36 34 31 26 22 19 22 24 25 26 28 30 35 36 39 43 46 48 49 44 41 40 36 35 34
133 115 103 93 85 67 50 43 39 33 28 24 19 17 19 22 26 27 29 29 29 31 27 22 21 21 17 19 20 20 20 22 25 28 34 36 37 40 45 43 39 33 31 30 29 30 28
122 106 98 75 73 54 43 36 31 23 18 12 9 8 12 15 19 22 25 28 26 24 23 20 19 18 19 19 18 16 17 21 24 26 30 32 35 38 36 35 30 25 23 21 22 21 23
110 101 85 73 60 47 37 30 26 19 11 3 3 7 12 15 21 24 24 29 31 27 26 24 20 20 19 16 13 14 13 16 20 26 28 25 27 28 26 24 21 16 18 19 19 19 21
97 89 74 63 51 42 35 27 22 14 9 12 16 18 19 22 27 36 38 37 36 33 29 26 23 19 16 13 7 6 11 17 21 21 19 19 18 19 19 19 17 18 18 18 18 17 20
87 77 67 56 46 36 32 29 26 23 26 31 37 35 38 44 44 40 43 42 39 37 31 26 21 16 12 7 4 6 10 14 15 14 12 12 13 14 14 15 14 16 18 18 21 18 17
85 75 63 55 45 38 39 39 39 43 49 52 52 47 43 46 51 48 46 44 41 35 29 24 18 13 10 6 4 3 5 7 8 7 8 5 6 11 14 15 16 19 23 23 19 19 16
77 77 75 65 58 49 48 51 52 53 52 52 51 53 54 53 51 50 47 42 37 32 29 24 20 16 13 9 6 5 4 2 2 1 2 5 10 14 20 21 22 22 22 23 20 20 17
80 91 86 76 72 63 55 54 54 53 54 54 53 54 53 52 51 48 45 40 37 33 29 25 22 19 17 16 12 10 7 9 10 10 10 11 14 19 21 25 25 26 25 25 21 20 22
103 100 96 77 66 60 54 47 50 52 51 52 53 55 54 54 54 50 46 43 39 36 33 30 26 25 23 20 18 16 18 17 18 20 18 18 20 24 25 26 27 29 29 29 26 25 25
107 96 78 77 54 52 45 41 43 48 47 48 53 56 56 57 56 54 51 47 42 39 37 36 36 31 29 28 27 28 27 27 24 27 25 22 26 27 28 28 29 33 32 29 24 24 22
110 87 80 61 62 44 35 34 38 40 48 50 49 55 56 59 57 58 55 52 49 46 45 45 41 38 40 40 40 42 41 37 36 35 32 30 31 30 27 27 27 30 32 31 29 27 26
115 84 62 60 51 36 30 29 34 40 42 47 49 54 55 58 60 58 57 55 53 52 51 49 48 47 50 49 51 56 52 49 47 45 45 44 41 39 37 31 25 24 24 25 26 26 26
110 81 48 50 43 30 26 24 28 30 33 43 48 51 53 55 56 57 57 56 54 53 52 54 56 56 58 58 60 62 60 60 58 57 56 54 51 49 48 41 34 29 25 20 17 15 14
106 76 47 45 40 35 22 20 20 20 29 35 42 45 48 53 53 54 54 53 52 53 54 52 54 57 58 59 60 61 63 62 61 60 60 58 57 57 55 49 43 41 40 38 32 26 24
103 101 69 37 37 28 24 16 16 17 20 28 33 40 44 49 50 50 50 50 50 50 51 53 53 56 56 55 56 58 59 58 58 57 56 58 56 54 52 52 51 49 43 43 43 40 37
101 98 76 48 37 34 28 18 17 18 16 21 24 30 35 42 45 45 45 45 47 46 46 48 50 50 51 51 51 52 54 54 53 54 53 51 50 49 47 47 46 44 42 40 38 38 37
98 91 90 52 33 30 28 13 17 18 15 15 19 22 26 32 38 38 39 39 40 41 40 41 42 43 44 45 46 47 47 48 47 47 47 45 44 44 43 41 40 40 37 35 35 33 33
97 92 92 73 35 21 17 14 14 15 15 13 12 13 16 21 27 30 30 31 31 32 33 33 33 34 35 35 36 38 39 39 38 38 38 37 38 37 37 35 34 33 31 29 25 22 23
95 92 89 89 54 20 17 14 15 13 12 12 11 9 8 11 14 19 21 22 23 24 24 23 24 24 26 26 27 28 29 30 29 29 30 29 29 28 28 28 28 28 26 25 26 24 26

GFSGBSN_250_spd_102.txt.gz
Wind_Speed
74 76 80 81 87 85 87 90 94 94 97 98 95 92 90 94 95 97 96 91 81 79 81 78 82 82 88 86 76 77 80 85 87 89 92 96 99 98 97 96 91 86 87 86 88 87 85
82 82 85 90 93 97 92 99 105 103 103 101 101 99 97 95 99 104 100 94 86 78 80 76 77 76 79 77 75 70 68 76 81 85 90 91 94 93 93 91 92 90 86 84 87 88 87
87 91 93 97 101 102 109 108 108 107 106 102 103 100 103 102 101 98 95 91 82 76 75 71 70 69 74 75 70 66 65 69 75 79 83 86 81 84 85 87 87 85 85 85 85 86 87
91 98 101 103 112 112 112 109 108 104 103 103 100 93 93 92 87 85 82 79 73 71 70 64 64 65 66 65 62 61 60 61 70 70 70 72 71 73 74 80 81 83 82 84 84 84 84
103 105 110 111 115 111 106 105 100 96 92 84 78 72 71 73 72 69 68 66 65 63 61 59 61 60 58 57 55 55 55 56 60 60 62 62 65 66 67 70 76 78 81 79 78 78 79
111 110 110 107 109 105 102 99 91 83 74 66 63 61 58 63 62 59 57 57 55 53 51 52 54 54 50 48 47 48 49 49 52 49 45 51 58 60 60 60 64 66 68 71 73 73 69
109 102 100 95 95 91 80 69 62 67 59 56 56 47 43 51 53 50 48 47 45 43 45 48 48 45 41 41 43 40 40 42 40 39 43 46 48 50 53 53 57 59 61 62 65 65 64
102 96 90 91 87 80 69 58 54 51 48 45 42 39 34 36 39 40 39 39 33 36 39 39 40 36 32 35 34 33 33 32 32 33 36 39 46 46 47 49 51 52 54 56 60 60 60
93 87 87 84 76 67 58 49 44 41 36 33 29 25 24 28 32 31 32 33 27 30 30 30 28 25 26 28 27 25 25 27 29 30 34 40 39 44 43 41 42 47 50 55 57 57 58
92 88 85 79 68 57 48 41 35 29 25 20 15 12 14 16 18 19 25 25 19 23 23 20 20 23 24 24 24 23 24 27 26 28 31 34 36 37 34 37 42 47 52 53 55 57 58
84 86 83 73 61 53 44 37 31 26 22 15 9 4 2 4 8 11 12 16 22 22 20 23 24 23 22 21 21 21 22 21 24 28 29 28 30 33 36 41 45 47 49 49 48 47 45
99 100 89 72 56 47 41 39 34 29 24 19 13 10 8 9 12 16 20 23 27 28 27 27 24 22 22 20 21 20 20 22 22 22 25 27 33 35 38 39 39 39 37 36 34 33 29
112 115 96 80 62 50 44 38 33 31 27 22 20 22 18 20 23 26 29 29 33 33 30 27 25 24 24 23 20 18 18 18 20 23 29 33 31 30 31 31 28 26 26 27 28 26 21
112 119 107 97 77 62 51 42 37 35 35 33 32 33 33 34 33 34 35 38 39 37 33 31 30 28 25 20 17 16 16 20 22 24 22 23 24 24 20 19 18 18 20 19 17 17 21
109 115 112 102 93 77 61 56 49 45 42 43 42 44 44 43 43 41 42 41 40 40 37 33 29 25 21 18 17 18 16 16 16 16 17 17 13 11 12 12 10 10 11 13 16 17 22
100 101 94 90 88 84 76 66 61 58 55 54 53 52 51 49 48 48 46 44 40 35 32 28 24 21 21 18 13 10 9 9 8 5 6 5 4 6 5 6 11 17 20 24 21 21 20
102 97 93 76 76 70 64 64 61 59 57 56 55 53 51 48 45 43 40 36 33 31 29 26 22 17 13 11 7 5 4 2 2 1 1 1 4 5 11 20 24 28 28 29 25 24 22
118 88 83 75 72 66 60 57 53 51 48 47 46 46 44 43 41 40 37 35 32 30 27 24 21 18 17 12 9 7 8 7 6 6 7 10 11 15 20 29 30 31 36 34 33 28 24
120 96 83 77 74 67 58 54 49 46 45 44 45 44 42 41 39 37 36 35 33 30 28 24 22 21 20 17 13 12 11 12 13 13 14 18 17 22 26 30 35 37 38 36 32 33 28
123 103 79 71 73 70 57 55 49 44 42 42 42 45 45 45 42 40 38 36 35 30 28 29 28 26 24 19 16 18 18 21 22 20 19 22 21 25 28 30 37 38 39 36 33 29 27
116 111 83 69 66 62 55 51 41 36 39 37 42 44 46 47 46 42 42 41 36 34 41 36 30 28 25 24 26 26 28 30 28 27 26 26 27 25 25 29 33 38 38 38 36 33 30
107 110 97 71 60 57 58 53 41 41 37 37 39 45 46 50 51 50 51 51 49 48 46 44 41 36 37 38 37 37 37 38 37 35 30 33 34 32 26 22 21 25 29 34 34 35 33
102 107 102 84 59 54 55 51 44 37 36 35 37 39 41 46 50 52 53 54 54 55 53 50 50 50 49 50 51 52 51 49 46 43 41 39 38 38 34 31 26 23 20 16 15 12 13
97 99 94 99 70 51 49 45 45 40 37 32 32 33 39 41 44 48 51 51 52 53 54 55 55 56 56 59 59 59 59 57 55 53 52 50 50 50 43 41 35 31 29 27 24 20 18
91 96 96 97 92 58 40 41 42 42 35 36 34 32 32 35 38 42 45 45 46 47 49 50 52 53 55 56 56 58 58 58 57 57 55 55 55 55 50 48 43 39 39 40 39 35 33
88 89 90 89 94 76 46 34 36 38 36 33 32 31 30 30 32 35 39 42 43 44 45 46 48 48 50 51 52 53 53 52 54 53 52 51 49 47 47 47 48 45 42 40 38 35 34
85 89 88 97 87 89 69 39 29 30 33 33 30 26 24 24 25 27 29 32 34 35 38 39 40 41 41 42 44 45 46 46 47 47 46 44 43 42 40 40 38 38 38 34 34 32 29
81 84 84 92 82 83 79 68 39 28 27 30 30 26 21 19 18 19 20 22 24 25 27 30 30 31 32 32 33 35 35 37 38 37 37 37 36 35 35 34 32 32 29 29 27 28 25
78 77 82 85 81 73 80 78 59 33 28 24 26 26 24 21 18 14 13 15 16 16 18 20 21 22 23 24 24 25 26 26 27 27 27 27 27 27 26 25 24 24 24 24 23 23 20

GFSGBSN_250_spd_105.txt.gz
Wind_Speed
96 96 97 98 99 100 103 105 106 104 104 104 104 105 104 104 102 100 98 95 93 90 88 86 85 84 82 80 80 83 86 82 80 80 82 87 93 98 99 104 104 99 95 93 93 90 90
94 94 89 87 89 92 94 97 100 100 101 102 104 104 105 106 104 104 100 98 97 94 91 89 87 84 80 79 79 83 78 76 78 79 79 81 86 92 98 101 102 101 95 91 93 92 91
74 71 77 77 84 89 93 96 97 99 101 102 100 100 101 100 99 98 98 97 95 95 90 89 87 81 75 75 80 75 78 75 72 72 77 80 81 86 93 95 96 97 97 93 92 93 93
71 83 80 73 76 84 92 95 94 88 84 83 81 80 79 79 80 82 84 86 91 92 88 84 85 74 68 71 68 72 69 67 66 70 72 74 75 81 85 86 89 89 90 90 91 91 92
84 84 98 93 85 78 70 68 67 67 67 65 63 56 48 52 58 64 66 72 74 75 75 76 70 63 57 61 62 63 61 61 61 62 64 65 69 73 76 78 79 79 82 84 84 87 91
89 89 95 103 99 86 73 65 56 49 48 47 48 43 45 41 43 52 53 59 57 56 57 58 58 53 48 52 55 52 54 55 52 52 57 61 66 67 68 70 69 71 74 77 80 80 83
88 91 96 105 104 95 72 59 51 42 39 38 34 32 28 24 25 36 45 51 51 50 51 52 48 42 45 44 46 48 44 44 46 47 52 58 59 60 59 60 61 62 66 70 73 79 80
92 93 94 96 103 97 76 56 47 39 32 29 23 17 16 15 21 23 29 36 39 37 36 34 34 36 36 36 37 35 37 38 39 43 48 51 51 47 46 50 54 58 64 70 74 71 70
92 91 95 93 97 96 83 62 45 35 28 24 19 12 6 6 9 11 16 20 23 22 23 26 27 30 30 30 28 29 29 33 36 39 41 39 37 40 44 49 54 60 62 64 65 64 62
92 91 96 96 94 96 87 70 52 39 30 25 19 13 9 6 5 6 9 13 14 18 22 24 24 24 26 25 27 28 29 30 31 32 33 34 36 40 44 48 50 49 50 52 53 52 53
87 95 94 100 102 90 85 76 58 44 36 29 24 19 16 14 15 17 15 16 20 22 23 25 26 26 27 26 25 27 28 29 28 27 31 33 34 36 38 37 39 41 41 43 45 44 47
86 92 103 108 105 92 84 78 69 52 42 39 35 28 22 20 21 19 20 23 23 27 29 29 27 27 25 24 24 25 25 27 29 28 27 28 28 29 27 28 30 34 37 39 42 46 49
89 94 102 105 103 99 86 81 72 64 53 44 44 41 36 30 25 25 25 26 30 32 31 30 28 27 24 24 24 24 24 26 26 22 21 22 23 21 22 25 30 33 36 38 41 44 43
94 90 96 107 102 100 89 80 77 71 60 55 53 48 41 36 37 35 34 34 34 33 32 31 29 27 25 24 23 23 22 20 19 16 16 15 16 19 24 29 32 32 29 28 28 28 26
96 88 92 100 102 101 89 83 78 67 65 63 58 53 53 48 46 42 39 39 36 35 34 31 28 26 24 22 20 17 14 12 10 9 12 18 20 20 21 20 19 19 15 15 18 17 20
121 88 85 92 99 100 88 85 76 66 60 59 56 52 50 48 45 43 40 40 36 33 30 26 23 19 16 12 10 7 5 6 8 10 12 11 12 13 12 14 15 12 14 18 18 22 25
122 96 82 84 92 97 89 85 77 66 59 57 53 51 48 44 40 37 32 32 27 25 22 19 16 12 9 6 5 7 6 6 8 11 11 10 11 13 16 16 15 19 21 25 25 24 28
116 119 85 76 82 91 90 82 78 73 62 56 56 55 52 48 42 38 35 33 29 26 24 21 19 18 16 17 16 12 12 12 13 13 13 13 15 18 19 21 23 23 25 30 24 28 33
113 110 108 73 73 79 84 79 76 71 67 63 58 61 58 53 48 43 39 35 33 30 28 27 27 25 24 24 22 21 19 17 15 14 17 19 18 21 22 27 29 30 29 32 34 25 23
101 111 105 82 67 69 77 76 74 69 65 62 60 60 58 54 51 46 40 38 36 31 32 32 33 31 30 28 26 25 24 22 18 18 20 20 21 20 22 25 30 32 34 32 33 33 30
95 104 98 106 75 63 65 73 71 72 67 59 57 56 54 53 52 48 48 44 43 44 42 39 38 34 31 29 29 29 29 27 24 23 24 21 22 20 20 24 28 32 34 34 36 34 29
86 97 99 99 99 72 58 61 67 66 70 62 54 53 53 53 55 56 54 52 50 49 47 44 43 39 36 35 35 34 35 34 31 26 26 26 26 19 17 20 22 21 29 32 33 35 34
83 88 93 95 100 94 64 54 55 58 59 60 58 51 49 51 53 55 56 58 57 56 53 54 52 50 49 47 45 44 42 40 36 32 30 31 33 30 25 24 23 21 13 11 16 14 18
75 81 85 91 96 95 92 76 50 48 51 52 50 51 51 50 47 49 52 53 54 55 54 54 55 56 55 55 53 53 52 49 45 42 41 38 38 36 32 29 27 25 22 20 20 17 15
74 75 78 84 84 94 93 87 77 43 40 44 46 46 46 46 46 44 44 45 45 47 51 52 52 50 51 52 54 55 54 54 50 48 48 48 47 45 43 40 40 36 33 30 27 24 23
74 68 77 84 79 86 86 90 83 71 39 34 37 41 43 41 41 38 38 40 40 41 42 43 45 46 47 46 47 47 48 47 48 50 50 50 48 45 44 44 42 40 38 37 35 33 30
71 67 67 77 81 84 82 84 82 78 59 37 31 32 35 39 37 35 34 34 35 34 35 35 36 37 39 39 41 41 42 42 42 42 43 42 41 40 37 37 38 37 36 36 34 34 31
68 70 71 75 77 83 78 84 76 80 73 72 54 35 30 30 33 33 30 29 29 28 27 27 27 28 30 31 32 33 32 33 33 33 33 33 33 32 32 31 31 31 30 29 26 25 24
63 70 68 73 73 78 81 73 73 77 82 78 65 59 53 40 28 27 30 29 27 25 23 22 21 20 20 21 21 22 23 23 23 23 23 24 23 23 22 22 21 22 21 19 19 18 17

GFSGBSN_250_spd_108.txt.gz
Wind_Speed
70 62 59 62 61 63 63 64 70 71 76 84 93 94 97 97 98 100 102 101 98 95 93 91 90 89 88 84 84 85 88 88 86 88 89 92 89 88 92 96 98 102 105 101 101 97 93
66 58 58 64 64 69 68 66 70 65 63 61 69 78 82 91 94 97 98 100 101 99 96 95 93 94 89 90 89 89 87 89 85 84 81 85 89 88 91 92 94 98 102 102 99 98 96
68 61 62 64 65 66 71 74 69 58 51 52 50 54 60 66 74 81 92 93 94 93 94 96 95 92 91 91 89 90 89 88 84 80 80 82 85 86 84 88 90 94 99 100 96 96 95
67 70 69 61 68 73 78 73 62 55 49 44 43 39 45 49 55 59 68 77 81 83 86 94 89 91 90 87 87 85 83 79 75 76 76 77 82 80 83 84 85 87 89 92 94 95 93
70 72 78 73 72 74 81 73 61 54 48 40 36 33 29 29 36 43 49 53 60 69 81 81 82 89 85 83 79 71 72 70 70 69 72 75 71 73 76 79 79 80 80 84 87 92 89
78 78 78 78 80 82 85 76 63 54 45 38 30 24 21 18 19 30 37 47 58 63 69 76 77 77 71 71 68 61 60 57 57 63 67 64 65 69 71 71 72 72 73 78 82 81 83
84 87 86 92 100 91 86 80 68 57 44 33 25 20 13 10 14 23 36 44 41 44 55 63 63 64 61 58 52 44 45 49 53 57 56 56 58 57 60 63 61 66 69 74 72 72 77
95 92 96 99 113 97 81 83 70 57 42 32 24 16 8 4 5 14 24 28 28 34 41 45 48 47 43 39 35 35 38 44 45 46 49 48 46 50 51 53 54 58 63 64 66 67 69
95 93 103 107 113 104 86 86 75 59 46 38 33 24 15 10 4 5 10 13 18 24 27 28 32 34 33 32 29 30 34 36 37 38 39 37 39 39 41 44 50 54 59 60 60 59 61
95 97 100 109 114 112 97 86 80 66 55 42 38 30 24 20 19 16 15 16 18 21 22 23 26 26 27 26 26 28 30 29 30 30 30 28 30 32 39 44 47 49 52 53 55 56 57
97 97 98 109 112 113 105 89 79 78 64 55 47 44 35 29 27 26 23 20 19 19 20 20 21 22 22 23 25 25 25 25 25 24 24 28 33 38 40 44 44 46 47 48 49 50 51
114 99 95 101 111 112 109 97 79 75 74 65 55 52 46 39 35 31 28 25 22 20 19 20 21 22 21 22 22 22 22 23 26 28 31 34 34 35 37 37 37 38 38 40 40 41 42
124 97 96 98 104 112 110 105 91 75 71 71 63 55 53 50 46 39 34 31 27 24 22 21 21 20 20 21 22 24 25 27 29 28 28 29 28 28 27 27 27 28 31 32 33 34 35
123 112 94 95 99 106 113 108 102 88 77 71 66 64 57 52 48 43 40 37 36 31 30 27 25 24 24 23 23 22 21 21 18 20 21 20 20 20 19 19 21 23 25 26 28 31 34
115 119 103 95 94 98 107 108 103 99 91 83 74 67 60 56 51 44 38 33 33 27 25 23 20 17 16 14 15 14 15 15 15 16 15 16 14 16 17 18 19 21 22 23 24 25 23
107 118 115 97 93 91 95 102 100 97 95 87 83 79 69 60 52 44 36 36 33 29 27 26 23 22 19 17 15 15 15 15 13 12 12 12 14 14 13 15 18 17 13 14 16 16 16
103 110 112 115 95 88 86 89 95 94 91 88 85 81 75 68 61 53 45 39 33 29 27 24 21 18 15 14 13 10 9 9 10 11 11 11 12 11 12 12 11 12 12 14 14 17 21
95 104 107 110 110 87 81 81 82 91 89 84 81 79 76 71 65 62 55 46 40 34 31 27 28 23 20 17 15 13 10 9 10 11 12 13 13 14 13 12 11 9 12 16 21 28 34
93 99 102 106 109 104 77 74 73 75 81 81 77 71 71 70 70 65 59 52 47 43 38 34 32 30 28 24 22 21 18 16 15 14 13 15 13 16 19 22 19 17 17 20 22 37 43
86 94 98 101 104 101 95 67 68 67 66 71 76 78 74 70 69 68 65 61 57 52 46 45 40 37 34 33 33 30 28 24 24 21 19 17 13 16 19 20 22 23 25 22 23 29 40
82 85 91 96 99 106 94 93 64 63 62 60 66 70 72 74 70 66 65 65 65 61 56 50 46 44 42 43 43 40 35 30 29 24 22 18 13 12 17 18 20 20 27 27 29 32 47
72 77 88 90 94 97 101 93 83 64 59 60 58 60 63 69 70 69 65 64 63 61 60 59 56 52 49 46 45 45 40 35 33 31 26 22 24 18 16 16 16 20 23 27 23 33 56
68 72 79 81 88 90 96 91 90 90 65 58 57 54 54 58 62 62 64 62 59 59 59 60 61 59 56 54 51 46 41 37 32 31 30 25 20 20 19 25 19 14 9 11 17 21 36
63 70 74 77 80 85 90 88 91 86 86 84 63 54 51 49 52 55 57 57 57 57 56 56 57 59 58 60 58 54 50 46 42 38 35 33 29 25 22 20 20 21 21 19 16 10 14
63 65 70 75 75 80 79 84 88 92 80 85 83 58 48 45 45 46 48 50 50 51 52 50 50 50 51 52 53 52 51 49 47 45 45 43 41 38 34 31 27 27 24 24 22 19 16
62 66 67 70 73 77 75 78 77 88 89 84 81 87 69 49 43 43 43 43 43 44 45 45 45 44 44 43 42 42 42 42 42 41 43 43 40 38 37 37 36 35 33 32 31 30 26
59 63 62 60 72 74 73 71 76 81 81 82 79 79 81 72 58 50 43 39 39 37 37 36 37 37 37 37 37 36 36 36 36 36 35 35 35 35 35 33 30 32 32 31 30 31 30
61 61 65 58 61 70 68 73 71 75 86 83 80 82 69 79 74 69 61 44 35 33 33 32 30 30 30 29 28 28 27 27 26 27 27 26 26 26 26 26 25 26 27 25 25 26 25
60 60 61 61 62 63 68 67 66 69 75 85 76 82 79 82 79 80 72 54 31 30 28 27 28 27 24 23 22 21 19 18 16 15 15 15 15 16 17 16 18 18 18 18 18 18 17

GFSGBSN_250_spd_111.txt.gz
Wind_Speed
63 57 64 69 74 71 70 69 66 63 55 61 74 79 84 90 94 102 102 96 98 105 109 110 107 106 100 94 93 91 88 88 88 88 89 93 96 96 95 96 95 94 101 105 106 106 104
77 76 78 84 82 71 62 59 62 64 55 49 52 55 65 69 77 84 93 96 96 88 96 108 110 106 100 100 99 95 94 90 89 89 90 90 94 97 95 95 96 95 95 97 102 105 105
85 84 87 95 88 69 61 66 61 49 41 35 33 34 42 48 55 59 62 72 83 83 84 91 108 110 105 104 102 100 99 96 91 92 90 89 92 93 91 91 90 92 92 93 96 101 102
89 88 90 97 87 73 70 73 55 43 35 29 23 21 23 31 38 44 49 53 65 72 77 82 87 100 106 105 102 102 101 98 93 92 91 89 89 90 88 90 87 88 87 91 93 95 95
94 94 94 99 93 85 77 76 61 51 41 32 25 18 14 19 26 29 35 46 55 62 69 75 79 82 85 85 96 99 97 96 94 90 87 86 87 87 87 83 83 84 84 86 85 86 86
97 96 97 102 102 100 83 83 71 57 45 36 28 20 10 9 16 23 31 37 47 54 60 72 79 79 82 83 77 75 76 73 72 73 73 76 78 79 78 80 79 81 77 76 78 79 76
117 99 99 103 109 107 92 86 80 63 50 41 35 28 17 5 4 15 21 28 38 46 55 65 70 71 70 73 65 63 61 59 54 57 60 61 66 68 71 73 71 66 63 68 72 71 69
129 104 102 105 111 111 99 87 88 76 57 45 38 32 23 15 8 3 6 14 21 32 49 57 62 63 63 59 59 57 53 50 48 47 52 56 59 64 63 57 54 54 57 61 68 66 68
129 123 101 103 111 112 104 97 87 84 70 54 45 38 30 24 23 19 12 11 15 20 26 40 48 46 44 43 42 40 38 36 37 42 48 52 51 47 44 42 43 44 52 58 61 59 59
131 132 108 103 106 113 111 104 92 82 80 72 57 47 40 36 32 27 21 17 14 14 16 20 17 19 25 27 30 30 31 32 36 41 40 36 35 32 31 34 41 42 46 50 48 49 50
125 131 124 105 104 110 115 113 103 89 76 74 68 59 51 46 41 36 31 26 20 17 16 14 15 17 19 21 21 24 28 31 30 27 27 25 24 28 31 33 36 39 40 41 41 44 48
117 126 127 111 106 105 109 117 113 104 93 83 75 72 62 53 48 43 37 32 27 21 16 15 15 16 16 16 17 19 22 22 19 20 23 28 30 30 30 31 32 33 34 34 34 38 37
110 121 129 122 100 103 103 108 114 108 103 93 81 70 63 57 51 46 40 37 34 28 25 21 18 16 15 15 15 17 18 21 23 24 25 25 25 24 23 25 24 23 24 26 27 30 31
106 112 122 121 117 98 97 100 104 110 107 102 91 79 68 60 54 51 45 40 36 29 25 23 21 20 19 19 20 20 20 19 19 19 19 18 19 17 18 18 19 19 19 18 21 22 22
99 104 115 117 122 107 93 91 94 97 100 103 99 89 78 69 59 50 41 40 40 34 30 25 20 18 15 16 15 14 15 15 15 15 15 15 14 15 15 15 12 11 13 14 16 17 19
95 99 106 113 112 117 101 93 88 87 90 93 97 92 85 75 67 57 52 48 41 33 28 27 25 22 21 19 18 17 16 17 16 14 13 12 12 12 9 10 11 11 9 10 10 12 16
86 94 98 106 107 112 111 103 88 82 81 82 87 89 86 78 69 73 65 55 47 40 34 30 25 21 19 17 16 14 12 12 11 8 8 8 8 7 8 7 8 11 11 10 11 13 13
84 87 91 98 105 106 108 112 100 82 76 76 77 82 83 86 87 74 62 52 43 40 38 37 33 29 27 25 23 19 16 14 14 12 11 10 9 8 8 11 9 9 11 14 16 18 19
79 83 85 89 97 105 104 105 106 98 74 74 74 74 78 82 88 86 77 66 59 53 46 44 41 37 35 35 32 29 27 23 21 19 18 16 13 15 13 14 13 9 11 14 14 22 21
72 79 83 83 88 95 100 103 106 106 93 70 71 70 69 73 79 82 84 79 70 63 56 48 43 49 48 47 45 43 40 37 33 30 27 25 21 17 15 14 15 16 12 13 17 26 22
67 69 75 79 82 87 92 97 97 93 103 94 69 71 70 65 68 72 76 78 77 71 65 58 52 51 50 49 49 48 45 41 38 36 33 31 23 16 14 12 16 17 16 12 24 28 31
64 65 71 75 77 80 84 89 96 92 96 97 99 86 66 67 61 61 63 66 71 73 72 67 63 61 59 54 51 48 45 40 36 35 34 28 29 25 19 14 11 15 14 15 19 25 30
58 60 64 68 70 75 79 82 86 90 92 97 101 95 94 67 59 58 56 55 58 62 65 67 66 62 61 58 55 52 48 43 41 37 33 30 25 24 24 18 22 11 13 7 14 15 24
51 56 59 63 67 69 73 74 81 84 86 90 93 98 98 92 62 51 52 51 51 52 53 56 58 60 56 57 55 54 51 50 49 45 39 33 29 26 22 19 18 15 12 14 4 10 10
55 55 54 55 61 63 67 69 72 77 77 83 90 94 95 93 82 64 46 46 46 46 47 47 48 48 48 48 47 45 43 43 41 40 42 42 40 37 32 27 24 20 17 14 10 7 13
52 51 54 51 53 58 62 64 70 67 74 77 83 88 93 91 91 86 64 45 39 41 41 41 41 40 40 39 39 37 36 35 37 37 37 35 35 36 35 33 31 30 29 25 22 20 15
56 49 58 49 50 50 57 58 64 67 65 67 76 79 84 86 87 88 79 68 46 35 34 35 35 35 35 35 34 31 29 27 27 27 27 27 27 26 27 27 27 28 29 29 27 26 24
56 52 50 52 50 48 52 56 58 60 64 59 68 73 80 86 87 83 83 81 62 50 35 29 29 29 29 29 30 30 28 25 21 20 19 19 19 18 18 19 19 20 22 22 22 22 21
54 52 48 52 55 56 51 51 54 56 58 60 62 67 69 78 84 80 76 83 79 67 52 40 28 25 24 23 23 24 24 25 25 21 18 14 12 12 12 13 12 13 13 13 14 13 15

GFSGBSN_250_spd_114.txt.gz
Wind_Speed
73 83 88 96 101 84 64 60 53 47 46 47 50 54 58 66 69 76 80 80 81 79 89 93 112 108 106 104 101 96 93 91 89 88 86 84 83 83 87 92 99 97 103 106 105 105 99
97 87 91 99 103 87 68 63 49 39 34 37 38 38 38 52 67 73 75 78 78 83 81 88 90 109 112 111 110 102 98 94 91 90 88 86 85 85 85 85 88 92 96 100 104 107 106
106 86 92 101 108 94 72 66 56 46 35 25 24 25 30 38 55 63 66 73 78 84 88 84 85 91 108 115 110 103 98 96 93 92 93 90 90 90 89 89 88 87 88 90 93 98 100
115 87 91 102 111 100 79 74 64 58 43 28 21 16 18 28 40 50 54 55 66 77 84 88 90 92 93 106 116 110 105 104 101 96 96 96 94 94 93 92 90 89 90 90 87 91 91
122 92 95 100 110 111 95 80 74 69 60 42 27 17 8 12 23 32 38 42 48 63 80 82 89 94 94 95 104 112 109 106 104 101 100 98 97 97 97 97 94 93 90 88 88 85 85
126 114 97 99 107 116 108 95 82 77 72 60 41 27 15 3 8 17 24 30 37 53 73 78 88 95 97 96 91 93 102 106 106 104 103 102 102 99 98 98 96 93 91 89 91 88 83
124 130 118 103 106 113 117 105 92 86 83 69 55 39 26 16 10 4 6 20 35 49 62 69 75 88 95 95 87 87 88 92 96 102 103 102 101 101 100 97 96 95 94 93 91 83 77
119 129 126 113 107 110 116 114 104 87 80 80 69 51 35 28 19 17 13 7 22 37 45 52 58 69 79 84 84 82 77 71 72 79 83 87 85 85 89 92 88 84 85 79 77 70 64
117 123 129 124 110 107 114 119 113 103 90 82 79 69 50 39 32 25 23 17 10 17 25 31 46 55 61 67 68 63 63 60 60 60 61 60 63 63 65 70 72 74 69 64 62 63 60
110 120 129 130 120 107 110 114 118 115 105 92 84 78 70 53 42 35 29 23 16 9 6 5 11 34 44 46 49 49 51 52 50 47 47 48 51 56 64 66 62 54 53 53 51 52 48
106 113 121 131 135 109 105 110 113 113 112 101 90 82 75 68 57 43 37 30 24 18 13 9 7 6 6 15 22 24 29 29 33 37 43 49 51 48 46 43 41 40 40 39 40 40 40
101 110 117 122 130 128 108 104 106 108 109 109 98 84 76 66 62 54 46 38 30 25 20 17 13 14 15 19 21 24 26 29 33 32 30 29 31 32 31 31 31 29 30 29 30 29 29
96 104 109 114 118 122 130 108 100 102 103 103 105 94 79 71 62 55 50 45 39 30 26 23 20 17 16 14 14 17 18 18 19 21 23 23 24 23 22 19 18 20 18 20 22 25 23
89 97 102 109 116 118 120 125 110 96 96 96 100 102 91 75 66 61 51 46 44 39 32 26 23 21 20 18 17 17 16 16 14 14 16 15 15 12 11 12 13 14 15 14 15 17 18
86 89 96 102 108 114 114 119 123 116 91 91 92 97 96 86 73 65 58 52 44 38 36 33 31 28 26 22 19 17 15 14 14 12 11 11 11 11 11 13 12 11 10 9 11 12 12
81 82 88 94 101 105 110 115 116 122 106 87 87 87 85 87 84 78 74 55 46 39 34 32 32 30 28 25 23 20 18 16 14 13 13 13 12 12 12 12 11 9 8 10 9 8 8
75 77 82 88 93 97 103 108 114 115 122 98 88 85 82 81 85 92 72 62 53 45 39 34 29 27 26 26 24 22 21 18 16 15 13 12 11 11 11 10 7 10 10 8 7 7 5
73 76 76 81 85 90 95 99 105 107 110 119 105 84 79 80 82 84 86 76 63 54 46 41 37 34 30 27 23 22 19 17 15 15 13 14 14 14 13 14 13 11 10 11 13 11 9
67 72 74 76 78 83 89 94 98 101 106 106 116 105 85 78 77 76 77 80 80 67 56 50 47 47 45 44 42 38 35 33 32 28 26 25 23 22 21 18 17 12 14 17 16 10 8
64 67 67 73 70 74 79 84 92 96 99 99 106 111 114 83 74 71 71 73 77 79 74 62 51 47 46 47 45 44 46 42 37 35 31 28 27 24 20 17 15 13 11 13 11 10 10
61 63 65 67 69 67 72 77 81 91 96 97 99 102 109 109 82 71 66 64 65 69 72 72 68 61 55 49 45 44 44 42 42 40 34 31 28 20 18 11 9 6 7 3 11 14 11
53 59 62 65 68 60 66 69 73 82 85 92 95 97 102 103 104 83 69 64 60 61 61 63 65 66 63 60 55 50 46 41 39 37 36 31 28 25 15 12 12 8 5 5 7 8 16
50 52 54 61 64 58 61 63 65 72 78 82 89 93 98 95 98 91 85 69 60 57 54 56 56 58 59 59 56 55 53 50 47 42 36 30 26 25 21 17 15 15 5 7 6 4 9
47 48 50 54 61 56 60 61 59 64 68 75 78 84 89 94 94 97 87 84 77 62 55 49 48 49 49 51 51 52 50 48 47 46 44 41 35 29 23 17 14 11 10 10 9 3 7
48 47 46 51 52 52 54 56 60 60 61 66 70 77 79 85 86 93 92 88 85 81 65 50 47 44 43 41 39 42 42 41 40 40 39 38 37 36 35 29 21 19 17 15 15 13 11
39 47 48 47 51 52 50 52 56 58 56 59 63 68 73 78 85 85 90 89 86 84 80 66 52 44 41 38 38 37 34 33 33 33 33 32 32 31 32 32 31 31 27 24 21 19 20
44 43 52 53 48 45 46 50 51 54 57 55 56 60 63 70 77 79 81 85 87 85 82 79 65 50 40 37 34 32 31 31 30 28 27 27 28 27 25 26 25 24 23 22 22 21 20
51 40 48 48 51 47 46 46 49 53 51 53 53 52 58 64 67 71 72 79 81 82 82 80 76 68 52 41 33 30 29 28 27 26 26 24 22 21 21 22 21 21 20 19 19 18 15
58 51 47 53 56 54 53 48 49 51 50 52 51 49 55 59 62 65 71 72 75 78 78 78 77 78 70 52 44 34 27 24 24 24 21 21 21 19 17 16 17 17 17 17 16 16 17

GFSGBSN_250_spd_117.txt.gz
Wind_Speed
117 91 87 89 99 108 82 65 58 46 32 22 23 30 36 41 58 61 64 69 75 79 76 75 72 68 84 96 103 98 97 97 91 86 82 80 79 81 86 93 96 98 100 102 103 102 98
116 124 92 93 100 111 97 72 66 50 39 31 24 21 24 26 40 56 59 61 65 67 70 70 75 73 75 78 97 104 102 96 94 91 87 84 82 79 80 81 86 92 101 102 103 104 106
114 124 114 99 100 108 113 79 71 60 50 40 32 23 19 19 30 45 52 57 60 62 68 71 75 73 73 74 81 100 103 101 96 94 93 90 86 84 82 82 80 81 85 90 100 107 108
112 120 130 112 102 106 115 100 75 67 58 52 41 29 19 13 20 29 37 44 52 59 64 70 74 73 74 78 79 84 93 102 101 96 95 94 90 88 87 84 83 81 82 80 80 82 86
108 114 128 129 110 107 114 119 90 79 69 63 55 40 24 13 8 13 20 25 35 53 60 62 70 73 77 78 80 72 71 88 101 101 97 97 97 94 89 87 89 88 86 84 84 83 79
103 110 126 133 125 112 115 120 112 86 80 69 66 54 38 23 10 4 2 11 17 34 47 53 59 69 74 76 73 69 69 72 93 103 102 100 98 96 93 93 93 92 91 93 91 85 81
111 109 117 126 135 121 112 117 121 101 84 77 70 64 49 32 18 13 11 7 14 26 29 39 52 58 67 73 74 74 69 68 69 77 97 100 99 97 96 95 93 95 96 95 92 90 85
106 113 108 119 131 134 119 111 118 117 95 80 74 71 60 44 32 21 19 14 6 13 27 38 48 55 63 72 74 72 70 68 68 68 72 83 100 101 101 99 97 98 99 98 96 93 88
103 110 112 118 123 132 134 112 112 116 110 92 80 73 69 58 46 35 30 26 19 8 8 19 35 49 58 69 75 76 75 73 70 69 67 70 78 94 100 100 102 102 99 97 91 87 78
100 104 110 117 116 120 130 132 109 109 114 104 88 78 70 65 56 45 35 30 28 23 15 7 19 35 50 58 65 68 66 67 69 69 65 63 65 72 79 83 82 78 84 83 78 78 75
96 101 104 111 110 117 120 132 132 106 107 110 100 87 74 66 64 57 47 38 30 27 26 17 8 19 33 43 48 53 57 59 57 58 53 52 51 53 54 57 62 67 64 63 62 62 60
90 94 101 107 110 114 110 123 130 119 104 105 107 96 83 69 62 61 55 48 40 30 25 22 22 21 19 20 31 37 42 41 44 45 45 48 51 55 58 56 56 56 55 55 53 51 43
86 88 97 101 104 109 112 112 122 126 114 99 103 102 92 78 65 58 57 54 49 43 31 25 22 20 19 19 22 25 27 31 37 41 43 43 43 45 44 41 39 37 35 34 32 31 27
81 84 92 94 99 105 111 102 119 120 130 105 94 100 98 86 78 66 57 51 48 44 41 34 29 23 20 18 17 19 21 23 25 25 26 25 27 27 23 21 20 22 23 19 16 16 18
77 79 85 93 91 99 103 107 111 117 121 125 103 93 96 93 82 73 67 56 45 44 41 39 36 34 29 24 21 19 16 15 15 15 16 16 16 14 14 16 14 11 11 12 14 14 11
70 74 79 87 85 92 96 104 104 111 109 120 121 105 91 90 87 87 82 64 51 45 41 39 37 35 32 30 27 25 23 21 20 18 17 16 15 14 14 14 13 12 12 12 9 6 7
64 68 73 81 80 86 89 96 102 107 106 106 116 123 106 87 85 93 80 73 64 55 47 43 39 35 31 30 28 26 25 22 20 18 16 15 14 15 13 13 15 14 11 10 7 6 5
63 65 67 72 75 79 83 88 93 101 102 101 103 114 116 112 89 83 80 78 76 68 57 50 45 42 38 33 28 24 21 18 16 14 13 12 11 10 12 13 15 13 12 11 9 6 7
58 62 61 65 68 73 75 81 86 91 98 99 106 103 107 109 117 92 79 76 75 73 72 60 53 47 45 42 40 35 30 27 25 21 18 18 21 20 16 17 16 11 12 11 8 5 8
54 56 59 59 63 64 69 74 78 83 88 93 101 102 106 100 107 108 96 77 73 70 69 68 66 59 54 52 48 45 43 39 36 35 33 30 26 24 20 16 11 12 7 4 4 4 6
52 55 55 56 58 57 62 67 71 75 80 83 89 96 99 101 95 102 103 99 80 70 66 64 64 63 64 62 58 54 52 48 44 41 37 30 30 30 31 23 16 16 17 22 12 10 9
53 53 53 52 53 60 54 60 65 68 74 77 76 85 93 95 94 99 98 100 101 87 67 63 57 57 58 58 59 59 56 54 50 45 39 36 32 28 30 29 23 23 25 20 18 26 19
50 51 51 46 48 54 51 56 57 63 67 70 70 73 81 91 91 89 92 91 92 95 91 68 58 54 50 49 52 52 52 52 50 49 47 41 36 31 29 28 28 24 20 19 19 18 16
46 49 52 54 45 47 54 51 53 58 63 62 65 72 72 79 81 85 89 91 90 92 94 87 71 57 49 46 42 41 41 41 43 44 43 43 42 40 37 36 33 27 25 23 22 19 14
49 48 49 52 46 45 48 52 53 56 57 58 58 62 67 71 71 77 80 83 85 87 86 84 89 75 59 46 42 40 39 37 35 34 35 34 36 35 34 36 33 30 31 29 28 28 27
56 53 48 48 51 47 45 47 50 53 54 54 54 57 59 62 64 67 71 74 78 80 81 81 82 84 72 58 49 38 35 32 33 32 30 28 26 27 28 27 25 25 26 25 27 25 24
59 58 56 53 52 52 47 49 47 48 51 51 52 58 55 53 57 61 63 68 72 74 75 77 78 79 75 73 61 50 39 33 30 29 30 30 28 27 25 23 21 20 19 19 18 18 18
61 63 62 56 55 55 50 51 52 49 47 51 54 55 53 53 48 57 56 62 65 68 69 70 75 75 73 76 77 60 48 43 36 29 26 24 24 24 24 23 21 19 19 18 17 16 15
65 66 68 66 61 56 58 53 51 53 48 48 49 50 51 49 49 53 51 56 59 63 64 62 68 71 68 71 73 72 58 52 43 39 33 27 24 22 21 22 22 23 23 23 22 20 18